[[{"header":{"parameterUnit":"m.s-1","parameterCategory":1,"la1":30.6,"la2":28.766,"lo1":-90.7593,"lo2":-88.6598,"dy":0.0162,"dx":0.0183,"nx":116,"ny":114,"refTime":"2023-07-24T12:00:00:Z","depth":0,"parameterNumber":2,"parameterNumberName":"U-component_of_WINDS"},"data":[0.0,0.0,0.0,0.0,0.0,0.0,0.0,0.0,0.0,0.0,0.0,0.0,0.0,0.0,0.0,0.0,0.0,0.0,0.0,0.0,0.0,0.0,0.0,0.0,0.0,0.0,0.0,0.0,0.0,0.0,0.0,0.0,0.0,0.0,0.0,0.0,0.0,0.0,0.0,0.0,0.0,0.0,0.0,0.0,0.0,0.0,0.0,0.0,0.0,0.0,0.0,0.0,0.0,0.0,0.0,0.0,0.0,0.0,0.0,0.0,0.0,0.0,0.0,0.0,0.0,0.0,0.0,0.0,0.0,0.0,0.0,0.0,0.0,0.0,0.0,0.0,0.0,0.0,0.0,0.0,0.0,0.0,0.0,0.0,0.0,0.0,0.0,0.0,0.0,0.0,0.0,0.0,0.0,0.0,0.0,0.0,0.0,0.0,0.0,0.0,0.0,0.0,0.0,0.0,0.0,0.0,0.0,0.0,0.0,0.0,0.0,0.0,0.0,0.0,0.0,0.0,0.0,0.0,0.0,0.0,0.0,0.0,0.0,0.0,0.0,0.0,0.0,0.0,0.0,0.0,0.0,0.0,0.0,0.0,0.0,0.0,0.0,0.0,0.0,0.0,0.0,0.0,0.0,0.0,0.0,0.0,0.0,0.0,0.0,0.0,0.0,0.0,0.0,0.0,0.0,0.0,0.0,0.0,0.0,0.0,0.0,0.0,0.0,0.0,0.0,0.0,0.0,0.0,0.0,0.0,0.0,0.0,0.0,0.0,0.0,0.0,0.0,0.0,0.0,0.0,0.0,0.0,0.0,0.0,0.0,0.0,0.0,0.0,0.0,0.0,0.0,0.0,0.0,0.0,0.0,0.0,0.0,0.0,0.0,0.0,0.0,0.0,0.0,0.0,0.0,0.0,0.0,0.0,0.0,0.0,0.0,0.0,0.0,0.0,0.0,0.0,0.0,0.0,0.0,0.0,0.0,0.0,0.0,0.0,0.0,0.0,0.0,0.0,0.0,0.0,0.0,0.0,0.0,0.0,0.0,0.0,0.0,0.0,0.0,0.0,0.0,0.0,0.0,0.0,0.0,0.0,0.0,0.0,0.0,0.0,0.0,0.0,0.0,0.0,0.0,0.0,0.0,0.0,0.0,0.0,0.0,0.0,0.0,0.0,0.0,0.0,0.0,0.0,0.0,0.0,0.0,0.0,0.0,0.0,0.0,0.0,0.0,0.0,0.0,0.0,0.0,0.0,0.0,0.0,0.0,0.0,0.0,0.0,0.0,0.0,0.0,0.0,0.0,0.0,0.0,0.0,0.0,0.0,0.0,0.0,0.0,0.0,0.0,0.0,0.0,0.0,0.0,0.0,0.0,0.0,0.0,0.0,0.0,0.0,0.0,0.0,0.0,0.0,0.0,0.0,0.0,0.0,0.0,0.0,0.0,0.0,0.0,0.0,0.0,0.0,0.0,0.0,0.0,0.0,0.0,0.0,0.0,0.0,0.0,0.0,0.0,0.0,0.0,0.0,0.0,0.0,0.0,0.0,0.0,0.0,0.0,0.0,0.0,0.0,0.0,0.0,0.0,0.0,0.0,0.0,0.0,0.0,0.0,0.0,0.0,0.0,0.0,0.0,0.0,0.0,0.0,0.0,0.0,0.0,0.0,0.0,0.0,0.0,0.0,0.0,0.0,0.0,0.0,0.0,0.0,0.0,0.0,0.0,0.0,0.0,0.0,0.0,0.0,0.0,0.0,0.0,0.0,0.0,0.0,0.0,0.0,0.0,0.0,0.0,0.0,0.0,0.0,0.0,0.0,0.0,0.0,0.0,0.0,0.0,0.0,0.0,0.0,0.0,0.0,0.0,0.0,0.0,0.0,0.0,0.0,0.0,0.0,0.0,0.0,0.0,0.0,0.0,0.0,0.0,0.0,0.0,0.0,0.0,0.0,0.0,0.0,0.0,0.0,0.0,0.0,0.0,0.0,0.0,0.0,0.0,0.0,0.0,0.0,0.0,0.0,0.0,0.0,0.0,0.0,0.0,0.0,0.0,0.0,0.0,0.0,0.0,0.0,0.0,0.0,0.0,0.0,0.0,0.0,0.0,0.0,0.0,0.0,0.0,0.0,0.0,0.0,0.0,0.0,0.0,0.0,0.0,0.0,0.0,0.0,0.0,0.0,0.0,0.0,0.0,0.0,0.0,0.0,0.0,0.0,0.0,0.0,0.0,0.0,0.0,0.0,0.0,0.0,0.0,0.0,0.0,0.0,0.0,0.0,0.0,0.0,0.0,0.0,0.0,0.0,0.0,0.0,0.0,0.0,0.0,0.0,0.0,0.0,0.0,0.0,0.0,0.0,0.0,0.0,0.0,0.0,0.0,0.0,0.0,0.0,0.0,0.0,0.0,0.0,0.0,0.0,0.0,0.0,0.0,0.0,0.0,0.0,0.0,0.0,0.0,0.0,0.0,0.0,0.0,0.0,0.0,0.0,0.0,0.0,0.0,0.0,0.0,0.0,0.0,0.0,0.0,0.0,0.0,0.0,0.0,0.0,0.0,0.0,0.0,0.0,0.0,0.0,0.0,0.0,0.0,0.0,0.0,0.0,0.0,0.0,0.0,0.0,0.0,0.0,0.0,0.0,0.0,0.0,0.0,0.0,0.0,0.0,0.0,0.0,0.0,0.0,0.0,0.0,0.0,0.0,0.0,0.0,0.0,0.0,0.0,0.0,0.0,0.0,0.0,0.0,0.0,0.0,0.0,0.0,0.0,0.0,0.0,0.0,0.0,0.0,0.0,0.0,0.0,0.0,0.0,0.0,0.0,0.0,0.0,0.0,0.0,0.0,0.0,0.0,0.0,0.0,0.0,0.0,0.0,0.0,0.0,0.0,0.0,0.0,0.0,0.0,0.0,0.0,0.0,0.0,0.0,0.0,0.0,0.0,0.0,0.0,0.0,0.0,0.0,0.0,0.0,0.0,0.0,0.0,0.0,0.0,0.0,0.0,0.0,0.0,0.0,0.0,0.0,0.0,0.0,0.0,0.0,0.0,0.0,0.0,0.0,0.0,0.0,0.0,0.0,0.0,0.0,0.0,0.0,0.0,0.0,0.0,0.0,0.0,0.0,0.0,0.0,0.0,0.0,0.0,0.0,0.0,0.0,0.0,0.0,0.0,0.0,0.0,0.0,0.0,0.0,0.0,0.0,0.0,0.0,0.0,0.0,0.0,0.0,0.0,0.0,0.0,0.0,0.0,0.0,0.0,0.0,0.0,0.0,0.0,0.0,0.0,0.0,0.0,0.0,0.0,0.0,0.0,0.0,0.0,0.0,0.0,0.0,0.0,0.0,0.0,0.0,0.0,0.0,0.0,0.0,0.0,0.0,0.0,0.0,0.0,0.0,0.0,0.0,0.0,0.0,0.0,0.0,0.0,0.0,0.0,0.0,0.0,0.0,0.0,0.0,0.0,0.0,0.0,0.0,0.0,0.0,0.0,0.0,0.0,0.0,0.0,0.0,0.0,0.0,0.0,0.0,0.0,0.0,0.0,0.0,0.0,0.0,0.0,0.0,0.0,0.0,0.0,0.0,0.0,0.0,0.0,0.0,0.0,0.0,0.0,0.0,0.0,0.0,0.0,0.0,0.0,0.0,0.0,0.0,0.0,0.0,0.0,0.0,0.0,0.0,0.0,0.0,0.0,0.0,0.0,0.0,0.0,0.0,0.0,0.0,0.0,0.0,0.0,0.0,0.0,0.0,0.0,0.0,0.0,0.0,0.0,0.0,0.0,0.0,0.0,0.0,0.0,0.0,0.0,0.0,0.0,0.0,0.0,0.0,0.0,0.0,0.0,0.0,0.0,0.0,0.0,0.0,0.0,0.0,0.0,0.0,0.0,0.0,0.0,0.0,0.0,0.0,0.0,0.0,0.0,0.0,0.0,0.0,0.0,0.0,0.0,0.0,0.0,0.0,0.0,0.0,0.0,0.0,0.0,0.0,0.0,0.0,0.0,0.0,0.0,0.0,0.0,0.0,0.0,0.0,0.0,0.0,0.0,0.0,0.0,0.0,0.0,0.0,0.0,0.0,0.0,0.0,0.0,0.0,0.0,0.0,0.0,0.0,0.0,0.0,0.0,0.0,0.0,0.0,0.0,0.0,0.0,0.0,0.0,0.0,0.0,0.0,0.0,0.0,0.0,0.0,0.0,0.0,0.0,0.0,0.0,0.0,0.0,0.0,0.0,0.0,0.0,0.0,0.0,0.0,0.0,0.0,0.0,0.0,0.0,0.0,0.0,0.0,0.0,0.0,0.0,0.0,0.0,0.0,0.0,0.0,0.0,0.0,0.0,0.0,0.0,0.0,0.0,0.0,0.0,0.0,0.0,0.0,0.0,0.0,0.0,0.0,0.0,0.0,0.0,0.0,0.0,0.0,0.0,0.0,0.0,0.0,0.0,0.0,0.0,0.0,0.0,0.0,0.0,0.0,0.0,0.0,0.0,0.0,0.0,0.0,0.0,0.0,0.0,0.0,0.0,0.0,0.0,0.0,0.0,0.0,0.0,0.0,0.0,0.0,0.0,0.0,0.0,0.0,0.0,0.0,0.0,0.0,0.0,0.0,0.0,0.0,0.0,0.0,0.0,0.0,0.0,0.0,0.0,0.0,0.0,0.0,0.0,0.0,0.0,0.0,0.0,0.0,0.0,0.0,0.0,0.0,0.0,0.0,0.0,0.0,0.0,0.0,0.0,0.0,0.0,0.0,0.0,0.0,0.0,0.0,0.0,0.0,0.0,0.0,0.0,0.0,0.0,0.0,0.0,0.0,0.0,0.0,0.0,0.0,0.0,0.0,0.0,0.0,0.0,0.0,0.0,0.0,0.0,0.0,0.0,0.0,0.0,0.0,0.0,0.0,0.0,0.0,0.0,0.0,0.0,0.0,0.0,0.0,0.0,0.0,0.0,0.0,0.0,0.0,0.0,0.0,0.0,0.0,0.0,0.0,0.0,0.0,0.0,0.0,0.0,0.0,0.0,0.0,0.0,0.0,0.0,0.0,0.0,0.0,0.0,0.0,0.0,0.0,0.0,0.0,0.0,0.0,0.0,0.0,0.0,0.0,0.0,0.0,0.0,0.0,0.0,0.0,0.0,0.0,0.0,0.0,0.0,0.0,0.0,0.0,0.0,0.0,0.0,0.0,0.0,0.0,0.0,0.0,0.0,0.0,0.0,0.0,0.0,0.0,0.0,0.0,0.0,0.0,0.0,0.0,0.0,0.0,0.0,0.0,0.0,0.0,0.0,0.0,0.0,0.0,0.0,0.0,0.0,0.0,0.0,0.0,0.0,0.0,0.0,0.0,0.0,0.0,0.0,0.0,0.0,0.0,0.0,0.0,0.0,0.0,0.0,0.0,0.0,0.0,0.0,0.0,0.0,0.0,0.0,0.0,0.0,0.0,0.0,0.0,0.0,0.0,0.0,0.0,0.0,0.0,0.0,0.0,0.0,0.0,0.0,0.0,0.0,0.0,0.0,0.0,0.0,0.0,0.0,0.0,0.0,0.0,0.0,0.0,0.0,0.0,0.0,0.0,0.0,0.0,0.0,0.0,0.0,0.0,0.0,0.0,0.0,0.0,0.0,0.0,0.0,0.0,0.0,0.0,0.0,0.0,0.0,0.0,0.0,0.0,0.0,0.0,0.0,0.0,0.0,0.0,0.0,0.0,0.0,0.0,0.0,0.0,0.0,0.0,0.0,0.0,0.0,0.0,0.0,0.0,0.0,0.0,0.0,0.0,0.0,0.0,0.0,0.0,0.0,0.0,0.0,0.0,0.0,0.0,0.0,0.0,0.0,0.0,0.0,0.0,0.0,0.0,0.0,0.0,0.0,0.0,0.0,0.0,0.0,0.0,0.0,0.0,0.0,0.0,0.0,0.0,0.0,0.0,0.0,0.0,0.0,0.0,0.0,0.0,0.0,0.0,0.0,0.0,0.0,0.0,0.0,0.0,0.0,0.0,0.0,0.0,0.0,0.0,0.0,0.0,0.0,0.0,0.0,0.0,0.0,0.0,0.0,0.0,0.0,0.0,0.0,0.0,0.0,0.0,0.0,0.0,0.0,0.0,0.0,0.0,1.3823,1.3486,0.0,0.0,0.0,0.0,0.0,0.0,0.0,0.0,0.0,0.0,0.0,0.0,0.0,0.0,0.0,0.0,0.0,0.0,0.0,0.0,0.0,0.0,0.0,0.0,0.0,0.0,0.0,0.0,0.0,0.0,0.0,0.0,0.0,0.0,0.0,0.0,0.0,0.0,0.0,0.0,0.0,0.0,0.0,0.0,0.0,0.0,0.0,0.0,0.0,0.0,0.0,0.0,0.0,0.0,0.0,0.0,0.0,0.0,0.0,0.0,0.0,0.0,0.0,0.0,0.0,0.0,0.0,0.0,0.0,0.0,0.0,0.0,0.0,0.0,0.0,0.0,0.0,0.0,0.0,0.0,0.0,0.0,0.0,0.0,0.0,0.0,0.0,0.0,0.0,0.0,0.0,0.0,0.0,0.0,0.0,0.0,0.0,0.0,0.0,0.0,0.0,0.0,0.0,0.0,0.0,0.0,0.0,0.0,0.0,0.0,0.0,0.0,0.0,0.0,1.3806,1.3493,0.0,0.0,0.0,0.0,0.0,0.0,0.0,0.0,0.0,0.0,0.0,0.0,0.0,0.0,0.0,0.0,0.0,0.0,0.0,0.0,0.0,0.0,0.0,0.0,0.0,0.0,0.0,0.0,0.0,0.0,0.0,0.0,0.0,0.0,0.0,0.0,0.0,0.0,0.0,0.0,0.0,0.0,0.0,0.0,0.0,0.0,0.0,0.0,0.0,0.0,0.0,0.0,0.0,0.0,0.0,0.0,0.0,0.0,0.0,0.0,0.0,0.0,0.0,0.0,0.0,0.0,0.0,0.0,0.0,0.0,0.0,0.0,0.0,0.0,0.0,0.0,0.0,0.0,0.0,0.0,0.0,0.0,0.0,0.0,0.0,0.0,0.0,0.0,0.0,0.0,0.0,0.0,0.0,0.0,0.0,0.0,0.0,0.0,0.0,0.0,0.0,0.0,0.0,0.0,0.0,0.0,0.0,0.0,1.3105,1.3247,1.3087,1.4143,1.4328,1.3841,1.3655,1.3408,1.3263,1.3263,0.0,0.0,0.0,0.0,0.0,0.0,0.0,0.0,0.0,0.0,0.0,0.0,0.0,0.0,0.0,0.0,0.0,0.0,0.0,0.0,0.0,0.0,0.0,0.0,0.0,0.0,0.0,0.0,0.0,0.0,0.0,0.0,0.0,0.0,0.0,0.0,0.0,0.0,0.0,0.0,0.0,0.0,0.0,0.0,0.0,0.0,0.0,0.0,0.0,0.0,0.0,0.0,0.0,0.0,0.0,0.0,0.0,0.0,0.0,0.0,0.0,0.0,0.0,0.0,0.0,0.0,0.0,0.0,0.0,0.0,0.0,0.0,0.0,0.0,0.0,0.0,0.0,0.0,0.0,0.0,0.0,0.0,0.0,0.0,0.0,0.0,1.1401,1.1772,0.0,0.0,0.0,0.0,0.0,0.0,0.0,0.0,0.0,0.0,0.0,0.0,0.0,1.3351,1.3584,1.3788,1.3636,1.3193,1.3385,1.3256,1.2868,1.3006,1.3048,1.2982,1.2921,0.0,1.3459,1.3459,0.0,0.0,0.0,0.0,0.0,0.0,0.0,0.0,0.0,0.0,0.0,0.0,0.0,0.0,0.0,0.0,0.0,0.0,0.0,0.0,0.0,0.0,0.0,0.0,0.0,0.0,0.0,0.0,0.0,0.0,0.0,0.0,0.0,0.0,0.0,0.0,0.0,0.0,0.0,0.0,0.0,0.0,0.0,0.0,0.0,0.0,0.0,0.0,0.0,0.0,0.0,0.0,0.0,0.0,0.0,0.0,0.0,0.0,0.0,0.0,0.0,0.0,0.0,0.0,0.0,0.0,0.0,0.0,0.0,0.0,0.0,0.0,0.0,0.0,0.0,0.0,0.0,0.0,0.0,0.0,0.0,0.0,0.0,0.0,0.0,1.302,1.272,1.191,1.3273,1.4213,0.0,0.0,0.0,0.0,0.0,0.0,0.0,0.0,0.0,1.3373,1.3683,1.3751,1.3573,1.3619,1.3436,1.2944,1.3384,1.3284,1.2797,1.326,1.344,1.335,1.354,1.3542,1.3455,1.3483,1.3694,1.3891,0.0,0.0,0.0,0.0,1.4351,1.4889,0.0,0.0,0.0,0.0,0.0,0.0,0.0,0.0,0.0,0.0,0.0,0.0,0.0,0.0,0.0,0.2001,0.0,0.0,0.0,0.0,0.0,0.0,0.0,0.0,0.0,0.0,0.0,0.0,0.0,0.0,0.0,0.0,0.0,0.0,0.0,0.0,0.0,0.0,0.0,0.0,0.0,0.0,0.0,0.0,0.0,0.0,0.0,0.0,0.0,0.0,0.0,0.0,0.0,0.0,0.0,0.0,0.0,0.0,0.0,0.0,0.0,0.0,0.0,0.0,0.0,0.0,0.0,0.0,0.0,0.0,0.0,0.0,0.0,0.0,0.0,0.0,0.0,1.3111,1.3105,1.2189,1.3572,1.4577,0.0,0.0,0.0,0.0,0.0,0.0,1.3529,1.3818,1.3901,1.3697,1.3956,1.3962,1.3677,1.356,1.3372,1.3105,1.3589,1.354,1.3055,1.3648,1.3831,1.3621,1.3824,1.3705,1.3379,1.3591,1.3941,1.4273,1.3864,1.3923,1.4237,1.4212,1.4481,1.4931,0.0,0.0,0.0,0.0,0.0,0.0,0.0,0.0,0.0,0.0,0.0,0.0,0.0,0.0,0.2746,0.2504,0.2704,0.2704,0.0,0.0,0.0,0.0,0.0,0.0,0.0,0.0,0.0,0.0,0.0,0.0,0.0,0.0,0.0,0.0,0.0,0.0,0.0,0.0,0.0,0.0,0.0,0.0,0.0,0.0,0.0,0.0,0.0,0.0,0.0,0.0,0.0,0.0,0.0,0.0,0.0,0.0,0.0,0.0,0.0,0.0,0.0,0.0,0.0,0.0,0.0,0.0,0.0,0.0,0.0,0.0,0.0,0.0,0.0,0.0,0.0,0.0,0.0,0.0,0.0,1.2666,1.3729,0.0,0.0,0.0,0.0,1.4657,1.4961,1.4948,1.4358,1.4264,1.4127,1.3991,1.359,1.3807,1.4717,1.436,1.4159,1.4106,1.4265,1.4116,1.3673,1.3717,1.3499,1.316,1.3151,1.3153,1.3243,1.3983,1.4273,1.4313,1.4256,1.4526,1.494,1.4792,1.4711,1.4647,0.0,0.0,0.0,0.0,0.0,0.0,0.0,0.0,0.0,0.0,0.0,0.0,0.0,0.2329,0.2399,0.2381,0.2457,0.2419,0.2181,0.0,0.0,0.0,0.0,0.0,0.0,0.0,0.0,0.0,0.0,0.0,0.0,0.0,0.0,0.0,0.0,0.0,0.0,0.0,0.0,0.0,0.0,0.0,0.0,0.0,0.0,0.0,0.0,0.0,0.0,0.0,0.0,0.0,0.0,0.0,0.0,0.0,0.0,0.0,0.0,0.0,0.0,0.0,0.0,0.0,0.0,0.0,0.0,0.0,0.0,0.0,0.0,0.0,0.0,0.0,0.0,0.0,0.0,0.0,0.0,1.3789,1.3876,0.0,1.4731,1.4801,1.4699,1.4514,1.3998,1.3596,1.3368,1.3556,1.3529,1.3145,1.3552,1.3888,1.4201,1.4099,1.3988,1.3988,1.4053,1.3866,1.3459,1.3459,1.3375,1.3236,1.3343,1.3355,1.3465,1.4103,1.4456,1.4541,1.4173,1.4348,1.4808,1.4743,1.4713,1.479,0.0,0.0,0.0,0.0,0.0,0.0,0.0,0.0,0.0,0.0,0.0,0.2362,0.2186,0.2234,0.2319,0.2441,0.2377,0.2305,0.2197,0.0,0.0,0.0,0.0,0.0,0.0,0.0,0.0,0.0,0.0,0.0,0.0,0.0,0.0,0.0,0.0,0.0,0.0,0.0,0.0,0.0,0.0,0.0,1.0281,0.0,0.0,0.0,0.0,0.0,0.0,0.0,0.0,0.0,0.0,0.0,0.0,0.0,0.0,0.0,0.0,0.0,0.0,0.0,0.0,0.0,0.0,0.0,0.0,0.0,0.0,0.0,0.0,0.0,0.0,0.0,0.0,0.0,0.0,0.0,1.3466,1.4545,1.4373,1.4338,1.4923,1.5084,1.4914,1.4384,1.3982,1.3675,1.3398,1.3658,1.3647,1.3294,1.3889,1.4148,1.4093,1.4093,1.4093,1.4093,1.4093,1.3956,1.3708,1.3708,1.3626,1.3497,1.3608,1.358,1.3459,1.3873,1.4194,1.4478,1.4389,1.4575,1.4921,1.4935,1.4963,1.501,0.0,0.0,0.0,0.0,0.0,0.0,0.0,0.0,0.0,0.0,0.0,0.2392,0.2137,0.2393,0.2626,0.2675,0.2563,0.2451,0.242,0.1957,0.0,0.0,0.0,0.0,0.0,0.0,0.0,0.0,0.0,0.0,0.0,0.0,0.0,0.0,0.0,0.0,0.0,0.0,0.0,0.0,0.0,0.0,0.9026,0.0,0.0,0.0,0.0,0.0,0.0,0.0,0.0,0.0,0.0,0.0,0.0,0.0,0.0,0.0,0.0,0.0,0.0,0.0,0.0,0.0,0.0,0.0,0.0,0.0,0.0,0.0,0.0,0.0,0.0,0.0,0.0,0.0,1.4362,1.3952,1.3999,1.5017,1.5132,1.4901,1.4458,1.5715,1.5894,1.4331,1.512,1.5311,1.4661,1.4569,1.4554,1.4478,1.4488,1.4488,1.4478,1.4488,1.4488,1.4488,1.4506,1.4515,1.4515,1.4515,1.4286,1.3901,1.3901,1.3681,1.3332,1.3332,1.3586,1.4102,1.491,1.5266,1.5307,1.5417,1.539,1.5312,0.0,0.0,0.0,0.0,0.0,0.0,0.0,0.0,0.0,0.0,0.2273,0.2335,0.2111,0.2253,0.2463,0.2667,0.2299,0.2154,0.2366,0.0,0.0,0.0,0.0,0.0,0.0,0.0,0.0,0.0,0.0,0.0,0.0,0.0,0.0,0.0,0.0,0.0,0.0,0.0,0.0,0.0,0.0,0.0,0.9176,0.0,0.0,0.0,0.0,0.0,0.0,0.0,0.0,0.0,0.0,0.0,0.0,0.0,0.0,0.0,0.0,0.0,0.0,0.0,0.0,0.0,0.0,0.0,0.0,0.0,0.0,0.0,0.0,0.0,0.0,0.0,0.0,1.5188,1.4951,1.4504,1.4682,1.6021,1.5252,1.4772,1.5301,1.5049,1.4803,1.4674,1.4551,1.4512,1.4605,1.4251,1.4099,1.4057,1.4057,1.3919,1.3635,1.391,1.4057,1.4057,1.4368,1.4515,1.4515,1.4515,1.4451,1.4341,1.4341,1.4277,1.4176,1.4176,1.4225,1.4344,1.4054,1.4372,1.5066,1.4782,1.488,1.5108,0.0,0.0,0.0,0.0,0.0,0.0,0.0,0.0,0.0,0.0,0.224,0.2279,0.1963,0.209,0.2256,0.2413,0.2107,0.1999,0.2192,0.0,0.0,0.0,0.0,0.0,0.0,0.0,0.0,0.0,0.0,0.0,0.0,0.0,0.0,0.0,0.0,0.0,0.0,0.0,0.0,0.0,0.0,0.0,0.9371,0.9688,1.0302,1.1046,1.0936,1.1222,1.1606,1.1442,0.0,0.0,0.0,0.0,0.0,0.0,0.0,0.0,0.0,0.0,0.0,0.0,0.0,0.0,0.0,0.0,0.0,0.0,0.0,0.0,0.0,0.0,0.0,0.0,1.5139,1.5614,1.5838,1.5582,1.5692,1.6673,1.6063,1.5624,1.5795,1.5693,1.5512,1.5305,1.5145,1.5071,1.5075,1.4805,1.4561,1.4396,1.4552,1.4451,1.4057,1.4277,1.4387,1.4396,1.4469,1.4515,1.4515,1.4515,1.4515,1.4515,1.4515,1.4515,1.4515,1.4515,1.4515,1.4464,0.0,0.0,0.0,0.0,1.4233,1.4408,0.0,0.0,0.0,0.0,0.0,0.0,0.0,0.0,0.0,0.0,0.0,0.2163,0.1741,0.1897,0.2026,0.2007,0.1946,0.1903,0.0,0.0,0.0,0.0,0.0,0.0,0.0,0.0,0.0,0.0,0.0,0.0,0.0,0.0,0.0,0.0,0.0,0.0,0.0,0.0,0.0,0.0,0.0,0.0,0.9558,0.984,1.0386,1.1064,1.1078,1.1385,1.1755,1.1931,0.0,0.0,0.0,0.0,0.0,0.0,0.0,0.0,0.0,0.0,0.0,0.0,0.0,0.0,0.0,0.0,0.0,0.0,0.0,0.0,0.0,0.0,0.0,0.0,1.5553,1.5679,1.6898,1.6871,1.6786,1.7051,1.6963,1.6693,1.6093,1.6729,1.6785,1.5908,1.6235,1.6284,1.5753,1.5707,0.0,0.0,0.0,1.5414,1.4964,1.501,1.501,1.4955,1.4653,1.4515,1.4515,1.4515,1.4515,1.4515,1.4515,1.4515,1.4515,1.4515,1.4488,1.4418,1.4115,1.3975,1.3893,1.3687,1.3621,1.361,0.0,0.0,0.0,0.0,0.0,0.0,0.0,0.0,0.0,0.176,0.1821,0.1828,0.1654,0.1667,0.1758,0.1891,0.1616,0.1489,0.0,0.0,0.0,0.0,0.0,0.0,0.0,0.0,0.0,0.0,0.0,0.0,0.0,0.0,0.0,0.0,0.0,0.0,0.0,0.0,0.0,0.0,0.0,0.0,0.9286,0.9617,0.988,1.0052,1.0177,1.0747,1.1445,1.1164,1.1456,1.2016,1.2209,0.0,0.0,0.0,0.0,0.0,0.0,0.0,0.0,0.0,0.0,0.0,0.0,0.0,0.0,0.0,0.0,0.0,0.0,0.0,0.0,1.5143,1.602,1.6842,1.7561,1.7564,1.7388,1.7073,1.6253,1.5827,1.6086,1.5651,1.5285,1.5286,1.5634,1.5891,1.5957,1.5798,1.5652,1.5579,1.534,1.4864,1.413,1.446,1.446,1.4121,1.4387,0.0,1.4515,1.4515,1.4515,1.4515,1.4515,1.4515,1.4515,1.4515,1.4313,1.4013,1.3991,1.3801,1.3545,1.3575,1.3621,1.3515,0.0,0.0,0.0,0.0,0.0,0.0,0.0,0.0,0.0,0.0,0.163,0.1629,0.1476,0.1516,0.1586,0.1642,0.1541,0.0,0.0,0.0,0.0,0.0,0.0,0.0,0.0,0.0,0.0,0.0,0.0,0.0,0.0,0.0,0.0,0.0,0.0,0.0,0.0,0.0,0.0,0.0,0.0,0.0,0.9104,0.927,0.9578,1.0013,1.0098,1.0544,1.1107,1.1262,1.1351,1.1495,1.2091,1.2207,1.2292,0.0,0.0,0.0,0.0,0.0,0.0,0.0,0.0,0.0,0.0,0.0,0.0,0.0,0.0,1.3267,0.0,0.0,1.568,1.6725,1.7108,1.7486,1.7869,1.7494,1.7149,1.7203,1.673,1.6365,1.6191,1.5836,1.561,1.5671,1.5891,1.5959,1.5891,1.5959,1.5746,1.5151,1.5331,1.5052,1.4249,1.4448,1.4448,1.424,1.4249,1.4258,1.4258,1.4258,1.4258,1.4198,1.3881,1.3821,1.389,1.3519,1.3211,1.2932,1.2774,1.2842,1.302,1.29,1.2852,1.2793,0.0,0.0,0.0,0.0,0.0,0.0,0.0,0.0,0.0,0.0,0.0,0.1435,0.1233,0.1366,0.1444,0.0,0.0,0.0,0.0,0.0,0.0,0.0,0.0,0.0,0.0,0.0,0.0,0.0,0.0,0.0,0.0,0.0,0.0,0.0,0.0,0.0,0.0,0.0,0.0,0.0,0.0,0.0,0.8463,0.8517,0.9125,1.0015,1.004,1.0207,1.0509,1.1121,1.0918,1.0609,1.1814,1.2176,1.2233,1.2872,1.3331,0.0,0.0,0.0,0.0,0.0,0.0,0.0,0.0,0.0,1.4116,1.4693,1.4264,1.4338,1.6125,1.6125,1.6422,1.8204,1.7945,1.7629,1.7882,1.7067,1.6576,1.6958,1.7023,1.6872,1.6272,1.6272,1.6272,1.6211,1.6272,1.62,1.589,1.6173,1.5872,1.4834,1.542,1.5309,1.4399,1.439,1.4284,1.4072,1.3778,1.3631,1.3631,1.3631,1.3631,1.3571,1.307,1.2887,1.3017,1.2451,1.2104,1.1882,1.1487,1.1728,1.2244,1.1992,1.1931,1.1859,0.0,0.0,0.0,0.0,0.0,0.0,0.0,0.0,0.0,0.0,0.0,0.0,0.0,0.0,0.0,0.0,0.0,0.0,0.0,0.0,0.0,0.0,0.0,0.0,0.0,0.0,0.0,0.0,0.0,0.0,0.0,0.0,0.0,0.0,0.0,0.0,0.0,0.0,0.0,0.0,0.0,0.0,0.6637,0.6908,0.8089,0.9484,0.9155,0.9022,0.9011,0.9487,1.0,1.0531,1.1266,1.1625,1.1883,1.2436,0.0,1.2343,1.2858,1.3351,1.3999,1.5132,1.5192,1.5196,0.0,0.0,1.6649,1.6979,1.6407,1.6148,1.6982,1.6777,1.6703,1.7281,1.7269,1.726,1.7279,1.6457,1.5808,1.5446,1.5783,1.5938,1.5867,1.6,1.607,1.5867,1.614,1.6254,1.607,1.6175,1.6051,1.5624,1.5695,1.5103,1.3705,1.3697,1.3208,1.2313,1.2282,1.2197,1.2197,1.2197,1.2197,1.2197,1.2135,1.2135,1.2135,1.2074,1.1897,1.1598,1.1188,1.094,1.0877,1.1174,1.1214,1.1124,0.0,0.0,0.0,0.0,0.0,0.0,0.0,0.0,0.0,0.0,0.0,0.0,0.0,0.0,0.0,0.0,0.0,0.0,0.0,0.0,0.0,0.0,0.0,0.0,0.0,0.0,0.0,0.0,0.0,0.0,0.0,0.0,0.0,0.0,0.0,0.0,0.0,0.0,0.0,0.0,0.0,0.0,0.5719,0.5688,0.6435,0.7661,0.8513,0.855,0.0,0.0,0.9305,0.9606,1.0446,1.1049,1.147,1.1697,1.209,0.0,1.2979,1.3269,1.3805,0.0,1.5733,1.5953,1.7376,1.7274,1.7081,1.7658,1.6704,1.6204,1.7706,1.7505,1.7311,0.0,1.7815,1.756,1.7316,1.6184,1.5403,1.5232,1.4698,1.4463,1.4804,1.5265,1.5437,1.5163,1.5244,1.5168,1.4969,1.479,1.4355,1.3723,1.3982,1.3616,1.2611,1.2603,1.2299,1.1703,1.1703,1.1703,1.1703,1.1703,1.1516,1.1149,1.1081,1.0751,1.0309,1.0268,1.0118,0.9879,0.9751,0.9852,1.0149,1.0424,1.0446,1.0415,0.0,0.0,0.0,0.0,0.0,0.0,0.0,0.0,0.0,0.0,0.0,0.0,0.0,0.0,0.0,0.0,0.0,0.0,0.0,0.0,0.0,0.0,0.0,0.0,0.0,0.0,0.0,0.0,0.0,0.0,0.0,0.0,0.0,0.0,0.0,0.0,0.0,0.0,0.0,0.0,0.0,0.0,0.4941,0.4849,0.522,0.5998,0.7521,0.7645,0.0,0.0,0.8246,0.8352,0.9375,1.0229,1.0813,1.0931,1.1603,1.2368,1.2793,0.0,0.0,1.5315,1.5803,1.6216,1.7612,1.7579,1.7389,1.7798,1.6725,1.6162,1.7661,1.7054,1.6589,1.7614,1.7158,1.6744,1.6704,1.5469,1.4536,1.4438,1.3405,1.279,1.294,1.4011,1.4539,1.4288,1.4404,1.4332,1.3972,1.3626,1.3243,1.2637,1.2924,1.2716,1.1892,1.1892,1.1622,1.1087,1.1087,1.1038,1.0961,1.0961,1.0613,1.0095,1.0065,0.9624,0.9005,0.8936,0.8814,0.8573,0.8573,0.887,0.9316,0.9358,0.9606,0.9821,0.0,0.0,0.0,0.0,0.0,0.0,0.0,0.0,0.0,0.0,0.0,0.0,0.0,0.0,0.0,0.0,0.0,0.0,0.0,0.0,0.0,0.0,0.0,0.0,0.0,0.0,0.0,0.0,0.0,0.0,0.0,0.0,0.0,0.0,0.0,0.0,0.0,0.0,0.0,0.0,0.0,0.0,0.4092,0.4478,0.4694,0.4854,0.5842,0.0,0.0,0.0,0.6653,0.6815,0.8153,0.9146,0.0,1.0254,1.0664,1.1193,0.0,0.0,1.2946,1.4368,1.5094,1.565,1.6438,1.7638,1.8297,1.7617,1.6848,1.6371,1.6306,1.4728,1.3861,1.5209,1.4458,1.4057,1.51,1.3901,1.2833,1.2617,1.1787,1.0977,0.0,1.2085,1.3296,1.3137,1.3762,1.3917,1.3506,1.3528,1.3528,1.3433,1.3513,1.2999,1.1915,1.1915,1.1272,0.9928,0.9928,0.979,0.9542,0.9542,0.9397,0.9138,0.9132,0.8981,0.8687,0.8681,0.8531,0.8303,0.8303,0.8147,0.7973,0.7955,0.8587,0.9364,0.0,0.0,0.0,0.0,0.0,0.0,0.0,0.0,0.0,0.0,0.0,0.0,0.0,0.0,0.0,0.0,0.0,0.0,0.0,0.0,0.0,0.0,0.0,0.0,0.0,0.0,0.0,0.0,0.0,0.0,0.0,0.0,0.0,0.0,0.0,0.0,0.0,0.0,0.0,0.0,0.0,0.0,0.3182,0.3173,0.3258,0.338,0.0,0.0,0.0,0.0,0.0,0.0,0.6435,0.7094,0.0,0.9266,1.0174,1.084,1.1693,0.0,1.3776,1.4976,1.5337,1.5769,1.6996,1.6818,1.6398,1.6277,1.4725,1.3512,1.4178,1.2922,1.2087,1.2999,1.2923,1.2885,1.3126,1.2571,1.2109,1.1911,1.0843,0.0,0.0,0.0,0.0,1.1999,1.2147,1.2256,1.2485,1.1842,1.1471,1.1471,1.1376,1.1084,1.0542,1.0353,0.9946,0.9278,0.9278,0.9297,0.9338,0.9166,0.9098,0.9108,0.8699,0.8501,0.8405,0.8237,0.8111,0.8033,0.8033,0.8081,0.8135,0.7967,0.8227,0.8626,0.0,0.0,0.0,0.0,0.0,0.0,0.0,0.0,0.0,0.0,0.0,0.0,0.0,0.0,0.0,0.0,0.0,0.0,0.0,0.0,0.0,0.0,0.0,0.0,0.0,0.0,0.0,0.0,0.0,0.0,0.0,0.0,0.0,0.0,0.0,0.0,0.0,0.0,0.0,0.0,0.0,0.0,0.2248,0.2071,0.2041,0.0,0.0,0.0,0.0,0.0,0.0,0.0,0.4872,0.5593,0.6602,0.808,0.9084,0.9924,1.0924,1.1999,1.3135,1.4301,1.4547,1.4772,1.5733,1.5287,1.4617,1.4253,1.2733,1.1556,1.1853,1.0786,1.0113,1.084,1.0898,1.094,1.1388,1.1075,1.0817,1.0958,1.0002,0.9373,0.0,0.0,0.0,1.0732,1.1027,1.1281,1.1459,1.0887,1.0513,1.0513,1.0364,1.0204,1.0045,0.9873,0.9622,0.9291,0.9194,0.9167,0.9204,0.8947,0.8845,0.8788,0.8362,0.812,0.8025,0.7805,0.7788,0.7842,0.7794,0.7889,0.8068,0.7901,0.7949,0.8068,0.0,0.0,0.0,0.0,0.0,0.0,0.0,0.0,0.0,0.0,0.0,0.0,0.0,0.0,0.0,0.0,0.0,0.0,0.0,0.0,0.0,0.0,0.0,0.0,0.0,0.0,0.0,0.0,0.0,0.0,0.0,0.0,0.0,0.0,0.0,0.0,0.0,0.0,0.0,0.0,0.0,0.0,0.1213,0.1162,0.0,0.0,0.0,0.0,0.0,0.0,0.0,0.0,0.0,0.4752,0.6215,0.6737,0.7593,0.8561,0.9736,1.042,1.1147,1.2544,1.2826,1.282,1.2877,1.3126,1.2974,1.1644,1.0956,1.0335,0.0,0.0,0.7943,0.8802,0.839,0.8521,0.998,0.9385,0.9062,0.0,0.0,0.0,0.0,0.0,0.0,0.9361,0.0,1.0894,1.0501,1.0455,1.0455,1.0443,1.0426,1.0421,1.0421,1.0398,1.0222,0.9759,0.9496,0.9245,0.9011,0.8754,0.8508,0.8269,0.7989,0.7738,0.7521,0.7521,0.7568,0.767,0.7574,0.7568,0.767,0.767,0.767,0.7729,0.0,0.0,0.0,0.0,0.0,0.0,0.0,0.0,0.0,0.0,0.0,0.0,0.0,0.0,0.0,0.0,0.0,0.0,0.0,0.0,0.0,0.0,0.0,0.0,0.0,0.0,0.0,0.0,0.0,0.0,0.0,0.0,0.0,0.0,0.0,0.0,0.0,0.0,0.0,0.0,0.0,0.0,-0.0,0.0,0.0,0.0,0.0,0.0,0.0,0.0,0.0,0.0,0.0,0.4051,0.4876,0.5652,0.6863,0.8258,0.9443,1.0619,1.175,1.2451,1.1997,1.1533,1.1594,1.0942,1.0256,0.9863,0.8834,0.784,0.0,0.0,0.0,0.7059,0.7527,0.0,0.884,0.9031,0.0,0.9628,0.0,0.9373,0.9379,0.9531,0.0,0.0,1.0031,1.0177,1.0282,1.0324,1.0264,1.0073,0.9903,0.981,0.981,0.945,0.9278,0.9157,0.8848,0.8761,0.8818,0.8382,0.8212,0.8263,0.7806,0.7578,0.7521,0.7521,0.7521,0.7568,0.7515,0.7521,0.7568,0.7568,0.7568,0.7568,0.0,0.0,0.0,0.0,0.0,0.0,0.0,0.0,0.0,0.0,0.0,0.0,0.0,0.0,0.0,0.0,0.0,0.0,0.0,0.0,0.0,0.0,0.0,0.0,0.0,0.0,0.0,0.0,0.0,0.0,0.0,0.0,0.0,0.0,0.0,0.0,0.0,0.0,0.0,0.0,0.0,0.0,0.0,0.0,0.0,0.0,0.0,0.0,0.0,0.0,0.0,0.2245,0.3184,0.3852,0.4406,0.4929,0.0,0.7326,0.8081,0.9347,1.0443,1.0961,1.065,1.0262,1.0186,0.9427,0.8607,0.8196,0.7417,0.0,0.6151,0.6106,0.0,0.0,0.0,0.0,0.8108,0.8511,0.8985,0.0,0.9825,0.0,1.0035,1.0159,1.0234,0.0,1.0095,1.0095,1.0231,1.0187,1.0067,0.9927,0.942,0.9204,0.9204,0.9315,0.9222,0.9012,0.8883,0.8777,0.8624,0.8138,0.7973,0.8075,0.7516,0.73,0.73,0.73,0.7359,0.7413,0.7354,0.7359,0.7413,0.7413,0.7413,0.7419,0.0,0.0,0.0,0.0,0.0,0.0,0.0,0.0,0.0,0.0,0.0,0.0,0.0,0.0,0.0,0.0,0.0,0.0,0.0,0.0,0.0,0.0,0.0,0.0,0.0,0.0,0.0,0.0,0.0,0.0,0.0,0.0,0.0,0.0,0.0,0.0,0.0,0.0,0.0,0.0,0.0,0.0,0.0,0.0,0.0,0.0,0.0,0.0,0.0,0.0,0.1481,0.1947,0.3164,0.3944,0.4455,0.4483,0.5261,0.6291,0.6568,0.7609,0.8689,0.9074,0.9288,0.9209,0.8846,0.8344,0.7709,0.6793,0.0,0.6092,0.5358,0.5505,0.5736,0.5592,0.0,0.6644,0.7474,0.7824,0.8459,0.9633,0.9983,1.0232,1.0411,1.0486,1.04,1.035,1.0195,1.0215,1.0293,1.0089,0.9878,0.9765,0.8927,0.8546,0.8546,0.9205,0.9348,0.906,0.9034,0.8779,0.8452,0.8005,0.7785,0.7725,0.7279,0.7085,0.7085,0.7085,0.7144,0.7257,0.7139,0.7198,0.7257,0.7257,0.7257,0.7311,0.0,0.0,0.0,0.0,0.0,0.0,0.0,0.0,0.0,0.0,0.0,0.0,0.0,0.0,0.0,0.0,0.0,0.0,0.0,0.0,0.0,0.0,0.0,0.0,0.0,0.0,0.0,0.0,0.0,0.0,0.0,0.0,0.0,0.0,0.0,0.0,0.0,0.0,0.0,0.0,0.0,0.0,0.0,0.0,0.0,0.0,0.0,0.0,0.0,0.0,0.1715,0.2434,0.3344,0.3914,0.428,0.4419,0.5186,0.622,0.6483,0.7863,0.91,0.9155,0.9039,0.8845,0.851,0.7544,0.0,0.0,0.5727,0.5278,0.4726,0.5022,0.5233,0.5007,0.0,0.0,0.0,0.0,0.7572,0.0,0.9189,0.9397,0.9702,0.9659,0.0,0.0,0.9143,0.9571,1.0293,1.0256,0.9823,0.8937,0.8156,0.7693,0.7693,0.7622,0.7801,0.8212,0.7969,0.8006,0.8261,0.7925,0.7693,0.7437,0.7209,0.7085,0.7085,0.7085,0.7139,0.7139,0.7085,0.7139,0.7139,0.7139,0.7139,0.7139,0.0,0.0,0.0,0.0,0.0,0.0,0.0,0.0,0.0,0.0,0.0,0.0,0.0,0.0,0.0,0.0,0.0,0.0,0.0,0.0,0.0,0.0,0.0,0.0,0.0,0.0,0.0,0.0,0.0,0.0,0.0,0.0,0.0,0.0,0.0,0.0,0.0,0.0,0.0,0.0,0.0,0.0,0.0,0.0,0.0,0.0,0.0,0.0,0.0,0.0,0.2099,0.297,0.366,0.414,0.4494,0.4548,0.5062,0.5635,0.5849,0.7269,0.8584,0.8412,0.8565,0.8604,0.8001,0.0,0.0,0.0,0.5023,0.4622,0.4176,0.0,0.0,0.0,0.0,0.0,0.0,0.0,0.0,0.0,0.8263,0.8399,0.0,0.863,0.8467,0.8301,0.8286,0.8449,0.8936,0.9306,0.9038,0.8084,0.8537,0.838,0.754,0.7737,0.7916,0.8075,0.7458,0.7407,0.781,0.7405,0.7377,0.7612,0.7241,0.7085,0.7085,0.7085,0.7085,0.7085,0.7085,0.7085,0.7085,0.7085,0.7085,0.7085,0.0,0.0,0.0,0.0,0.0,0.0,0.0,0.0,0.0,0.0,0.0,0.0,0.0,0.0,0.0,0.0,0.0,0.0,0.0,0.0,0.0,0.0,0.0,0.0,0.0,0.0,0.0,0.0,0.0,0.0,0.0,0.0,0.0,0.0,0.0,0.0,0.0,0.0,0.0,0.0,0.0,0.0,0.0,0.0,0.0,0.0,0.0,0.0,0.0,0.0,0.2251,0.307,0.3606,0.4188,0.4637,0.4868,0.5184,0.556,0.5814,0.7217,0.8539,0.7975,0.8293,0.8537,0.7523,0.6422,0.0,0.0,0.445,0.4084,0.3876,0.0,0.4027,0.0,0.0,0.0,0.0,0.0,0.0,0.0,0.7139,0.0,0.7756,0.7541,0.0,0.7542,0.7217,0.7202,0.7679,0.8013,0.7855,0.7234,0.8309,0.821,0.695,0.7422,0.7676,0.7588,0.6879,0.6743,0.7118,0.6852,0.6958,0.7449,0.7191,0.7085,0.7085,0.7085,0.7085,0.7085,0.7085,0.7085,0.7085,0.7085,0.7085,0.7085,0.0,0.0,0.0,0.0,0.0,0.0,0.0,0.0,0.0,0.0,0.0,0.0,0.0,0.0,0.0,0.0,0.0,0.0,0.0,0.0,0.0,0.0,0.0,0.0,0.0,0.0,0.0,0.0,0.0,0.0,0.0,0.0,0.0,0.0,0.0,0.0,0.0,0.0,0.0,0.0,0.0,0.0,0.0,0.0,0.0,0.0,0.0,0.0,0.0,0.0,0.0,0.2203,0.2741,0.3575,0.4428,0.5044,0.0,0.0,0.7663,0.8969,0.993,0.9248,0.9038,0.8791,0.7598,0.0,0.0,0.4808,0.4264,0.3865,0.4192,0.3987,0.3736,0.0,0.0,0.0,0.0,0.0,0.0,0.0,0.0,0.0,0.6527,0.6452,0.6116,0.5514,0.5331,0.5879,0.7411,0.6861,0.6395,0.6318,0.5783,0.5343,0.5075,0.5136,0.5368,0.5728,0.5645,0.5745,0.6038,0.6482,0.6562,0.6375,0.6885,0.7085,0.7085,0.7085,0.7085,0.7085,0.7085,0.7085,0.7085,0.7085,0.7085,0.7085,0.0,0.0,0.0,0.0,0.0,0.0,0.0,0.0,0.0,0.0,0.0,0.0,0.0,0.0,0.0,0.0,0.0,0.0,0.0,0.0,0.0,0.0,0.0,0.0,0.0,0.0,0.0,0.0,0.2167,0.0,0.0,0.0,0.0,0.0,0.0,0.164,0.0,0.0,0.0,0.0,0.0,0.0,0.0,0.0,0.0,0.0,0.0,0.0,0.0,0.0,0.0,0.0,0.2362,0.2842,0.0,0.0,0.5391,0.6138,0.7138,0.8617,0.9724,0.8936,0.8847,0.8659,0.7379,0.0,0.4979,0.4697,0.4127,0.3741,0.3921,0.348,0.3099,0.0,0.0,0.0,0.0,0.0,0.0,0.0,0.4815,0.0,0.0,0.0,0.5102,0.4925,0.4964,0.5323,0.5938,0.6086,0.6163,0.6163,0.6308,0.616,0.5573,0.5409,0.5412,0.5641,0.508,0.5038,0.5472,0.5548,0.5902,0.6439,0.6534,0.6756,0.7085,0.7085,0.7085,0.7085,0.7085,0.7085,0.7085,0.7085,0.7085,0.7085,0.0,0.0,0.0,0.0,0.0,0.0,0.0,0.0,0.0,0.0,0.0,0.0,0.0,0.0,0.0,0.0,0.0,0.0,0.0,0.0,0.0,0.0,0.0,0.0,0.0,0.0,0.0,0.0,0.0,0.0,0.0,0.0,0.2537,0.2679,0.0,0.0,0.0,0.0,0.0,0.0,0.0,0.0,0.0,0.0,0.0,0.0,0.0,0.0,0.0,0.0,0.0,0.0,0.0,0.0,0.0,0.0,0.4989,0.5918,0.7003,0.8408,0.9458,0.8859,0.8679,0.8398,0.0,0.0,0.5005,0.4544,0.3991,0.3568,0.3568,0.3081,0.2687,0.0,0.0,0.0,0.0,0.0,0.0,0.0,0.0,0.4177,0.0,0.4732,0.4691,0.4737,0.4884,0.4963,0.4963,0.5457,0.5752,0.5794,0.6257,0.6225,0.5666,0.547,0.5349,0.5307,0.4607,0.4608,0.506,0.5071,0.5557,0.6473,0.6489,0.6701,0.7085,0.7085,0.7085,0.7085,0.7085,0.7085,0.7085,0.7085,0.7085,0.7085,0.0,0.0,0.0,0.0,0.0,0.0,0.0,0.0,0.0,0.0,0.0,0.0,0.0,0.0,0.0,0.0,0.0,0.0,0.0,0.0,0.0,0.0,0.0,0.0,0.0,0.0,0.0,0.0,0.0,0.0,0.0,0.0,0.3068,0.2712,0.0,0.0,0.0,0.0,0.0,0.0,0.0,0.0,0.0,0.0,0.0,0.0,0.0,0.0,0.0,0.0,0.0,0.0,0.0,0.0,0.0,0.0,0.4875,0.6305,0.7812,0.8876,0.9534,0.9276,0.8678,0.7968,0.0,0.5731,0.4726,0.4451,0.3764,0.3214,0.3214,0.2951,0.2687,0.2687,0.0,0.0,0.0,0.0,0.0,0.0,0.0,0.3817,0.438,0.4798,0.4969,0.4844,0.4836,0.4836,0.4836,0.4722,0.4711,0.483,0.4789,0.4668,0.4544,0.4541,0.4414,0.4303,0.43,0.4493,0.484,0.5442,0.5901,0.6209,0.681,0.7085,0.7085,0.7085,0.7085,0.7085,0.7085,0.7085,0.7085,0.7085,0.7085,0.7085,0.0,0.0,0.0,0.0,0.0,0.0,0.0,0.0,0.0,0.0,0.0,0.0,0.0,0.0,0.0,0.0,0.0,0.0,0.0,0.0,0.0,0.0,0.0,0.0,0.0,0.0,0.0,0.0,0.0,0.0,0.0,0.0,0.0,0.0,0.3876,0.0,0.0,0.0,0.0,0.0,0.0,0.0,0.0,0.0,0.0,0.0,0.0,0.0,0.0,0.0,0.0,0.0,0.0,0.0,0.0,0.0,0.0,0.0,0.6222,0.727,0.7979,0.7583,0.7349,0.6972,0.6176,0.5268,0.4394,0.3995,0.3557,0.3214,0.3306,0.3043,0.2823,0.2823,0.2594,0.0,0.0,0.0,0.0,0.3518,0.4165,0.4621,0.0,0.0,0.4966,0.4844,0.4833,0.4798,0.4713,0.4594,0.4621,0.4828,0.4635,0.451,0.4469,0.4393,0.4336,0.43,0.4216,0.4405,0.4773,0.4918,0.5388,0.6209,0.6426,0.6701,0.7085,0.7085,0.7085,0.7085,0.7085,0.7085,0.7085,0.6918,0.6815,0.681,0.0,0.0,0.0,0.0,0.0,0.0,0.0,0.0,0.0,0.0,0.0,0.0,0.0,0.0,0.0,0.0,0.0,0.0,0.0,0.0,0.0,0.0,0.0,0.0,0.0,0.0,0.0,0.0,0.0,0.0,0.0,0.0,0.0,0.0,0.0,0.0,0.0,0.0,0.0,0.0,0.0,0.0,0.3988,0.0,0.0,0.0,0.0,0.0,0.0,0.0,0.0,0.0,0.0,0.0,0.0,0.0,0.3578,0.0,0.0,0.5961,0.6783,0.6504,0.6513,0.0,0.0,0.5116,0.4347,0.3869,0.3432,0.3081,0.2954,0.2821,0.2732,0.2684,0.2516,0.0,0.0,0.0,0.0,0.3557,0.0,0.0,0.0,0.4879,0.4847,0.477,0.4722,0.4664,0.466,0.4471,0.4496,0.4692,0.4507,0.4406,0.4406,0.4336,0.43,0.43,0.4178,0.449,0.5132,0.4983,0.5506,0.6534,0.6534,0.6756,0.0,0.7085,0.7085,0.7085,0.6977,0.6977,0.6923,0.6647,0.6539,0.648,0.0,0.0,0.0,0.0,0.0,0.0,0.0,0.0,0.0,0.0,0.0,0.0,0.0,0.0,0.0,0.0,0.0,0.0,0.0,0.0,0.0,0.0,0.0,0.0,0.0,0.0,0.0,0.5776,0.6261,0.5986,0.5028,0.0,0.0,0.0,0.0,0.0,0.0,0.468,0.459,0.4558,0.4558,0.4558,0.0,0.0,0.0,0.0,0.0,0.0,0.0,0.0,0.0,0.0,0.0,0.0,0.0,0.0,0.0,0.0,0.0,0.0,0.0,0.0,0.0,0.0,0.0,0.5242,0.0,0.3953,0.3385,0.286,0.2333,0.2375,0.246,0.2368,0.233,0.2335,0.0,0.2443,0.0,0.0,0.3783,0.0,0.4618,0.472,0.472,0.4712,0.4604,0.4466,0.4458,0.4357,0.4344,0.4442,0.4344,0.4292,0.43,0.4284,0.4278,0.4287,0.4153,0.465,0.5596,0.5548,0.6057,0.7031,0.7031,0.7085,0.7025,0.7025,0.7025,0.7031,0.6756,0.6647,0.6647,0.6317,0.6154,0.6154,0.0,0.0,0.0,0.0,0.0,0.0,0.0,0.0,0.0,0.0,0.0,0.0,0.0,0.0,0.0,0.0,0.0,0.0,0.0,0.0,0.0,0.0,0.0,0.0,0.0,0.0,0.0,0.7576,0.8067,0.7861,0.7036,0.75,0.0,0.0,0.0,0.6545,0.5852,0.5829,0.5588,0.5264,0.5264,0.5207,0.0,0.0,0.0,0.0,0.4852,0.4959,0.0,0.0,0.0,0.0,0.0,0.0,0.0,0.0,0.4426,0.4723,0.4218,0.0,0.5168,0.4995,0.5394,0.5697,0.0,0.0,0.0,0.0,0.0,0.0,0.0,0.2551,0.264,0.2595,0.2713,0.2674,0.2485,0.0,0.0,0.3695,0.4214,0.4482,0.4515,0.4671,0.4684,0.452,0.4488,0.4431,0.4344,0.4314,0.427,0.4202,0.4175,0.4205,0.43,0.4115,0.4069,0.4159,0.3941,0.4237,0.4848,0.52,0.5648,0.6154,0.6593,0.6647,0.6426,0.6426,0.6426,0.6426,0.6317,0.6317,0.6263,0.6005,0.59,0.5845,0.0,0.0,0.0,0.0,0.0,0.0,0.0,0.0,0.0,0.0,0.0,0.0,0.0,0.0,0.0,0.0,0.0,0.0,0.0,0.0,0.0,0.0,0.0,0.0,0.0,0.0,0.0,0.0,0.0,0.8722,0.0,0.0,0.0,0.0,0.0,0.7306,0.6913,0.6661,0.6427,0.616,0.6044,0.0,0.0,0.0,0.0,0.0,0.5789,0.582,0.0,0.5789,0.5602,0.5421,0.0,0.0,0.0,0.0,0.5046,0.5098,0.4994,0.5109,0.5152,0.4856,0.5232,0.5588,0.0,0.0,0.0,0.0,0.0,0.0,0.0,0.0,0.0,0.0,0.3373,0.0,0.0,0.0,0.3716,0.4069,0.4122,0.424,0.0,0.4515,0.4485,0.4471,0.4423,0.4365,0.4303,0.43,0.427,0.4202,0.4148,0.4121,0.4132,0.3936,0.3904,0.4031,0.3724,0.3929,0.4507,0.4633,0.4948,0.5445,0.5932,0.6095,0.5932,0.6095,0.6209,0.6209,0.6055,0.6,0.6,0.5681,0.5576,0.5521,0.0,0.0,0.0,0.0,0.0,0.0,0.0,0.0,0.0,0.0,0.0,0.0,0.0,0.0,0.0,0.0,0.0,0.0,0.0,0.0,0.0,0.0,0.0,0.0,0.0,0.0,0.0,0.0,0.0,0.0,0.0,0.0,0.9145,0.0,0.0,0.7921,0.7954,0.7443,0.7216,0.7127,0.6859,0.0,0.0,0.0,0.0,0.0,0.0,0.0,0.0,0.6669,0.6427,0.6106,0.6337,0.0,0.0,0.0,0.0,0.0,0.5969,0.5901,0.561,0.5224,0.5427,0.568,0.0,0.0,0.0,0.0,0.0,0.0,0.0,0.0,0.0,0.0,0.0,0.0,0.4357,0.4126,0.4076,0.4421,0.4069,0.0,0.4396,0.4338,0.4341,0.4436,0.4355,0.43,0.43,0.4281,0.4273,0.4204,0.4073,0.395,0.3787,0.3724,0.3724,0.3785,0.3433,0.3611,0.4183,0.4064,0.4229,0.4732,0.5277,0.5496,0.5496,0.5882,0.605,0.605,0.5791,0.574,0.5686,0.5411,0.5297,0.5297,0.0,0.0,0.0,0.0,0.0,0.0,0.0,0.0,0.0,0.0,0.0,0.0,0.0,0.0,0.0,0.0,0.0,0.0,0.0,0.0,0.0,0.0,0.0,0.0,0.0,0.0,0.0,0.0,0.0,0.0,0.9866,1.0465,1.0394,0.0,0.9108,0.8778,0.8712,0.8462,0.8153,0.782,0.7618,0.0,0.0,0.0,0.0,0.0,0.0,0.0,0.0,0.6876,0.6816,0.6755,0.6794,0.0,0.0,0.0,0.0,0.0,0.6632,0.657,0.6373,0.5827,0.5691,0.5588,0.0,0.0,0.0,0.0,0.0,0.0,0.0,0.0,0.0,0.0,0.0,0.5203,0.0,0.0,0.479,0.4835,0.0,0.4581,0.459,0.4392,0.4308,0.4325,0.4311,0.43,0.43,0.4202,0.4081,0.3883,0.3686,0.351,0.3375,0.3492,0.3492,0.3372,0.3206,0.321,0.3322,0.3796,0.3953,0.3846,0.4791,0.5069,0.4853,0.5293,0.5458,0.5407,0.5407,0.5352,0.5356,0.5301,0.5297,0.5297,0.0,0.0,0.0,0.0,0.0,0.0,0.0,0.0,0.0,0.0,0.0,0.0,0.0,0.0,0.0,0.0,0.0,0.0,0.0,0.0,0.0,0.0,0.0,0.0,0.0,0.0,0.0,0.0,0.0,1.0067,0.95,1.0171,1.0331,1.01,0.9865,0.9869,1.0012,0.9726,0.9374,0.8949,0.0,0.0,0.0,0.0,0.0,0.0,0.0,0.0,0.0,0.0,0.75,0.7184,0.7065,0.0,0.0,0.0,0.0,0.0,0.7327,0.7125,0.6787,0.6362,0.597,0.5793,0.0,0.0,0.0,0.0,0.0,0.0,0.0,0.0,0.0,0.6586,0.0,0.6558,0.6278,0.5929,0.562,0.0,0.0,0.4528,0.4602,0.4331,0.4138,0.4205,0.4202,0.4172,0.4107,0.405,0.3893,0.3765,0.3666,0.3466,0.3173,0.3231,0.3261,0.3204,0.2988,0.2912,0.3023,0.3186,0.3241,0.3188,0.4076,0.4411,0.4356,0.5022,0.5297,0.5297,0.5297,0.5297,0.5285,0.5242,0.5206,0.5194,0.0,0.0,0.0,0.0,0.0,0.0,0.0,0.0,0.0,0.0,0.0,0.0,0.0,0.0,0.0,0.0,0.0,0.0,0.0,0.0,0.0,0.0,0.0,0.0,0.0,0.0,1.0073,0.9876,0.9933,0.9667,0.9155,0.9633,1.0059,0.0,1.0413,1.0729,1.1229,1.0698,1.0325,1.0032,0.0,0.0,0.0,0.0,0.0,0.0,0.0,0.0,0.0,0.0,0.0,0.0,0.0,0.0,0.0,0.7204,0.7184,0.7147,0.7656,0.7517,0.7161,0.6963,0.0,0.0,0.0,0.0,0.0,0.0,0.0,0.0,0.0,0.0,0.0,0.7414,0.7674,0.7716,0.7233,0.6744,0.6354,0.6302,0.5341,0.4747,0.4851,0.4407,0.4108,0.4146,0.4014,0.3911,0.3819,0.3787,0.3721,0.3564,0.3517,0.3344,0.3056,0.3033,0.2983,0.3021,0.2802,0.2747,0.286,0.2747,0.2691,0.2747,0.3635,0.4024,0.4079,0.4967,0.5297,0.5293,0.5253,0.5209,0.5156,0.5068,0.4964,0.4892,0.0,0.0,0.0,0.0,0.0,0.0,0.0,0.0,0.0,0.0,0.0,0.0,0.0,0.0,0.0,0.0,0.0,0.0,0.0,0.0,0.0,0.0,0.0,0.0,0.0,0.9455,0.9962,1.0438,0.9845,0.965,0.9817,0.9575,1.0117,1.1277,1.0663,1.0997,1.1956,1.0863,1.0599,1.08,0.9673,0.0,0.0,0.0,0.0,0.0,0.0,0.0,0.0,0.0,0.0,0.0,0.0,0.0,0.7197,0.734,0.756,0.7648,0.7336,0.754,0.7773,0.7489,0.0,0.0,0.0,0.0,0.0,0.0,0.0,0.0,0.0,0.8141,0.8426,0.7866,0.8123,0.8227,0.7639,0.0,0.7005,0.7005,0.6424,0.5965,0.5738,0.5003,0.4449,0.4198,0.3768,0.352,0.3513,0.3416,0.3287,0.3261,0.3029,0.2919,0.2826,0.2742,0.2753,0.2747,0.2691,0.2691,0.2691,0.2691,0.2691,0.2747,0.3635,0.4024,0.4079,0.4967,0.5297,0.5281,0.5165,0.4995,0.484,0.4828,0.4626,0.4374,0.0,0.0,0.0,0.0,0.0,0.0,0.0,0.0,0.0,0.0,0.0,0.0,0.0,0.0,0.0,0.0,0.0,0.0,0.0,0.0,0.0,0.0,0.0,0.8569,0.8409,0.9408,0.9719,0.9253,0.8617,0.8647,0.9278,0.9576,0.0,0.0,0.0,1.2478,1.3408,1.2555,1.2239,1.2242,1.1353,1.1064,0.0,0.0,0.0,0.0,0.0,0.0,0.0,0.0,0.8308,0.7928,0.0,0.0,0.0,0.0,0.7423,0.7475,0.7474,0.7741,0.7929,0.7485,0.0,0.0,0.0,0.0,0.0,0.0,0.0,0.0,0.0,0.0,0.8482,0.81,0.8166,0.8109,0.7777,0.7446,0.7198,0.7198,0.622,0.5514,0.551,0.4607,0.3969,0.3776,0.3592,0.3441,0.3256,0.3213,0.3154,0.3022,0.2954,0.2822,0.2742,0.2707,0.2691,0.2691,0.2691,0.2691,0.2691,0.2691,0.2858,0.319,0.3747,0.419,0.4467,0.5077,0.5233,0.5112,0.4778,0.4565,0.4447,0.4104,0.3928,0.3819,0.0,0.0,0.0,0.0,0.0,0.0,0.0,0.0,0.0,0.0,0.0,0.0,0.0,0.0,0.0,0.0,0.0,0.0,0.0,0.0,0.0,0.0,0.0,0.8055,0.8041,0.9215,0.9598,0.9195,0.8178,0.8153,0.9041,0.0,0.0,0.0,0.0,0.0,1.3975,1.3392,1.3199,1.32,1.2432,1.2168,0.0,0.0,0.0,0.0,0.0,0.0,0.0,0.0,0.0,0.0,0.0,0.0,0.0,0.0,0.7369,0.756,0.7526,0.794,0.8248,0.0,0.0,0.0,0.0,0.0,0.0,0.0,0.0,0.0,0.0,0.0,0.0,0.0,0.7991,0.8,0.7724,0.7453,0.7331,0.7331,0.6208,0.5467,0.5463,0.447,0.3792,0.3593,0.3472,0.3266,0.3135,0.3074,0.3021,0.2916,0.2916,0.286,0.2691,0.2691,0.2691,0.2691,0.2662,0.2662,0.2691,0.2691,0.2856,0.3188,0.3704,0.4149,0.4515,0.4958,0.4972,0.47,0.433,0.4107,0.3907,0.3532,0.3358,0.3253,0.0,0.0,0.0,0.0,0.0,0.0,0.0,0.0,0.0,0.0,0.0,0.0,0.0,0.0,0.0,0.0,0.0,0.0,0.0,0.0,0.0,0.0,0.0,0.784,0.7897,0.874,0.9663,1.0639,0.8787,0.8379,0.9364,1.1477,0.0,0.0,0.0,0.0,0.0,0.0,1.3142,1.3535,1.2609,1.286,1.3664,0.0,0.0,0.0,0.0,0.0,0.0,0.0,0.8477,0.0,0.0,0.0,0.0,0.0,0.7522,0.8069,0.7448,0.8142,0.0,0.0,0.0,0.0,0.0,0.0,0.0,0.0,0.0,0.0,0.0,0.0,0.0,0.7244,0.7711,0.7937,0.7445,0.7389,0.7389,0.7389,0.6673,0.61,0.5828,0.4838,0.407,0.3796,0.3352,0.3074,0.3074,0.3074,0.3021,0.2916,0.2916,0.286,0.2691,0.2691,0.2691,0.2689,0.2651,0.2655,0.2689,0.2689,0.2687,0.2738,0.35,0.3893,0.4051,0.4594,0.4457,0.3986,0.3983,0.3654,0.3214,0.317,0.2996,0.2729,0.0,0.0,0.0,0.0,0.0,0.0,0.0,0.0,0.0,0.0,0.0,0.0,0.0,0.0,0.0,0.0,0.0,0.0,0.0,0.0,0.0,0.0,0.0,0.0,0.0,0.0,0.7219,0.69,0.7,0.8344,0.0,0.0,0.0,1.3933,0.0,0.0,0.0,0.0,1.4399,1.4998,1.4248,1.3877,1.3769,0.0,0.0,0.0,0.0,0.0,0.0,0.0,0.0,0.0,0.0,0.0,0.0,0.6941,0.7179,0.7524,0.7346,0.7766,0.0,0.0,0.0,0.0,0.0,0.0,0.0,0.0,0.0,0.0,0.7848,0.0,0.0,0.6678,0.6328,0.6073,0.5916,0.5916,0.5916,0.5916,0.5368,0.4956,0.4901,0.4242,0.3691,0.3524,0.3413,0.319,0.297,0.297,0.2914,0.2747,0.2747,0.2747,0.2691,0.2691,0.2658,0.2649,0.262,0.2622,0.2647,0.2527,0.2654,0.3012,0.3235,0.3493,0.3773,0.3843,0.3788,0.3601,0.3224,0.2985,0.2818,0.2598,0.242,0.2377,0.0,0.0,0.0,0.0,0.0,0.0,0.0,0.0,0.0,0.0,0.0,0.0,0.0,0.0,0.0,0.0,0.0,0.0,0.0,0.0,0.0,0.0,0.0,0.0,0.0,0.8618,0.7753,0.0,0.0,0.0,0.0,0.0,0.0,1.4443,0.0,1.4298,0.0,0.0,1.5129,1.5794,1.5318,1.4834,1.4319,0.0,0.0,0.0,0.0,0.0,0.0,0.0,0.0,0.0,0.0,0.0,0.0,0.7202,0.7508,0.787,0.7373,0.0,0.0,0.0,0.0,0.0,0.0,0.0,0.0,0.0,0.0,0.7292,0.7229,0.6791,0.0,0.602,0.5575,0.5251,0.5324,0.5271,0.5255,0.5269,0.4787,0.4426,0.4426,0.3785,0.335,0.3341,0.325,0.3157,0.2965,0.2932,0.2872,0.2802,0.2766,0.2709,0.2691,0.2617,0.2572,0.2607,0.2532,0.2446,0.2346,0.2375,0.2568,0.2816,0.3016,0.3259,0.35,0.3478,0.3391,0.315,0.2847,0.2598,0.2464,0.229,0.2201,0.2201,0.0,0.0,0.0,0.0,0.0,0.0,0.0,0.0,0.0,0.0,0.0,0.0,0.0,0.0,0.0,0.0,0.0,0.0,0.0,0.0,0.0,0.0,0.0,0.0,0.0,0.0,0.0,0.0,0.0,0.0,0.0,0.0,1.4318,1.4245,0.0,1.4353,0.0,1.4875,1.5468,1.6086,1.5871,1.5591,1.5167,1.4201,0.0,0.0,0.0,0.0,0.0,0.0,0.0,0.0,0.0,0.0,0.0,0.7678,0.8187,0.8648,0.0,0.0,0.0,0.0,0.0,0.0,0.0,0.0,0.0,0.0,0.0,0.681,0.6317,0.5951,0.5672,0.5287,0.512,0.5064,0.5101,0.5039,0.5056,0.5124,0.4584,0.4187,0.4095,0.3402,0.2973,0.3018,0.288,0.2857,0.2996,0.296,0.2853,0.28,0.2711,0.2595,0.251,0.2357,0.2311,0.2423,0.2311,0.2089,0.1852,0.2211,0.2393,0.2393,0.2839,0.3061,0.3138,0.3306,0.3101,0.2642,0.2642,0.2467,0.2201,0.2209,0.2207,0.2201,0.0,0.0,0.0,0.0,0.0,0.0,0.0,0.0,0.0,0.0,0.0,0.0,0.0,0.0,0.0,0.0,0.0,0.0,0.0,0.0,0.0,0.0,0.0,0.0,0.0,0.0,0.0,0.0,0.0,0.0,0.0,0.0,0.0,1.5233,0.0,1.4331,1.5258,1.5474,1.6096,1.6889,1.6102,1.5748,1.5563,1.4616,1.4059,0.0,0.0,0.0,0.0,0.0,0.0,0.0,0.8428,0.8467,0.8604,0.8193,0.8142,0.8139,0.0,0.0,0.0,0.0,0.0,0.0,0.0,0.0,0.0,0.0,0.6617,0.5769,0.6154,0.5412,0.4765,0.4559,0.4098,0.3739,0.3661,0.3625,0.3655,0.3632,0.3517,0.322,0.2703,0.2521,0.2265,0.1803,0.2106,0.2311,0.2305,0.218,0.2099,0.2066,0.1572,0.1283,0.1292,0.122,0.1232,0.1268,0.1583,0.1687,0.1544,0.2018,0.2257,0.2257,0.2349,0.2416,0.2422,0.2445,0.2395,0.2288,0.2288,0.2243,0.2209,0.2276,0.2257,0.2209,0.0,0.0,0.0,0.0,0.0,0.0,0.0,0.0,0.0,0.0,0.0,0.0,0.0,0.0,0.0,0.0,0.0,0.0,0.0,0.0,0.0,0.0,0.0,0.0,0.0,0.0,0.0,0.0,0.0,0.0,0.0,0.0,0.0,1.6146,0.0,1.5295,1.6223,1.6284,1.6608,1.6987,1.6282,1.5779,1.5418,1.4775,1.4412,1.4214,1.3609,0.0,0.0,0.0,0.0,0.0,0.0,0.0,0.8274,0.7954,0.7804,0.7621,0.0,0.0,0.0,0.0,0.0,0.0,0.0,0.0,0.0,0.6773,0.6127,0.5317,0.5313,0.4767,0.4167,0.3833,0.347,0.3229,0.3218,0.3126,0.3087,0.3254,0.3171,0.2852,0.2125,0.1837,0.1526,0.1242,0.1201,0.1265,0.1519,0.1478,0.142,0.1363,0.1039,0.0918,0.0934,0.0852,0.0827,0.0904,0.1074,0.1235,0.1433,0.1973,0.2201,0.2201,0.2201,0.2201,0.2201,0.2201,0.2201,0.2201,0.2201,0.2201,0.2205,0.2251,0.2238,0.2207,0.0,0.0,0.0,0.0,0.0,0.0,0.0,0.0,0.0,0.0,0.0,0.0,0.0,0.0,0.0,0.0,0.0,0.0,0.0,0.0,0.0,0.0,0.0,0.0,0.0,0.0,0.0,0.0,0.0,0.0,0.0,0.0,0.0,1.6578,0.0,0.0,1.6794,1.6974,1.7075,1.7058,1.6497,1.6005,1.5518,1.5045,1.4931,1.4907,1.4044,1.3583,1.3082,1.1305,0.0,0.0,0.0,0.0,0.7757,0.7471,0.7293,0.6936,0.0,0.0,0.0,0.0,0.0,0.0,0.0,0.0,0.0,0.5883,0.5553,0.4928,0.4514,0.4148,0.3804,0.3293,0.3163,0.3077,0.2901,0.2891,0.2928,0.2988,0.2876,0.2537,0.1773,0.1194,0.0822,0.0704,0.034,0.0348,0.0765,0.0754,0.0737,0.0737,0.0642,0.0629,0.0699,0.0515,0.0505,0.0612,0.0592,0.0805,0.1254,0.1748,0.202,0.2109,0.2064,0.202,0.1973,0.202,0.2064,0.2064,0.2109,0.2109,0.2066,0.2082,0.2078,0.2066,0.0,0.0,0.0,0.0,0.0,0.0,0.0,0.0,0.0,0.0,0.0,0.0,0.0,0.0,0.0,0.0,0.0,0.0,0.6265,0.0,0.0,1.0606,1.1204,0.0,0.0,0.0,0.0,0.0,0.0,0.0,0.0,0.0,0.0,1.5852,0.0,0.0,0.0,1.688,1.7526,1.7862,1.6923,1.6939,1.7384,1.6072,1.5682,1.5773,1.5286,1.4328,1.3116,1.2433,1.1464,0.0,0.0,0.0,0.8051,0.7148,0.646,0.0,0.0,0.0,0.0,0.0,0.0,0.0,0.0,0.0,0.3633,0.0,0.4765,0.4056,0.4777,0.405,0.3296,0.3198,0.317,0.2837,0.1783,0.2364,0.2578,0.1769,0.1625,0.1447,0.0897,0.0631,0.0193,-0.0502,-0.0194,0.0097,0.0204,0.0147,0.0146,0.0203,-0.0293,-0.0575,-0.0578,-0.0572,-0.056,-0.0498,-0.009,0.0268,0.0626,0.0805,0.1254,0.1839,0.1569,0.1299,0.1074,0.1344,0.1433,0.1433,0.1748,0.1658,0.144,0.1633,0.1572,0.1486,0.0,0.0,0.0,0.0,0.0,0.0,0.0,0.0,0.0,0.0,0.0,0.0,0.0,0.0,0.0,0.7184,0.7021,0.7284,0.8315,0.957,1.0464,1.0837,1.1876,1.2378,0.0,0.0,0.0,0.0,0.0,0.0,0.0,1.6802,1.6791,0.0,0.0,0.0,0.0,0.0,1.7602,1.7452,1.699,1.6855,1.6825,0.0,1.6134,1.6262,1.5803,1.508,1.4206,1.304,1.2036,1.1063,0.9943,0.0,0.0,0.0,0.0,0.0,0.0,0.0,0.0,0.0,0.0,0.0,0.0,0.0,0.3101,0.4314,0.4041,0.3535,0.3263,0.264,0.2209,0.2175,0.2679,0.2664,0.1572,0.1345,0.1265,0.1241,0.0645,0.0139,-0.0047,-0.0143,-0.0384,-0.0783,-0.053,-0.0388,-0.0403,-0.0381,-0.0376,-0.0391,-0.0613,-0.074,-0.074,-0.074,-0.0733,-0.0719,-0.0584,-0.0269,0.0089,0.0089,0.0447,0.1074,0.0895,0.0805,0.0671,0.076,0.0805,0.085,0.1164,0.1208,0.1077,0.1188,0.1137,0.1122,0.0,0.0,0.0,0.0,0.0,0.0,0.0,0.0,0.0,0.0,0.0,0.0,0.0,0.0,0.0,0.0,0.8238,0.8573,0.9916,1.0369,1.0877,1.1524,1.2488,1.3258,1.372,0.0,0.0,0.0,0.0,0.0,1.6229,1.6541,1.6619,0.0,1.7361,0.0,0.0,0.0,0.0,0.0,0.0,1.6936,0.0,0.0,1.6751,1.6987,1.6374,1.6009,1.5536,1.4006,1.299,1.2072,1.0613,0.9388,0.0,0.0,0.0,0.0,0.0,0.0,0.0,0.0,0.0,0.0,0.0,0.0,0.1853,0.0,0.3018,0.314,0.1633,0.1189,0.1031,0.1031,0.1661,0.1887,0.1166,0.0359,0.0045,0.0583,-0.0135,-0.0719,-0.0719,-0.0694,-0.0709,-0.0812,-0.086,-0.0919,-0.0993,-0.0942,-0.0921,-0.094,-0.0776,-0.0719,-0.0719,-0.0719,-0.0719,-0.0764,-0.0855,-0.0763,-0.0492,-0.0537,-0.0358,0.0045,0.0179,0.0224,0.0134,0.0179,0.0179,0.0224,0.0537,0.0626,0.0537,0.0672,0.0627,0.0582,0.0,0.0,0.0,0.0,0.0,0.0,0.0,0.0,0.0,0.0,0.0,0.0,0.0,0.9515,0.9364,0.9269,0.8497,0.8563,0.9908,0.9859,1.0718,1.2903,1.3053,0.0,1.5987,1.6063,0.0,0.0,0.0,0.0,1.6005,1.5324,1.4731,1.4258,1.6394,1.6413,1.496,0.0,0.0,0.0,0.0,0.0,0.0,0.0,0.0,0.0,0.0,1.712,1.6903,1.5742,1.4783,1.376,1.2107,1.0481,0.875,0.0,0.0,0.0,0.0,0.0,0.0,0.0,0.0,0.0,0.0,0.0,-0.0638,-0.1065,0.1389,0.2881,0.0538,0.009,0.009,0.009,0.0135,0.0135,0.009,-0.036,-0.0629,-0.0629,-0.0674,-0.0719,-0.0719,-0.072,-0.0733,-0.081,-0.1193,-0.1478,-0.1481,-0.1476,-0.1448,-0.135,-0.0944,-0.0719,-0.0719,-0.0719,-0.0764,-0.09,-0.09,-0.1033,-0.1254,-0.1119,-0.1119,-0.1164,-0.0671,-0.0582,-0.0805,-0.0537,-0.0447,-0.0403,-0.0089,-0.0134,-0.0358,0.009,-0.0045,-0.0268,0.0,0.0,0.0,0.0,0.0,0.0,0.0,0.0,0.0,0.0,0.0,0.0,0.0,1.1484,1.109,1.2572,1.1306,1.0168,0.9531,1.0345,1.1401,1.2644,1.4041,1.53,1.643,1.6743,0.0,0.0,0.0,1.6319,1.5346,1.4948,1.3824,1.2249,1.455,1.5232,1.4791,1.5956,0.0,0.0,0.0,0.0,0.0,0.0,0.0,0.0,0.0,0.0,1.7387,1.6545,1.5817,1.4963,1.3448,1.1955,1.0042,0.6507,0.0,0.0,0.0,0.0,0.0,0.0,0.0,0.0,0.0,0.0084,-0.0306,-0.2029,-0.1406,-0.0626,-0.0851,-0.0403,-0.009,-0.0405,-0.045,-0.0405,-0.027,-0.0898,-0.1391,-0.1346,-0.1703,-0.1835,-0.1611,-0.1611,-0.1621,-0.1646,-0.1784,-0.1874,-0.1874,-0.1874,-0.1862,-0.1834,-0.17,-0.1655,-0.1746,-0.1832,-0.1875,-0.1921,-0.17,-0.1834,-0.2186,-0.1876,-0.1966,-0.2322,-0.2142,-0.1697,-0.1208,-0.1786,-0.1652,-0.1074,-0.1027,-0.0938,-0.0716,-0.0583,-0.0627,-0.0671,0.0,0.0,0.0,0.0,0.0,0.0,0.0,0.0,0.0,0.0,0.0,0.0,0.0,0.0,1.2419,1.3955,1.3175,1.2097,1.0878,1.1806,1.2789,1.3648,1.5055,1.6197,1.6995,1.7059,0.0,0.0,0.0,0.0,0.0,1.4593,1.3211,1.1433,1.2927,1.3599,0.0,0.0,0.0,1.6177,0.0,0.0,1.7205,0.0,0.0,0.0,0.0,0.0,1.8195,1.7075,1.6548,1.6038,1.4438,1.2433,1.0049,0.0,0.0,0.0,0.0,0.0,0.0,0.0,0.0,0.0,-0.0844,0.0,-0.0912,-0.2368,-0.2792,-0.2695,-0.2016,-0.139,-0.0943,-0.0943,-0.1213,-0.1303,-0.0943,-0.1481,-0.1884,-0.1839,-0.2148,-0.2324,-0.2099,-0.2099,-0.2099,-0.2099,-0.2277,-0.2366,-0.2366,-0.241,-0.2306,-0.2142,-0.2142,-0.2171,-0.2182,-0.2339,-0.2442,-0.2445,-0.2304,-0.2408,-0.2763,-0.2499,-0.2544,-0.2898,-0.3075,-0.2632,-0.1876,-0.2588,-0.2499,-0.1878,-0.1786,-0.1563,-0.1252,-0.0984,-0.0985,-0.0985,0.0,0.0,0.0,0.0,0.0,0.0,0.0,0.0,0.0,0.0,0.0,0.0,0.0,0.0,0.0,1.3204,1.3841,1.4172,1.4019,1.415,1.4763,1.5976,1.6098,1.6664,1.78,1.7101,1.6948,0.0,0.0,0.0,0.0,0.0,1.281,0.0,1.1671,1.1432,1.136,0.0,1.4224,1.5081,0.0,1.641,1.7836,0.0,0.0,0.0,1.9007,1.9121,0.0,1.7334,0.0,0.0,0.0,0.0,0.0,0.0,0.0,0.0,0.0,0.0,0.0,0.0,0.0,0.0,-0.165,0.0,-0.2758,-0.2301,-0.256,-0.2862,-0.2909,-0.2921,-0.2608,-0.1612,-0.2245,-0.2652,-0.1928,-0.1975,-0.2109,-0.2109,-0.2059,-0.2055,-0.2055,-0.2099,-0.2144,-0.2188,-0.263,-0.294,-0.2943,-0.3031,-0.2797,-0.2301,-0.2303,-0.2213,-0.2071,-0.2213,-0.2347,-0.2477,-0.2667,-0.2807,-0.2943,-0.2943,-0.2943,-0.2987,-0.3429,-0.3341,-0.2943,-0.2943,-0.2943,-0.2854,-0.2322,-0.2144,-0.201,-0.1207,-0.1119,-0.1299,0.0,0.0,0.0,0.0,0.0,0.0,0.0,0.0,0.0,0.0,0.0,0.0,0.0,0.0,0.0,1.5038,1.5121,1.493,1.4255,1.4747,1.5494,1.6474,1.6677,1.7166,1.8065,1.7496,1.714,0.0,0.0,0.0,0.0,0.0,0.0,0.0,1.0872,1.0198,1.0547,1.2496,0.0,1.4498,1.5039,1.6014,0.0,0.0,0.0,0.0,0.0,1.6924,1.6128,0.0,1.5804,1.5342,0.0,0.0,0.0,0.0,0.0,0.0,0.1566,0.0,0.0,0.0,0.0,0.0,0.0,0.0,-0.2586,-0.2672,-0.2537,-0.2499,-0.2887,-0.3001,-0.296,-0.2726,-0.2595,-0.2417,-0.2057,-0.2413,-0.2679,-0.2679,-0.2948,-0.3173,-0.3173,-0.3176,-0.3347,-0.373,-0.3506,-0.3581,-0.4081,-0.4132,-0.4037,-0.3809,-0.4302,-0.4438,-0.4164,-0.4219,-0.423,-0.4273,-0.3669,-0.3561,-0.3917,-0.3565,-0.3605,-0.3917,-0.4052,-0.4052,-0.3917,-0.3917,-0.3517,-0.2898,-0.312,-0.2719,-0.2055,-0.1832,-0.1611,-0.1344,0.0,0.0,0.0,0.0,0.0,0.0,0.0,0.0,0.0,0.0,0.0,0.0,0.0,0.0,0.0,1.678,1.7005,1.6917,1.6251,1.6655,1.7109,1.7563,1.7611,1.78,1.8208,1.7507,1.7033,1.6789,0.0,0.0,0.0,0.0,0.0,0.0,0.0,0.0,0.0,0.0,0.0,0.0,1.3682,0.0,0.0,1.4682,1.4239,0.0,0.0,0.0,1.3524,1.3312,1.2963,0.0,0.0,0.0,0.0,0.0,0.0,0.0,0.0,0.0,0.0,0.0,0.0,0.0,-0.3337,-0.3181,-0.3051,-0.3208,-0.3306,-0.3301,-0.3025,-0.349,-0.3847,-0.37,-0.3517,-0.3205,-0.2632,-0.3161,-0.3514,-0.3337,-0.3785,-0.414,-0.4188,-0.4125,-0.4205,-0.4575,-0.4155,-0.4134,-0.474,-0.4666,-0.4633,-0.4661,-0.4935,-0.4953,-0.4681,-0.4748,-0.4779,-0.4779,-0.4453,-0.432,-0.4376,-0.4231,-0.4224,-0.4316,-0.4316,-0.4316,-0.4316,-0.4316,-0.3965,-0.3476,-0.3561,-0.3252,-0.2674,-0.2277,-0.1921,-0.1655,0.0,0.0,0.0,0.0,0.0,0.0,0.0,0.0,0.0,0.0,0.0,0.0,0.0,0.0,0.0,0.0,1.8845,1.9141,1.8948,1.8966,0.0,1.8968,1.8693,1.8463,1.8371,1.7401,1.6864,1.6815,0.0,0.0,0.0,0.0,0.0,0.0,0.0,0.0,0.0,0.0,0.0,0.9231,1.0884,1.2068,0.0,0.0,1.127,1.2142,1.1578,1.1133,1.0682,0.9773,0.8987,0.0,0.0,0.0,0.0,0.0,0.4042,0.0,0.0,0.0,0.0,0.0,-0.2558,0.0,-0.3923,-0.3974,-0.3887,-0.3795,-0.4373,-0.4517,-0.3284,-0.4069,-0.4799,-0.4431,-0.4651,-0.4539,-0.352,-0.4132,-0.4482,-0.4085,-0.4457,-0.4837,-0.4928,-0.4749,-0.4707,-0.4904,-0.4704,-0.4698,-0.4947,-0.4824,-0.4834,-0.5037,-0.4799,-0.4596,-0.4378,-0.4522,-0.4627,-0.4653,-0.5021,-0.4974,-0.4577,-0.4909,-0.4822,-0.4331,-0.4351,-0.436,-0.4316,-0.4316,-0.4316,-0.4272,-0.3829,-0.3649,-0.3476,-0.2541,-0.2144,-0.2055,1.2243,0.0,0.0,0.0,0.0,0.0,0.0,0.0,0.0,0.0,0.0,0.0,0.0,0.0,0.0,0.0,0.0,1.8377,1.9012,1.9014,1.9305,1.9974,1.9201,1.8945,1.9406,1.8164,1.7309,1.6876,0.0,0.0,0.0,0.0,0.0,0.0,0.0,0.0,0.0,0.0,0.0,-0.0393,0.4208,0.0,0.807,0.6625,0.5835,0.555,0.5939,0.5538,0.4865,0.5409,0.4711,0.3516,0.0,0.0,0.0,0.0575,0.0,0.0,0.0,0.0,0.0,0.0,-0.3353,0.0,-0.3759,-0.3886,-0.4082,-0.4223,-0.4279,-0.4249,-0.4148,-0.4338,-0.4582,-0.4762,-0.5158,-0.5266,-0.4721,-0.4787,-0.4874,-0.4787,-0.4688,-0.4633,-0.4674,-0.4457,-0.4524,-0.5099,-0.5426,-0.5386,-0.487,-0.536,-0.5533,-0.5241,-0.5641,-0.5712,-0.5422,-0.5341,-0.5433,-0.5638,-0.5334,-0.5136,-0.5065,-0.5418,-0.5169,-0.4477,-0.4767,-0.4661,-0.4316,-0.4316,-0.4316,-0.4272,-0.4184,-0.3917,-0.3517,-0.2943,-0.2455,-0.2055,1.2983,0.0,0.0,0.0,0.0,0.0,0.0,0.0,0.0,0.0,0.0,0.0,0.0,0.0,0.0,0.0,0.0,0.0,0.0,0.0,1.8906,1.9953,1.9367,1.927,1.9838,1.9352,1.8599,1.7606,0.0,0.0,0.0,0.0,0.0,0.0,0.0,0.0,0.0,0.0,0.0205,-0.3109,-0.0354,0.0,0.1618,0.1397,0.1219,0.1109,0.132,0.0996,0.06,0.1056,0.0765,0.0,-0.0704,-0.1133,-0.1324,0.0,-0.0911,-0.0959,0.0,0.0,0.0,-0.3447,-0.4139,0.0,0.0,-0.4396,-0.4913,-0.5257,-0.507,-0.4867,-0.4931,-0.5161,-0.5402,-0.5583,-0.5781,-0.5924,-0.5807,-0.5758,-0.562,-0.5324,-0.5373,-0.5414,-0.537,-0.5208,-0.5228,-0.5574,-0.5768,-0.5764,-0.5511,-0.5564,-0.5583,-0.5504,-0.5672,-0.5685,-0.5498,-0.5435,-0.5367,-0.5366,-0.5413,-0.5135,-0.4618,-0.5192,-0.5003,-0.4263,-0.4539,-0.4535,-0.4316,-0.4316,-0.4316,-0.4316,-0.4316,-0.414,-0.3873,-0.3164,-0.2721,-0.241,1.3672,0.0,0.0,0.0,0.0,0.0,0.0,0.0,0.0,0.0,0.0,0.0,0.0,0.0,0.0,0.0,0.0,0.0,0.0,0.0,0.0,1.9872,1.9647,1.991,2.0786,2.0565,1.9839,1.8617,0.0,0.0,0.0,0.0,0.0,0.0,0.0,0.0,0.0,0.0,0.0,-0.4421,0.0,-0.426,-0.412,-0.3667,-0.3025,-0.2432,-0.2682,-0.2859,-0.2973,-0.2868,-0.2742,-0.2775,-0.4073,-0.3997,0.0,0.0,0.0,0.0,-0.4358,-0.4326,-0.427,-0.4895,-0.4838,-0.4597,0.0,0.0,0.0,-0.6196,-0.6053,-0.585,-0.5845,-0.6146,-0.639,-0.6297,0.0,0.0,0.0,-0.6461,0.0,-0.5897,-0.6102,-0.6239,-0.6119,-0.6055,-0.6018,-0.6013,-0.5933,-0.5923,-0.602,-0.5621,-0.5444,-0.5625,-0.5404,-0.5309,-0.5309,-0.5309,-0.5151,-0.4891,-0.5436,-0.5154,-0.4156,-0.4966,-0.4873,-0.4057,-0.4311,-0.4403,-0.4316,-0.4316,-0.4316,-0.4316,-0.4316,-0.4316,-0.4184,-0.3341,-0.2987,-0.2765,1.4336,1.4668,0.0,0.0,0.0,0.0,0.0,0.0,0.0,0.0,0.0,0.0,0.0,0.0,0.0,0.0,0.0,0.0,1.8237,0.0,0.0,0.0,2.0598,2.1518,2.3674,2.1366,2.0021,1.9714,0.0,0.0,0.0,0.0,0.0,0.0,1.4487,0.0,0.0,0.0,-0.5014,0.0,-0.911,-0.798,0.0,-0.7579,-0.7234,-0.6058,-0.587,-0.5985,-0.6107,0.0,-0.5284,-0.4979,0.0,-0.6222,-0.7234,-0.8084,-0.8399,-0.8676,-0.9432,-0.8031,-0.6272,-0.5948,-0.5539,-0.5082,-0.4582,0.0,-0.5885,-0.624,0.0,-0.6811,-0.6982,0.0,0.0,0.0,-0.6762,-0.6873,-0.6003,-0.6397,-0.6715,-0.6664,-0.6445,-0.6252,-0.6124,-0.6091,-0.6052,-0.599,-0.6101,-0.593,-0.5433,-0.5578,-0.5564,-0.5337,-0.5329,-0.5309,-0.5309,-0.5309,-0.5248,-0.5159,-0.5527,-0.5327,-0.4649,-0.5467,-0.5269,-0.4297,-0.4712,-0.4661,-0.4316,-0.4316,-0.4316,-0.4316,-0.4316,-0.4316,-0.4228,-0.3697,-0.3252,-0.281,1.5804,1.522,0.0,0.0,0.0,0.0,0.0,0.0,0.0,0.0,0.0,0.0,0.0,0.0,0.0,0.0,0.0,1.4629,1.5773,0.0,0.0,0.0,2.039,2.1441,2.2536,2.2166,2.1541,0.0,1.9516,0.0,0.0,0.0,0.0,0.0,1.256,0.0,-0.3416,0.0,-0.6406,0.0,0.0,-1.0822,0.0,-1.0011,-0.9762,-0.9144,-0.9201,-0.892,-0.852,0.0,-0.7669,0.0,0.0,0.0,-0.892,-0.9255,-0.9668,-1.0134,-1.0781,-0.9772,-0.8399,-0.7764,-0.7047,-0.6173,-0.5134,-0.5374,-0.5969,-0.6621,0.0,0.0,0.0,0.0,0.0,0.0,-0.6638,-0.6681,-0.6529,0.0,-0.766,-0.6754,-0.6508,-0.6397,-0.6384,-0.5466,-0.5325,-0.6372,-0.6434,-0.619,-0.5679,-0.552,-0.5404,-0.5316,-0.5309,-0.5277,-0.5239,-0.5277,-0.5145,-0.4865,-0.5261,-0.5037,-0.4327,-0.498,-0.4846,-0.4151,-0.4348,-0.4311,-0.4184,-0.4124,-0.4144,-0.4192,-0.4192,-0.4232,-0.4228,-0.3785,-0.3296,-0.281,1.7386,0.0,0.0,0.0,0.0,0.0,0.0,0.0,0.0,0.0,0.0,0.0,2.031,1.8416,0.0,0.0,1.3342,1.2261,1.3011,1.3399,1.4694,1.7205,1.9371,2.035,1.9937,2.1727,2.2194,2.1238,0.0,0.0,0.0,0.0,0.0,0.0,0.0,0.3026,-0.6956,0.0,-0.8494,-1.1015,-1.2492,-1.2754,-1.2239,-1.155,-1.1327,-1.1389,-1.1137,-1.0678,-1.0162,-0.977,-0.9361,-0.9036,-0.9559,-0.9955,-1.0299,-1.0436,-1.0998,-1.1582,-1.1627,-1.0892,-0.9844,-0.8779,-0.798,-0.7084,-0.579,-0.5945,-0.6459,-0.6911,-0.7375,0.0,0.0,0.0,0.0,0.0,0.0,-0.6994,0.0,-0.8139,-0.8468,-0.7049,-0.6836,-0.6568,-0.5855,-0.5305,-0.5532,-0.6806,-0.6725,-0.592,-0.4373,-0.4913,-0.5246,-0.5119,-0.5246,-0.5246,-0.5081,-0.5214,-0.5087,-0.4672,-0.5087,-0.4859,-0.4063,-0.4703,-0.4664,-0.4069,-0.4155,-0.4131,-0.4026,-0.3892,-0.3924,-0.3991,-0.3991,-0.4061,-0.4144,-0.3653,-0.3211,-0.2721,1.8937,1.7926,0.0,0.0,0.0,0.0,0.0,0.0,0.0,0.0,0.0,0.0,0.0,0.0,0.0,0.0,0.8939,0.7675,1.0514,1.0258,1.1431,1.467,1.7613,1.8232,1.6222,1.9377,2.1068,2.1098,1.8748,0.0,0.0,0.0,0.0,0.0,0.0,-0.1976,-0.5987,-0.993,-1.2229,-1.3202,-1.3188,-1.3589,-1.4007,0.0,-1.1947,-1.2523,-1.0957,-1.072,-1.0948,-1.0312,-0.9902,-0.9682,-0.9859,-1.0748,-1.1869,-1.2674,-1.357,-1.4023,-1.2779,-1.1588,-1.0204,-0.832,-0.7825,-0.753,-0.6495,-0.7021,-0.7569,-0.6948,-0.7676,-0.8467,-0.8477,0.0,0.0,0.0,0.0,0.0,0.0,0.0,-0.8917,-0.7964,-0.7748,-0.6617,-0.3952,-0.6055,-0.7482,-0.7225,-0.6837,-0.4729,-0.0423,-0.3441,-0.5087,-0.4634,-0.5055,-0.5157,-0.4812,-0.5125,-0.5125,-0.4812,-0.5125,-0.4928,-0.4237,-0.5097,-0.5034,-0.4303,-0.4494,-0.4341,-0.3884,-0.3636,-0.358,-0.3723,-0.3723,-0.3783,-0.3836,-0.3391,-0.2904,-0.246,0.0,0.0,0.0,0.0,0.0,0.0,0.0,2.0093,0.0,0.0,2.0454,0.0,0.0,1.7867,1.5936,1.2906,0.9808,0.6848,0.3958,0.414,0.5149,0.6935,0.9406,1.0361,0.9466,0.9956,1.0769,1.1886,1.0176,0.9284,0.0,0.0,0.0,0.0,0.0,-0.3479,0.0,0.0,0.0,0.0,0.0,-1.5196,-1.5568,0.0,-1.332,-1.4362,-1.3186,-1.2846,-1.2812,-1.2044,-1.1411,-1.1002,-1.1345,-1.1846,-1.2453,-1.3075,-1.3468,-1.3545,-1.2928,-1.2058,-1.106,-0.9993,-0.9298,-0.8679,-0.7921,-0.7825,-0.7991,-0.837,-0.8894,-0.9483,-1.0165,0.0,0.0,0.0,0.0,0.0,0.0,0.0,-0.877,-0.9294,-0.8369,-0.7344,-0.6391,-0.696,-0.7314,-0.7225,-0.6656,-0.4482,-0.0225,-0.3333,-0.5176,-0.5074,-0.4998,-0.4864,-0.4672,-0.4602,-0.45,-0.4339,-0.4638,-0.46,-0.4294,-0.459,-0.4466,-0.4075,-0.3847,-0.3685,-0.3546,-0.338,-0.3369,-0.3446,-0.3515,-0.3594,-0.3652,-0.3665,-0.335,-0.286,1.6977,0.0,0.0,0.0,0.0,0.0,0.0,0.0,0.0,1.8125,1.7027,1.6253,1.5905,1.3509,1.1114,0.9118,0.6508,0.3212,-0.0986,-0.0225,0.0359,0.019,0.3001,0.4275,0.3686,0.3915,0.4515,0.5579,0.4323,0.339,0.0,0.0,0.0,0.0,0.0,-0.6204,-1.0269,-1.3179,-1.4255,0.0,0.0,-1.5971,0.0,0.0,-1.4608,-1.5254,-1.4316,-1.3967,-1.3831,-1.3283,-1.2706,-1.2218,-1.2482,-1.2627,-1.2822,-1.3155,-1.3073,-1.2834,-1.2428,-1.1808,-1.1121,-1.0483,-1.0128,-0.9765,-0.9141,-0.8724,-0.8801,-0.9834,-0.991,-1.0324,-1.1983,0.0,0.0,0.0,0.0,0.0,0.0,-0.9396,-0.9319,-1.0348,-0.9017,-0.7984,-0.7898,-0.7666,-0.7462,-0.7324,-0.6353,-0.4722,-0.2297,-0.4441,-0.56,-0.5274,-0.5162,-0.4962,-0.4672,-0.4505,-0.4403,-0.4339,-0.437,-0.4346,-0.4279,-0.4394,-0.4276,-0.3965,-0.3647,-0.3428,-0.3261,-0.3097,-0.3093,-0.3173,-0.3115,-0.3259,-0.3409,-0.3296,-0.2901,-0.2281,1.5827,0.0,0.0,0.0,1.8876,0.0,0.0,0.0,1.8437,1.7169,1.0725,0.7475,1.0579,0.4022,0.0044,0.1621,-0.0997,-0.3202,-0.4384,-0.3008,-0.314,-0.5334,-0.1726,-0.0152,-0.1234,0.0801,0.1871,0.1838,0.0738,-0.0821,0.0,0.0,0.0,0.0,-0.8672,0.0,-1.1895,-1.2822,-1.3887,-1.4964,-1.5334,-1.5929,-1.6514,-1.6133,-1.5708,-1.5254,-1.4387,-1.4107,-1.4107,-1.4014,-1.3637,-1.3218,-1.3218,-1.3112,-1.3016,-1.3064,-1.2657,-1.2125,-1.1544,-1.1075,-1.0569,-0.9931,-1.0353,-1.0811,-1.0234,-0.996,-1.0157,-1.1263,-1.0832,-1.106,-1.3765,0.0,0.0,0.0,0.0,0.0,0.0,0.0,-1.0493,-1.1056,-0.9649,-0.8544,-0.8272,-0.8086,-0.7848,-0.751,-0.6013,-0.5427,0.0,-0.6469,-0.622,-0.5192,-0.5475,-0.5377,-0.478,-0.4742,-0.4716,-0.4742,-0.4355,-0.4161,-0.4172,-0.4495,-0.4352,-0.3889,-0.388,-0.3558,-0.3054,-0.2771,-0.2733,-0.2825,-0.2501,-0.2698,-0.3114,-0.2417,-0.1657,-0.0944,1.561,1.6411,1.703,0.0,1.7654,1.8067,0.0,0.0,1.5088,1.2889,0.954,0.6441,0.4198,-0.0469,-0.4077,-0.5655,-0.7677,-0.9005,-0.9433,-0.9031,-0.9165,-1.0118,-0.9304,-0.8964,-0.9241,-1.0309,-1.0207,-0.8865,-1.0319,-1.0963,-1.0803,0.0,0.0,0.0,0.0,0.0,-1.2663,-1.4266,-1.5604,-1.6462,-1.4928,-1.5655,-1.7558,0.0,-1.6701,-1.6429,-1.5522,-1.5433,-1.5499,-1.4272,-1.3779,-1.3589,-1.316,-1.316,-1.3314,-1.3515,-1.342,-1.314,-1.2829,-1.2039,-1.1412,-1.1943,-1.1994,-1.2137,-1.2803,-1.3079,-1.3175,-1.2997,-1.3136,-1.3369,-1.3657,-1.3435,0.0,0.0,0.0,0.0,0.0,0.0,-1.057,-1.1119,-0.9902,-0.8958,-0.8723,-0.7225,-0.6581,-0.7376,-0.7083,-0.6739,-0.6403,-0.6386,-0.588,-0.4796,-0.4893,-0.4757,-0.4344,-0.3858,-0.3728,-0.3983,-0.3787,-0.3691,-0.3695,-0.3779,-0.373,-0.3579,-0.3398,-0.3067,-0.2629,-0.2456,-0.2262,-0.1994,-0.1969,-0.1931,-0.1937,-0.2502,-0.2322,-0.1744,1.6076,1.6829,0.0,1.6367,0.0,0.0,1.4528,1.2865,1.0641,0.7844,0.5558,0.2948,-0.0328,-0.3603,-0.6773,-0.9759,-1.0674,-1.1449,-1.2254,-1.2298,-1.2614,-1.3324,-1.3654,-1.3672,-1.3374,-1.3957,-1.4245,-1.4125,-1.428,0.0,-1.5618,0.0,0.0,0.0,0.0,-1.4124,-1.4027,-1.4418,-1.5697,-1.7235,-1.4994,-1.5662,0.0,-1.7693,-1.7612,-1.7585,-1.6896,-1.6386,-1.5896,-1.488,-1.4247,-1.3826,-1.3542,-1.3362,-1.3314,-1.3515,-1.3467,-1.3409,-1.3266,-1.2735,-1.2473,-1.3401,-1.3453,-1.3484,-1.4165,-1.4249,-1.4339,-1.4764,-1.4214,-1.4202,-1.591,-1.4964,0.0,0.0,0.0,0.0,0.0,-1.1939,-1.126,-1.1721,-1.0491,-0.9571,-0.9451,-0.7697,-0.6905,-0.7743,-0.75,-0.7208,0.0,-0.668,-0.6241,-0.5487,-0.5424,-0.5237,-0.4865,-0.4263,-0.4016,-0.4178,-0.3918,-0.3736,-0.3599,-0.3599,-0.3496,-0.3324,-0.3149,-0.2907,-0.2613,-0.2408,-0.2206,-0.1957,-0.197,-0.1787,-0.16,-0.214,-0.1967,-0.1433,1.5222,1.6114,0.0,0.0,0.0,0.0,0.0,0.7174,0.5996,0.2633,0.0218,-0.193,-0.3947,-0.6089,-0.8609,-1.1656,-1.155,-1.2021,-1.3611,-1.3881,-1.436,-1.5259,-1.5714,-1.5664,-1.5093,-1.3856,-1.4112,-1.601,0.0,0.0,0.0,0.0,0.0,0.0,0.0,0.0,0.0,-1.4007,-1.5039,-1.7598,-1.525,-1.5831,-1.8082,-1.8214,-1.84,-1.8503,-1.8201,-1.7133,-1.5884,-1.5567,-1.4903,-1.4071,-1.3967,-1.36,-1.3266,-1.3266,-1.3266,-1.3266,-1.3266,-1.3208,-1.3369,-1.4279,-1.4564,-1.4652,-1.4809,-1.4586,-1.4812,-1.6472,-1.4854,-1.445,-1.8626,-1.6691,0.0,0.0,0.0,0.0,-1.4657,-1.332,-1.2392,-1.2609,-1.1309,0.0,-1.0021,-0.8795,-0.8113,-0.8308,-0.7607,-0.7219,-0.7284,-0.7034,-0.6752,-0.6487,-0.6333,-0.6059,-0.5643,-0.5123,-0.4863,-0.4806,-0.4339,-0.3978,-0.3714,-0.3649,-0.3458,-0.3105,-0.3105,-0.2977,-0.2782,-0.251,-0.2308,-0.2161,-0.2127,-0.1905,-0.1585,-0.1554,-0.1206,-0.0719,0.7225,0.0,0.0,0.0,0.0,-0.3723,-0.5967,0.0127,0.3369,-0.1041,-0.4128,-0.6476,-0.7999,-0.9221,-1.0528,-1.2012,-1.24,-1.3078,-1.4178,-1.4959,-1.5505,-1.5838,-1.6034,-1.6133,-1.6077,-1.634,-1.6698,-1.7122,0.0,0.0,0.0,0.0,0.0,0.0,0.0,0.0,-1.7076,-1.4533,0.0,-1.7981,-1.5523,-1.609,-1.8425,-1.8606,-1.8721,-1.8721,-1.85,-1.7801,-1.6883,-1.5796,-1.5107,-1.4582,-1.3789,-1.3515,-1.3563,-1.3668,-1.3668,-1.3668,-1.3563,-1.3266,-1.3202,-1.3839,-1.4327,-1.4773,-1.544,-1.6181,-1.6921,-1.7666,-1.6592,-1.5899,-1.7162,-1.6597,-1.5841,0.0,0.0,-1.6169,-1.6473,-1.5051,-1.3795,-1.3292,-1.209,-1.0769,-0.9478,-0.921,-0.8952,-0.8589,-0.7896,-0.7319,-0.6846,-0.6833,-0.6497,-0.5814,-0.5994,-0.5883,-0.5361,-0.4934,-0.4772,-0.4858,-0.414,-0.3746,-0.3681,-0.3429,-0.3241,-0.3175,-0.3175,-0.301,-0.2712,-0.2543,-0.2073,-0.1481,-0.1508,-0.1323,-0.1029,-0.1086,-0.1003,-0.0855,-0.2257,0.0,0.0,0.0,0.0,0.0,-1.0368,-0.6752,-0.4235,-0.526,-0.7709,-0.9767,-1.0842,-1.1505,-1.2177,-1.306,-1.3664,-1.4278,-1.4943,-1.5665,-1.6157,-1.6407,-1.6612,-1.6722,-1.6763,-1.5964,-1.6192,-1.7492,-1.6701,0.0,0.0,0.0,0.0,0.0,0.0,-1.7598,0.0,0.0,-1.6483,-1.8795,-1.6153,-1.6708,-1.9101,-1.9035,-1.9072,-1.9147,-1.9072,-1.8563,-1.7666,-1.6108,-1.533,-1.4846,-1.3873,-1.3668,-1.3716,-1.3868,-1.3915,-1.3868,-1.3821,-1.3632,-1.3712,-1.4785,-1.5079,-1.5287,-1.6014,-1.6418,-1.6642,-1.6522,-1.5655,-1.5078,-1.5713,-1.6208,-1.6572,-1.6601,-1.6441,-1.6525,-1.7179,-1.5598,-1.3933,-1.2855,-1.2182,-1.1082,-0.9184,-0.9215,-0.9001,-0.8202,-0.7299,-0.6755,-0.6687,-0.662,-0.6617,-0.6705,-0.6276,-0.5996,-0.5825,-0.5039,-0.461,-0.4532,-0.414,-0.3881,-0.3681,-0.3528,-0.3368,-0.3208,-0.3208,-0.3076,-0.2878,-0.261,-0.2075,-0.1449,-0.153,-0.1389,-0.1108,-0.1119,-0.1126,-0.1077,0.0,-0.8947,0.0,0.0,-1.0516,-1.0868,-1.1643,-1.1782,-1.1019,-0.9013,-1.0656,-1.2251,-1.2861,-1.3212,-1.3596,-1.4149,-1.4721,-1.524,-1.5696,-1.6136,-1.6543,-1.6942,-1.7068,-1.7167,-1.7288,-1.5478,-1.5571,-1.7753,-1.58,0.0,0.0,0.0,0.0,0.0,0.0,0.0,0.0,0.0,-1.7951,-1.951,-1.7302,-1.7736,-1.9726,-1.9479,-1.9406,-1.9479,-1.9479,-1.9072,-1.8238,-1.6481,-1.5604,-1.5116,-1.4165,-1.3868,-1.3905,-1.4067,-1.4122,-1.4163,-1.4117,-1.4116,-1.4392,-1.5582,-1.5684,-1.5618,-1.6081,-1.6013,-1.5778,-1.5367,-1.4585,-1.4134,-1.4493,-1.5731,-1.6766,-1.7136,-1.697,-1.7042,-1.7711,-1.5941,-1.4167,-1.3131,-1.2522,-1.1499,-0.9714,-0.9442,-0.8906,-0.7802,-0.6715,-0.6298,-0.6752,-0.6564,-0.6803,-0.766,-0.6875,-0.6422,-0.6359,-0.5472,-0.4757,-0.4274,-0.414,-0.3946,-0.3714,-0.3621,-0.3462,-0.3208,-0.3208,-0.3175,-0.3105,-0.2775,-0.2359,-0.188,-0.1822,-0.1662,-0.1442,-0.1288,-0.1255,-0.1299,0.0,0.0,0.0,0.0,0.0,-1.3556,-1.2721,-1.2603,-1.2233,-1.1314,-1.2849,-1.4013,-1.394,-1.4346,-1.4718,-1.4876,-1.5075,-1.5565,-1.6448,-1.6316,-1.6623,-1.7496,-1.7093,-1.7068,-1.7566,-1.6898,-1.7092,-1.8238,-1.7776,-1.7812,0.0,0.0,0.0,0.0,0.0,0.0,-1.5301,-1.817,-1.9501,-1.966,-1.9405,-1.9572,-1.997,-1.9919,-1.9762,-1.9479,-1.9479,-1.9109,-1.8369,-1.6957,-1.6194,-1.5596,-1.4362,-1.4057,-1.4176,-1.4326,-1.4474,-1.4596,-1.4499,-1.4639,-1.4879,-1.5144,-1.5189,-1.5161,-1.5145,-1.517,-1.5379,-1.6038,-1.5336,-1.4472,-1.3964,-1.5159,-1.6324,-1.6766,-1.7961,-1.8817,-1.8775,-1.6816,-1.5519,-1.5868,-1.386,-1.233,-1.2018,-1.051,-0.9085,-0.7894,-0.6958,-0.6639,-0.7051,-0.6706,-0.6841,-0.766,-0.7777,-0.7425,-0.6586,-0.6397,-0.57,-0.4462,-0.3973,-0.3746,-0.3681,-0.3401,-0.3241,-0.3208,-0.3208,-0.3208,-0.3175,-0.3142,-0.2992,-0.273,-0.2313,-0.2114,-0.1955,-0.1466,-0.1295,-0.1299,0.0,0.0,0.0,0.0,0.0,-1.3425,-1.2815,-1.2885,-1.2885,-1.2556,-1.3547,-1.4268,-1.4235,-1.4397,-1.4686,-1.5134,-1.5225,-1.5507,-1.6022,-1.6246,-1.6596,-1.7093,-1.6917,-1.6968,-1.7361,-1.6993,-1.7368,-1.8482,-1.7719,-1.783,0.0,0.0,0.0,0.0,-1.8092,-1.8441,-1.8026,-1.9801,-2.0698,-2.0926,-2.0732,-2.0731,-2.0761,-2.0613,-2.0239,-1.9797,-1.9797,-1.9184,-1.8167,-1.6903,-1.6258,-1.5816,-1.4525,-1.4186,-1.4269,-1.4697,-1.475,-1.4767,-1.4994,-1.4953,-1.4995,-1.541,-1.541,-1.5363,-1.5639,-1.5638,-1.5477,-1.5113,-1.389,-1.3113,-1.3778,-1.4021,-1.4779,-1.6936,-1.73,-1.7663,-1.8691,-1.7297,-1.5751,-1.4627,-1.4237,-1.3119,-1.0664,-1.0689,-1.018,-0.8508,-0.7345,-0.703,-0.7793,-0.7266,-0.7356,-0.8277,-0.8088,-0.7551,-0.6658,-0.6106,-0.5157,-0.3793,-0.3565,-0.3434,-0.3401,-0.3462,-0.3626,-0.3788,-0.3788,-0.3691,-0.3504,-0.3623,-0.3368,-0.2864,-0.2509,-0.2253,-0.2051,-0.1509,-0.1337,-0.1344,-1.4255,0.0,-1.3198,-1.3198,-1.3198,-1.3129,-1.2885,-1.306,-1.3369,-1.3749,-1.4287,-1.4588,-1.4588,-1.4588,-1.4811,-1.5315,-1.5521,-1.5696,-1.5896,-1.6301,-1.6586,-1.6738,-1.6945,-1.7213,-1.7552,-1.7432,-1.7864,-1.8917,-1.802,-1.8069,-1.9011,0.0,0.0,-1.743,-1.8834,-1.9371,-1.9248,-2.0591,-2.1354,-2.1631,-2.1399,-2.1291,-2.1214,-2.1039,-2.0679,-2.0224,-1.9901,-1.9106,-1.7971,-1.6599,-1.6002,-1.5617,-1.4474,-1.4277,-1.4536,-1.5119,-1.5174,-1.5129,-1.5685,-1.5506,-1.531,-1.5885,-1.5847,-1.5754,-1.6117,-1.6037,-1.5551,-1.4395,-1.2818,-1.2023,-1.3351,-1.3105,-1.3508,-1.6027,-1.6097,-1.6308,-1.756,-1.6182,-1.4727,-1.3849,-1.3626,-1.2805,-1.0949,-1.136,-1.126,-1.0008,-0.8583,-0.7883,-0.8127,-0.7676,-0.7751,-0.8521,-0.8277,-0.7576,-0.6354,-0.5842,-0.4903,-0.3536,-0.3597,-0.363,-0.3597,-0.3816,-0.4075,-0.4269,-0.4274,-0.4145,-0.3928,-0.4019,-0.3787,-0.3378,-0.2969,-0.2623,-0.2303,-0.1837,-0.1527,-0.1389,-1.3235,-1.3223,-1.3198,-1.3198,-1.3198,-1.3198,-1.3198,-1.3198,-1.3682,-1.5086,-1.5283,-1.5283,-1.5283,-1.5283,-1.5344,-1.5507,-1.6037,-1.6398,-1.6398,-1.6517,-1.6596,-1.6596,-1.729,-1.7914,-1.8385,-1.8583,-1.9009,-1.9688,-1.9144,-1.8882,-1.8893,-1.8693,-1.7652,-1.6034,-1.8842,-1.8983,-1.7328,-2.0111,-2.1309,-2.1325,-2.1309,-2.1214,-2.1103,-2.1103,-2.1023,-2.0749,-1.9699,-1.8812,-1.7919,-1.6099,-1.5349,-1.5,-1.4261,-1.4406,-1.4983,-1.5552,-1.5739,-1.5919,-1.6604,-1.6296,-1.5913,-1.6452,-1.6436,-1.627,-1.6208,-1.6044,-1.5551,-1.4371,-1.2673,-1.1632,-1.2454,-1.2675,-1.2918,-1.3557,-1.4599,-1.5305,-1.5237,-1.3061,-1.2279,-1.4519,-1.1874,-1.1068,-1.4151,-1.2899,-1.2061,-1.2516,-1.105,-0.9442,-0.7779,-0.7893,-0.8046,-0.8115,-0.835,-0.7536,-0.5522,-0.5892,-0.5433,-0.4103,-0.4366,-0.4494,-0.4494,-0.4494,-0.4494,-0.4494,-0.4409,-0.4441,-0.4485,-0.4271,-0.435,-0.4523,-0.3762,-0.3298,-0.2943,-0.2591,-0.2012,-0.1433,-1.3232,-1.398,-1.4337,-1.3357,-1.3198,-1.3198,-1.3198,-1.3198,-1.3369,-1.3815,-1.489,-1.5536,-1.5313,-1.5507,-1.5566,-1.5374,-1.6065,-1.6409,-1.6151,-1.7196,-1.7834,-1.7834,-1.8391,-1.8776,-1.8953,-1.9014,-1.9396,-2.0104,-1.921,-1.8882,-1.9049,-1.9169,-1.9034,-1.8746,-1.982,-2.0177,-2.0049,-2.116,-2.1899,-2.2298,-2.2175,-2.1986,-2.1777,-2.1631,-2.0985,-2.0083,-1.956,-1.848,-1.7122,-1.5929,-1.5033,-1.4437,-1.4253,-1.4801,-1.5437,-1.5484,-1.6322,-1.7128,-1.6731,-1.6849,-1.7014,-1.668,-1.6581,-1.6565,-1.6485,-1.613,-1.5565,-1.4685,-1.3369,-1.2425,-1.2679,-1.223,-1.2169,-1.3213,-1.3881,-1.4339,-1.4488,-1.4212,-1.3675,-1.2777,-1.2893,-1.3065,-1.2991,-1.2696,-1.2008,-1.0791,-1.0354,-0.9863,-0.928,-0.88,-0.8558,-0.8594,-0.8829,-0.8078,-0.6199,-0.6477,-0.5895,-0.4436,-0.4532,-0.4666,-0.4826,-0.4826,-0.4953,-0.5169,-0.5144,-0.5151,-0.5175,-0.4917,-0.4828,-0.4784,-0.4063,-0.3687,-0.3558,-0.3117,-0.2849,-0.2627,-1.3472,-1.4529,-1.5224,-1.431,-1.3749,-1.3438,-1.3438,-1.3438,-1.3594,-1.4117,-1.5134,-1.5712,-1.5507,-1.5683,-1.587,-1.6108,-1.6436,-1.6474,-1.6246,-1.7523,-1.8702,-1.9654,-1.9634,-1.9605,-1.9605,-1.9864,-2.0162,-2.0523,-1.9745,-1.9455,-1.9624,-1.9808,-2.0035,-2.0357,-2.0512,-2.0943,-2.1592,-2.1836,-2.2198,-2.2651,-2.2517,-2.2298,-2.2027,-2.1899,-2.1141,-2.007,-1.9511,-1.8389,-1.6999,-1.5866,-1.5106,-1.4657,-1.4823,-1.5583,-1.633,-1.6044,-1.7056,-1.8119,-1.7334,-1.7446,-1.7652,-1.712,-1.6876,-1.6747,-1.6607,-1.6293,-1.5877,-1.5197,-1.4255,-1.352,-1.3323,-1.2728,-1.2518,-1.3246,-1.3419,-1.3485,-1.3587,-1.3544,-1.308,-1.1869,-1.2397,-1.268,-1.2341,-1.2311,-1.1801,-1.054,-1.0562,-1.0442,-1.0077,-0.9254,-0.8651,-0.8365,-0.85,-0.7763,-0.6037,-0.6428,-0.6041,-0.4858,-0.4985,-0.5203,-0.547,-0.5483,-0.5649,-0.5948,-0.5792,-0.5748,-0.5797,-0.5504,-0.5421,-0.5359,-0.4928,-0.4648,-0.447,-0.4204,-0.3811,-0.3456,-1.3908,-1.4873,-1.5654,-1.5654,-1.4624,-1.3788,-1.3788,-1.3788,-1.4254,-1.5492,-1.5741,-1.5799,-1.5799,-1.5799,-1.6234,-1.7289,-1.6882,-1.6596,-1.6596,-1.7556,-1.9241,-2.1698,-2.0918,-2.0381,-2.0381,-2.1016,-2.1214,-2.0926,-2.0681,-2.0548,-2.0548,-2.0548,-2.0681,-2.0942,-2.0942,-2.1354,-2.2068,-2.2068,-2.2192,-2.2395,-2.2368,-2.2192,-2.1911,-2.1899,-2.1404,-2.0588,-1.9589,-1.8583,-1.7499,-1.6094,-1.5544,-1.5485,-1.588,-1.6718,-1.7489,-1.7081,-1.7934,-1.8898,-1.8359,-1.8108,-1.7931,-1.7697,-1.7297,-1.6876,-1.6617,-1.6544,-1.6369,-1.5766,-1.5227,-1.4713,-1.4251,-1.3939,-1.3736,-1.3585,-1.3153,-1.278,-1.2615,-1.1579,-1.109,-1.1759,-1.0815,-1.067,-1.2161,-1.1816,-1.1474,-1.1437,-1.1407,-1.1013,-1.0184,-0.9261,-0.8394,-0.7647,-0.7571,-0.6811,-0.5286,-0.5887,-0.593,-0.5372,-0.5739,-0.6067,-0.639,-0.6371,-0.6522,-0.671,-0.6316,-0.6183,-0.6309,-0.5989,-0.5974,-0.612,-0.6109,-0.5873,-0.5508,-0.554,-0.489,-0.4022,-1.5118,-1.4749,-1.4287,-1.4287,-1.4007,-1.3788,-1.3788,-1.3788,-1.3908,-1.4222,-1.5149,-1.5799,-1.5799,-1.5799,-1.5913,-1.6179,-1.6355,-1.6463,-1.6432,-1.7711,-1.946,-2.1698,-2.1573,-2.1444,-2.1444,-2.1609,-2.1462,-2.1039,-2.1261,-2.1166,-2.0828,-2.1007,-2.1135,-2.1214,-2.1214,-2.1448,-2.1869,-2.1869,-2.2089,-2.2371,-2.2169,-2.2068,-2.2056,-2.1899,-2.1392,-2.0671,-2.0,-1.9233,-1.8422,-1.7305,-1.68,-1.667,-1.6946,-1.7638,-1.8235,-1.7654,-1.8767,-1.9867,-1.8669,-1.8642,-1.8828,-1.8215,-1.7749,-1.7384,-1.7175,-1.696,-1.6664,-1.6087,-1.5709,-1.5301,-1.4744,-1.4571,-1.4446,-1.4082,-1.3496,-1.2979,-1.2578,-1.2436,-1.2357,-1.2264,-1.2118,-1.2117,-1.2285,-1.1724,-1.1185,-1.0784,-1.054,-1.0156,-0.9474,-0.8752,-0.8176,-0.7837,-0.7391,-0.673,-0.5814,-0.6123,-0.6201,-0.6067,-0.6706,-0.7081,-0.7132,-0.7138,-0.7179,-0.7205,-0.6552,-0.6395,-0.654,-0.5806,-0.5857,-0.6317,-0.5598,-0.5448,-0.5588,-0.5084,-0.4834,-0.473,-1.5522,-1.5209,-1.4529,-1.3921,-1.3788,-1.3788,-1.3788,-1.4319,-1.4718,-1.4718,-1.5359,-1.5799,-1.5799,-1.5799,-1.5799,-1.5799,-1.6151,-1.6517,-1.6866,-1.8039,-1.9635,-2.1698,-2.1797,-2.1797,-2.1797,-2.1797,-2.1691,-2.1415,-2.1631,-2.1601,-2.137,-2.1524,-2.1601,-2.157,-2.1601,-2.1751,-2.194,-2.1869,-2.2015,-2.226,-2.1953,-2.182,-2.179,-2.1823,-2.1334,-2.0648,-2.0471,-1.9854,-1.9042,-1.8563,-1.8178,-1.8004,-1.8519,-1.8991,-1.9333,-1.9345,-2.0071,-2.0623,-1.9441,-1.9167,-1.8963,-1.7896,-1.7585,-1.7432,-1.7175,-1.7126,-1.6986,-1.656,-1.6374,-1.6184,-1.5877,-1.5409,-1.5078,-1.508,-1.4069,-1.3248,-1.3107,-1.3117,-1.3061,-1.2916,-1.2711,-1.2528,-1.2407,-1.1567,-1.0872,-1.0486,-1.0187,-0.9882,-0.9578,-0.8958,-0.8389,-0.7858,-0.7381,-0.687,-0.6296,-0.6199,-0.6244,-0.6407,-0.679,-0.7158,-0.7451,-0.7436,-0.7517,-0.7596,-0.6918,-0.6713,-0.6794,-0.6159,-0.6222,-0.6681,-0.6303,-0.6204,-0.6315,-0.6085,-0.5772,-0.546,-1.561,-1.5668,-1.5149,-1.4007,-1.3974,-1.4092,-1.4092,-1.5088,-1.5856,-1.5856,-1.5697,-1.5654,-1.5827,-1.6011,-1.6108,-1.6108,-1.6367,-1.6712,-1.7216,-1.8145,-1.9638,-2.1757,-2.184,-2.1827,-2.1827,-2.1827,-2.1781,-2.1827,-2.1869,-2.1882,-2.1899,-2.194,-2.194,-2.1899,-2.194,-2.2027,-2.2068,-2.1882,-2.1911,-2.1982,-2.1702,-2.1491,-2.1368,-2.1675,-2.1312,-2.0714,-2.0938,-2.0495,-1.9755,-1.9821,-1.9626,-1.9465,-2.0153,-2.0389,-2.0555,-2.1197,-2.137,-2.1185,-2.0421,-1.9646,-1.8799,-1.7539,-1.7322,-1.7313,-1.7002,-1.7175,-1.7313,-1.6977,-1.6926,-1.6942,-1.6942,-1.6107,-1.5561,-1.6022,-1.4622,-1.3592,-1.3856,-1.3678,-1.35,-1.3574,-1.295,-1.2566,-1.2538,-1.1462,-1.0634,-1.039,-1.0064,-0.9873,-0.9872,-0.9358,-0.8688,-0.7894,-0.7546,-0.7132,-0.6656,-0.6382,-0.636,-0.6643,-0.6763,-0.7097,-0.7652,-0.7666,-0.7795,-0.7972,-0.7308,-0.7017,-0.6954,-0.6576,-0.6597,-0.6962,-0.7145,-0.711,-0.7015,-0.7159,-0.6673,-0.5941,-1.5898,-1.5043,-1.4026,-1.3854,-1.4749,-1.5492,-1.5492,-1.587,-1.6139,-1.6139,-1.5195,-1.4935,-1.6011,-1.6952,-1.7479,-1.7479,-1.7526,-1.7126,-1.6123,-1.7104,-1.8992,-2.1852,-2.1969,-2.194,-2.1899,-2.184,-2.184,-2.1882,-2.184,-2.1827,-2.1827,-2.1827,-2.1827,-2.1827,-2.1827,-2.1869,-2.1911,-2.1601,-2.1524,-2.1568,-2.1244,-2.1086,-2.1055,-2.1134,-2.1305,-2.1483,-2.1254,-2.1294,-2.1407,-2.1111,-2.1004,-2.0957,-2.1101,-2.1337,-2.1568,-2.1691,-2.1721,-2.1642,-2.1215,-2.0134,-1.8968,-1.8416,-1.7831,-1.7337,-1.7043,-1.7191,-1.7313,-1.7043,-1.6815,-1.6675,-1.6675,-1.6013,-1.5608,-1.6028,-1.4877,-1.4031,-1.4363,-1.417,-1.3984,-1.3926,-1.3527,-1.3088,-1.2706,-1.1691,-1.0818,-1.0277,-0.9965,-0.9671,-0.9338,-0.8978,-0.8603,-0.8222,-0.7888,-0.7463,-0.6927,-0.7145,-0.7303,-0.7342,-0.7984,-0.8334,-0.8434,-0.8427,-0.8468,-0.8446,-0.743,-0.7017,-0.6954,-0.6201,-0.6176,-0.6537,-0.6086,-0.6125,-0.6398,-0.6147,-0.5904,-0.5671,-1.5195,-1.4592,-1.4072,-1.4072,-1.456,-1.4996,-1.4996,-1.4951,-1.4921,-1.4921,-1.5027,-1.5389,-1.6139,-1.6649,-1.6942,-1.6942,-1.6942,-1.6686,-1.6055,-1.7432,-1.9111,-2.1006,-2.1493,-2.1794,-2.194,-2.1911,-2.1911,-2.194,-2.1991,-2.2007,-2.2007,-2.2049,-2.2003,-2.1911,-2.1991,-2.1844,-2.157,-2.1386,-2.115,-2.0926,-2.0697,-2.063,-2.0663,-2.1007,-2.1308,-2.1509,-2.1708,-2.1903,-2.2049,-2.1886,-2.1827,-2.1827,-2.1827,-2.2044,-2.226,-2.2106,-2.1792,-2.1261,-2.0372,-1.9446,-1.8601,-1.7871,-1.7437,-1.7191,-1.7216,-1.7313,-1.7408,-1.7432,-1.7337,-1.7191,-1.7068,-1.6135,-1.5606,-1.6249,-1.4887,-1.4067,-1.5026,-1.4698,-1.4352,-1.431,-1.4105,-1.3573,-1.2684,-1.2,-1.1242,-1.0287,-0.9828,-0.9527,-0.9363,-0.9087,-0.8853,-0.8746,-0.8129,-0.756,-0.7107,-0.7255,-0.7442,-0.7618,-0.795,-0.8209,-0.8368,-0.8368,-0.8368,-0.8328,-0.7487,-0.7107,-0.7074,-0.6536,-0.6458,-0.6664,-0.6557,-0.6462,-0.6343,-0.6357,-0.6116,-0.5849,-1.4479,-1.4543,-1.4749,-1.4749,-1.4749,-1.4624,-1.4365,-1.4072,-1.3921,-1.3921,-1.4811,-1.5639,-1.6166,-1.6194,-1.6194,-1.6194,-1.6194,-1.6455,-1.7115,-1.8435,-1.9547,-2.0258,-2.1166,-2.1797,-2.2073,-2.2027,-2.2027,-2.2044,-2.2106,-2.2152,-2.2152,-2.2209,-2.2147,-2.1998,-2.202,-2.1784,-2.1371,-2.1183,-2.0877,-2.0561,-2.0357,-2.0304,-2.0357,-2.0958,-2.1245,-2.137,-2.1991,-2.2265,-2.2377,-2.231,-2.2377,-2.2487,-2.2405,-2.2579,-2.273,-2.2319,-2.1513,-2.0534,-1.9553,-1.891,-1.8286,-1.7467,-1.7131,-1.7018,-1.7093,-1.7264,-1.7432,-1.7589,-1.7658,-1.7635,-1.7432,-1.6326,-1.5703,-1.6453,-1.5113,-1.4374,-1.5514,-1.5192,-1.4765,-1.4519,-1.4277,-1.3702,-1.2611,-1.2067,-1.1399,-1.0418,-0.9838,-0.9466,-0.9307,-0.9152,-0.8985,-0.8875,-0.8177,-0.7618,-0.7285,-0.7407,-0.7604,-0.7871,-0.7939,-0.8059,-0.8244,-0.8137,-0.8106,-0.8062,-0.7462,-0.7251,-0.7321,-0.6947,-0.6843,-0.6935,-0.7023,-0.6848,-0.6504,-0.6736,-0.652,-0.6108,-1.4332,-1.5255,-1.6067,-1.6067,-1.6067,-1.5653,-1.4479,-1.4268,-1.4268,-1.4268,-1.4365,-1.4873,-1.6067,-1.6194,-1.6194,-1.6194,-1.6194,-1.7284,-1.9842,-2.0138,-2.023,-2.0304,-2.154,-2.2254,-2.2282,-2.2101,-2.2044,-2.2185,-2.2089,-2.2027,-2.2027,-2.2027,-2.2027,-2.1998,-2.1705,-2.1601,-2.1634,-2.1006,-2.0744,-2.0761,-2.0441,-2.0304,-2.0339,-2.0695,-2.1039,-2.137,-2.1721,-2.2203,-2.2632,-2.2377,-2.2615,-2.301,-2.2747,-2.285,-2.2919,-2.2146,-2.0691,-1.9441,-1.9841,-1.9227,-1.8426,-1.8095,-1.7529,-1.6866,-1.6398,-1.6866,-1.7337,-1.7117,-1.7264,-1.7408,-1.7408,-1.6553,-1.5992,-1.6428,-1.5851,-1.5397,-1.559,-1.5607,-1.524,-1.4256,-1.368,-1.3143,-1.2554,-1.1513,-1.0865,-1.0769,-1.0207,-0.9502,-0.8712,-0.8834,-0.8695,-0.8179,-0.7928,-0.7686,-0.749,-0.8034,-0.8313,-0.8354,-0.8659,-0.8682,-0.8385,-0.7995,-0.7809,-0.7715,-0.7373,-0.7415,-0.7712,-0.705,-0.6974,-0.7205,-0.6594,-0.6546,-0.676,-0.6782,-0.6642,-0.6421,-1.43,-1.5329,-1.6194,-1.6194,-1.6194,-1.5769,-1.4497,-1.43,-1.456,-1.5374,-1.5477,-1.5653,-1.6166,-1.6194,-1.6194,-1.6194,-1.6194,-1.6993,-1.8885,-1.9842,-2.0426,-2.0648,-2.115,-2.1615,-2.1974,-2.2135,-2.2209,-2.2254,-2.2209,-2.2192,-2.2192,-2.1957,-2.184,-2.1781,-2.1462,-2.1182,-2.0942,-2.0777,-2.0577,-2.0342,-2.0339,-2.0441,-2.0662,-2.0974,-2.1415,-2.1907,-2.2243,-2.2624,-2.291,-2.2632,-2.2799,-2.306,-2.2773,-2.2646,-2.2433,-2.1639,-2.035,-1.931,-1.9789,-1.8884,-1.7757,-1.7488,-1.7081,-1.6797,-1.6905,-1.7061,-1.7216,-1.7448,-1.7589,-1.7612,-1.7432,-1.6743,-1.6294,-1.6522,-1.5971,-1.5614,-1.5933,-1.5782,-1.5299,-1.4355,-1.4199,-1.3697,-1.2494,-1.2104,-1.1683,-1.1102,-1.057,-0.9909,-0.9076,-0.8713,-0.8406,-0.8167,-0.7723,-0.752,-0.7608,-0.7851,-0.8177,-0.8663,-0.8698,-0.8805,-0.899,-0.8651,-0.8455,-0.8422,-0.7959,-0.8027,-0.8451,-0.8239,-0.8104,-0.7974,-0.7991,-0.7605,-0.71,-0.71,-0.6837,-0.6502,-1.43,-1.4982,-1.5595,-1.5595,-1.5595,-1.5329,-1.4447,-1.43,-1.4624,-1.5507,-1.5955,-1.6194,-1.6194,-1.5826,-1.5769,-1.6166,-1.6194,-1.6947,-1.8729,-1.9964,-2.0828,-2.1323,-2.1337,-2.1524,-2.1945,-2.218,-2.231,-2.231,-2.231,-2.231,-2.2282,-2.1961,-2.1768,-2.1708,-2.1261,-2.0909,-2.0595,-2.0577,-2.0407,-2.0185,-2.0373,-2.0595,-2.086,-2.1276,-2.1718,-2.2124,-2.2453,-2.2799,-2.306,-2.2773,-2.2985,-2.3283,-2.3035,-2.2558,-2.1903,-2.1289,-2.0252,-1.9423,-1.9838,-1.8952,-1.7818,-1.734,-1.7033,-1.6878,-1.7027,-1.6945,-1.6986,-1.7455,-1.7681,-1.7726,-1.7566,-1.708,-1.6713,-1.6709,-1.6238,-1.589,-1.5991,-1.5725,-1.514,-1.4127,-1.4102,-1.3714,-1.2515,-1.2316,-1.2046,-1.146,-1.0896,-1.0235,-0.9434,-0.8899,-0.8501,-0.8211,-0.7781,-0.7564,-0.7539,-0.7797,-0.8193,-0.8642,-0.8816,-0.9032,-0.9217,-0.8923,-0.8765,-0.8711,-0.8357,-0.8535,-0.906,-0.9,-0.8866,-0.8748,-0.8803,-0.8286,-0.7472,-0.7361,-0.701,-0.6611,-1.43,-1.43,-1.43,-1.43,-1.43,-1.43,-1.43,-1.43,-1.43,-1.43,-1.5404,-1.6194,-1.6194,-1.5043,-1.4811,-1.6095,-1.621,-1.7392,-2.0135,-2.0926,-2.1584,-2.2254,-2.231,-2.231,-2.2282,-2.231,-2.231,-2.231,-2.231,-2.231,-2.2282,-2.1945,-2.1797,-2.1768,-2.1103,-2.0794,-2.0761,-2.0441,-2.0304,-2.0339,-2.0662,-2.0794,-2.0893,-2.154,-2.1797,-2.1857,-2.218,-2.2642,-2.3042,-2.2799,-2.317,-2.3735,-2.3535,-2.256,-2.1438,-2.1164,-2.0389,-1.9656,-1.9938,-1.9561,-1.8889,-1.7948,-1.7506,-1.712,-1.6456,-1.6401,-1.6606,-1.6926,-1.7448,-1.7805,-1.7828,-1.7606,-1.7329,-1.7059,-1.6779,-1.6367,-1.571,-1.5433,-1.483,-1.3542,-1.3168,-1.2886,-1.2628,-1.2007,-1.169,-1.1874,-1.1216,-1.0457,-0.9676,-0.9432,-0.8974,-0.8239,-0.822,-0.7875,-0.7205,-0.8056,-0.8427,-0.8315,-0.9198,-0.9357,-0.8902,-0.8648,-0.8474,-0.8419,-0.8419,-0.8781,-0.9381,-0.9066,-0.9168,-0.9437,-0.8694,-0.8198,-0.7874,-0.745,-0.7138,-0.6829,-1.4902,-1.4994,-1.4839,-1.4397,-1.43,-1.43,-1.43,-1.43,-1.43,-1.43,-1.5404,-1.587,-1.4951,-1.4543,-1.4811,-1.6095,-1.7961,-1.9408,-2.0258,-2.0728,-2.1135,-2.1601,-2.2049,-2.218,-2.1945,-2.218,-2.231,-2.231,-2.231,-2.231,-2.2282,-2.1721,-2.1462,-2.1401,-2.0447,-2.017,-2.0426,-2.0045,-2.0185,-2.0662,-2.0761,-2.1071,-2.1509,-2.1721,-2.2044,-2.2453,-2.2552,-2.2435,-2.2224,-2.201,-2.182,-2.1572,-2.0958,-2.0954,-2.1164,-2.0958,-2.0367,-2.0025,-2.0927,-2.0417,-1.9417,-1.8718,-1.7808,-1.7164,-1.7349,-1.7049,-1.6979,-1.793,-1.8365,-1.8724,-1.9241,-1.9085,-1.8785,-1.8519,-1.7773,-1.7011,-1.6458,-1.5847,-1.5122,-1.4208,-1.3911,-1.3507,-1.2799,-1.2392,-1.215,-1.2048,-1.1536,-1.1092,-1.0816,-1.0172,-0.9571,-0.9118,-0.8573,-0.8223,-0.813,-0.8272,-0.859,-0.9063,-0.9778,-1.0203,-1.0354,-1.0085,-0.982,-0.9592,-0.9422,-0.9573,-0.9916,-1.0054,-1.0153,-1.0244,-1.0028,-0.9571,-0.899,-0.864,-0.7977,-0.7363,-1.4839,-1.4902,-1.4871,-1.4714,-1.4714,-1.462,-1.4332,-1.43,-1.43,-1.43,-1.4966,-1.5165,-1.4383,-1.43,-1.4811,-1.6095,-1.87,-2.015,-1.9762,-2.0258,-2.0745,-2.1087,-2.1631,-2.1915,-2.1991,-2.218,-2.231,-2.231,-2.231,-2.2237,-2.2094,-2.1385,-2.0991,-2.0829,-1.9859,-1.9617,-1.9833,-1.9726,-2.003,-2.0613,-2.0877,-2.1324,-2.1794,-2.1628,-2.1978,-2.249,-2.2226,-2.1961,-2.1766,-2.1655,-2.1255,-2.0653,-1.9738,-2.0057,-2.0749,-2.0673,-2.0511,-2.0538,-2.1487,-2.1089,-2.0257,-1.9677,-1.8449,-1.7486,-1.7913,-1.7521,-1.738,-1.8663,-1.9085,-1.9387,-1.9984,-1.9762,-1.941,-1.9135,-1.8442,-1.7725,-1.7134,-1.6634,-1.5908,-1.4763,-1.4419,-1.3835,-1.278,-1.2508,-1.2387,-1.2401,-1.2039,-1.1737,-1.1512,-1.0877,-1.0312,-0.982,-0.9224,-0.8896,-0.8858,-0.894,-0.9041,-0.9164,-0.9888,-1.0342,-1.0572,-1.0568,-1.0428,-1.0079,-0.9991,-0.9991,-1.0118,-1.0312,-1.0467,-1.0582,-1.0467,-0.9903,-0.9191,-0.9056,-0.839,-0.7648,-1.4689,-1.4678,-1.4809,-1.543,-1.5397,-1.5158,-1.4782,-1.4487,-1.43,-1.43,-1.43,-1.43,-1.43,-1.4383,-1.4935,-1.6095,-1.8636,-1.9848,-1.9019,-1.9774,-2.0392,-2.0728,-2.1087,-2.157,-2.2237,-2.2254,-2.2254,-2.2254,-2.2254,-2.2077,-2.1751,-2.0991,-2.0467,-2.0124,-1.9369,-1.9064,-1.9124,-1.9493,-1.9909,-2.0345,-2.1039,-2.1524,-2.1803,-2.145,-2.1718,-2.2209,-2.1421,-2.1284,-2.1411,-2.1248,-2.0882,-2.0333,-1.9371,-1.9602,-2.0247,-2.0367,-2.0671,-2.1083,-2.1569,-2.1479,-2.1071,-2.0581,-1.9287,-1.8158,-1.8268,-1.7867,-1.789,-1.9241,-1.9667,-1.993,-2.0314,-2.0006,-1.9608,-1.9329,-1.898,-1.847,-1.7792,-1.7665,-1.7023,-1.5339,-1.4892,-1.4169,-1.2818,-1.2579,-1.2633,-1.2831,-1.2748,-1.2474,-1.1967,-1.1686,-1.1196,-1.0458,-1.0087,-0.9778,-0.9528,-0.9838,-0.9621,-0.8925,-0.9808,-1.0144,-1.0061,-1.0477,-1.0505,-1.0196,-1.0157,-1.0118,-1.0079,-1.0079,-1.0273,-1.0505,-1.0235,-0.9628,-0.8941,-0.9016,-0.8513,-0.7889,-1.767,-1.7539,-1.7186,-1.7301,-1.6202,-1.5918,-1.7791,-1.5943,-1.43,-1.43,-1.43,-1.43,-1.43,-1.5195,-1.5898,-1.6166,-1.813,-1.9346,-1.9355,-1.9656,-1.9995,-2.0326,-2.0697,-2.123,-2.1886,-2.1915,-2.1915,-2.1915,-2.1915,-2.1721,-2.1401,-2.0665,-2.0128,-1.9768,-1.8991,-1.8831,-1.9177,-1.9221,-1.9949,-2.1071,-2.1245,-2.1661,-2.2192,-2.2096,-2.2175,-2.2181,-2.1211,-2.0602,-1.9967,-1.8434,-1.8028,-1.8158,-1.816,-1.8871,-1.9767,-2.0202,-2.0573,-2.0863,-2.1007,-2.0778,-2.046,-2.0185,-1.9587,-1.9071,-1.9006,-1.8516,-1.8526,-2.0033,-2.0495,-2.0887,-2.1756,-2.1647,-2.1255,-2.0898,-2.0111,-1.9296,-1.8612,-1.8208,-1.7575,-1.6459,-1.6361,-1.5774,-1.4236,-1.3775,-1.3453,-1.3137,-1.3899,-1.3939,-1.2943,-1.3174,-1.276,-1.1499,-1.1092,-1.0791,-1.0567,-1.0044,-0.978,-0.9823,-1.0741,-1.1196,-1.1174,-1.1244,-1.1126,-1.0791,-1.0572,-1.0351,-1.0079,-1.0079,-1.0157,-1.0196,-1.0118,-1.0,-0.9795,-0.9625,-0.9185,-0.8765,-1.884,-1.876,-1.8333,-1.7963,-1.7139,-1.7,-1.8331,-1.7416,-1.6585,-1.6585,-1.6247,-1.601,-1.601,-1.558,-1.5748,-1.6915,-1.8281,-1.9176,-1.931,-1.969,-1.994,-2.01,-2.0426,-2.0734,-2.1032,-2.142,-2.1661,-2.1797,-2.1631,-2.1401,-2.1023,-2.028,-1.9743,-1.9398,-1.8793,-1.864,-1.8893,-1.9236,-2.0019,-2.1086,-2.1381,-2.1849,-2.2337,-2.1678,-2.1591,-2.1695,-2.0757,-2.0157,-1.9525,-1.7743,-1.7358,-1.7678,-1.7915,-1.8611,-1.9379,-1.9716,-2.0226,-2.0679,-2.0545,-2.0545,-2.0545,-2.0426,-2.0146,-1.9882,-1.9682,-1.9242,-1.9341,-2.0787,-2.1201,-2.1523,-2.2347,-2.2203,-2.1882,-2.1645,-2.1,-2.0353,-1.9816,-1.9507,-1.8827,-1.7502,-1.7213,-1.6478,-1.489,-1.463,-1.4451,-1.4299,-1.4732,-1.4744,-1.4127,-1.3982,-1.3552,-1.2821,-1.224,-1.1867,-1.1632,-1.1105,-1.0953,-1.1217,-1.151,-1.1871,-1.2285,-1.2114,-1.197,-1.1808,-1.1103,-1.0664,-1.0416,-1.0204,-1.0118,-1.0166,-0.9971,-1.0,-1.006,-0.9932,-0.9853,-0.9804,-1.9101,-1.9101,-1.8874,-1.8228,-1.8109,-1.8109,-1.8109,-1.8567,-1.8912,-1.8912,-1.8082,-1.7706,-1.8069,-1.6437,-1.6138,-1.8152,-1.8683,-1.8988,-1.9176,-1.9654,-1.9955,-1.9955,-2.027,-2.038,-2.0256,-2.0967,-2.1413,-2.154,-2.1397,-2.1135,-2.0695,-1.9899,-1.9361,-1.9087,-1.8693,-1.8539,-1.8693,-1.9384,-2.0158,-2.0911,-2.148,-2.2029,-2.2361,-2.1157,-2.0938,-2.1128,-2.0194,-1.9701,-1.9296,-1.7838,-1.7608,-1.7922,-1.8115,-1.857,-1.9076,-1.9317,-1.9914,-2.0462,-2.0243,-2.0548,-2.0893,-2.0811,-2.078,-2.0649,-2.0361,-2.0077,-2.0225,-2.148,-2.1794,-2.2015,-2.2579,-2.2409,-2.2113,-2.194,-2.1631,-2.1261,-2.0877,-2.0679,-2.0011,-1.8543,-1.7774,-1.6862,-1.5556,-1.5517,-1.5562,-1.5587,-1.56,-1.5487,-1.5205,-1.4606,-1.4187,-1.397,-1.3304,-1.285,-1.2658,-1.2371,-1.2456,-1.2861,-1.2453,-1.2633,-1.326,-1.2929,-1.2843,-1.2907,-1.1744,-1.1204,-1.1047,-1.0524,-1.037,-1.043,-1.0045,-1.0028,-1.0234,-1.0186,-1.0351,-1.0621,-1.9101,-1.9101,-1.9064,-1.895,-1.895,-1.895,-1.895,-1.8464,-1.8069,-1.8069,-1.6892,-1.6824,-1.8745,-1.9254,-1.9615,-1.9945,-1.8822,-1.8528,-1.953,-1.9442,-1.9464,-1.9788,-2.0239,-2.0462,-2.0358,-2.0811,-2.086,-2.0502,-2.1108,-2.1071,-2.0457,-1.9566,-1.9169,-1.9177,-1.8717,-1.8717,-1.9126,-1.9515,-2.0311,-2.1244,-2.1556,-2.2,-2.233,-2.1769,-2.1318,-2.0898,-1.9734,-1.8898,-1.8238,-1.7483,-1.7501,-1.7893,-1.8377,-1.8612,-1.8876,-1.9556,-1.9939,-2.017,-2.0135,-2.0548,-2.0975,-2.0893,-2.1305,-2.1606,-2.1213,-2.1006,-2.1191,-2.218,-2.2395,-2.252,-2.2876,-2.2902,-2.2677,-2.2068,-2.1645,-2.1293,-2.0926,-2.0579,-2.012,-1.954,-1.8327,-1.7464,-1.7277,-1.7182,-1.6811,-1.6089,-1.7085,-1.7044,-1.5616,-1.5632,-1.5293,-1.4375,-1.3838,-1.362,-1.3772,-1.317,-1.3507,-1.471,-1.4255,-1.3906,-1.3615,-1.3587,-1.3558,-1.3522,-1.2654,-1.2289,-1.2215,-1.1449,-1.112,-1.1065,-1.083,-1.0755,-1.0764,-1.0611,-1.0544,-1.0621,-1.9101,-1.9101,-1.9101,-1.9101,-1.9101,-1.9101,-1.9101,-1.7988,-1.7115,-1.7115,-1.6349,-1.6454,-1.8254,-1.9161,-1.9457,-1.9011,-1.8528,-1.8528,-1.9169,-1.9427,-1.9645,-1.9945,-2.0308,-2.0225,-1.9699,-2.0914,-2.1065,-2.0075,-2.0817,-2.1023,-2.0697,-1.9767,-1.9332,-1.9339,-1.9132,-1.9169,-1.9413,-2.007,-2.0846,-2.1668,-2.2046,-2.2415,-2.2626,-2.1669,-2.0956,-2.026,-1.8827,-1.8509,-1.8665,-1.8104,-1.8051,-1.8272,-1.8729,-1.8992,-1.9194,-1.939,-2.0,-2.0462,-2.0104,-2.0649,-2.1306,-2.126,-2.1612,-2.1948,-2.1928,-2.1882,-2.1953,-2.2164,-2.2368,-2.2608,-2.3003,-2.307,-2.2952,-2.2607,-2.2124,-2.1658,-2.1308,-2.1055,-2.0663,-2.005,-1.9288,-1.8674,-1.8458,-1.8106,-1.7747,-1.7381,-1.7598,-1.7449,-1.6697,-1.6367,-1.5954,-1.5495,-1.4808,-1.4373,-1.4091,-1.3883,-1.4116,-1.4755,-1.436,-1.4428,-1.4884,-1.4474,-1.4456,-1.4635,-1.3288,-1.2776,-1.2838,-1.1899,-1.1459,-1.1287,-1.1113,-1.1159,-1.1319,-1.1431,-1.1404,-1.1255]},{"header":{"parameterUnit":"m.s-1","parameterCategory":1,"la1":30.6,"la2":28.766,"lo1":-90.7593,"lo2":-88.6598,"dy":0.0162,"dx":0.0183,"nx":116,"ny":114,"refTime":"2023-07-24T12:00:00:Z","depth":0,"parameterNumber":3,"parameterNumberName":"V-component_of_WINDS"},"data":[0.0,0.0,0.0,0.0,0.0,0.0,0.0,0.0,0.0,0.0,0.0,0.0,0.0,0.0,0.0,0.0,0.0,0.0,0.0,0.0,0.0,0.0,0.0,0.0,0.0,0.0,0.0,0.0,0.0,0.0,0.0,0.0,0.0,0.0,0.0,0.0,0.0,0.0,0.0,0.0,0.0,0.0,0.0,0.0,0.0,0.0,0.0,0.0,0.0,0.0,0.0,0.0,0.0,0.0,0.0,0.0,0.0,0.0,0.0,0.0,0.0,0.0,0.0,0.0,0.0,0.0,0.0,0.0,0.0,0.0,0.0,0.0,0.0,0.0,0.0,0.0,0.0,0.0,0.0,0.0,0.0,0.0,0.0,0.0,0.0,0.0,0.0,0.0,0.0,0.0,0.0,0.0,0.0,0.0,0.0,0.0,0.0,0.0,0.0,0.0,0.0,0.0,0.0,0.0,0.0,0.0,0.0,0.0,0.0,0.0,0.0,0.0,0.0,0.0,0.0,0.0,0.0,0.0,0.0,0.0,0.0,0.0,0.0,0.0,0.0,0.0,0.0,0.0,0.0,0.0,0.0,0.0,0.0,0.0,0.0,0.0,0.0,0.0,0.0,0.0,0.0,0.0,0.0,0.0,0.0,0.0,0.0,0.0,0.0,0.0,0.0,0.0,0.0,0.0,0.0,0.0,0.0,0.0,0.0,0.0,0.0,0.0,0.0,0.0,0.0,0.0,0.0,0.0,0.0,0.0,0.0,0.0,0.0,0.0,0.0,0.0,0.0,0.0,0.0,0.0,0.0,0.0,0.0,0.0,0.0,0.0,0.0,0.0,0.0,0.0,0.0,0.0,0.0,0.0,0.0,0.0,0.0,0.0,0.0,0.0,0.0,0.0,0.0,0.0,0.0,0.0,0.0,0.0,0.0,0.0,0.0,0.0,0.0,0.0,0.0,0.0,0.0,0.0,0.0,0.0,0.0,0.0,0.0,0.0,0.0,0.0,0.0,0.0,0.0,0.0,0.0,0.0,0.0,0.0,0.0,0.0,0.0,0.0,0.0,0.0,0.0,0.0,0.0,0.0,0.0,0.0,0.0,0.0,0.0,0.0,0.0,0.0,0.0,0.0,0.0,0.0,0.0,0.0,0.0,0.0,0.0,0.0,0.0,0.0,0.0,0.0,0.0,0.0,0.0,0.0,0.0,0.0,0.0,0.0,0.0,0.0,0.0,0.0,0.0,0.0,0.0,0.0,0.0,0.0,0.0,0.0,0.0,0.0,0.0,0.0,0.0,0.0,0.0,0.0,0.0,0.0,0.0,0.0,0.0,0.0,0.0,0.0,0.0,0.0,0.0,0.0,0.0,0.0,0.0,0.0,0.0,0.0,0.0,0.0,0.0,0.0,0.0,0.0,0.0,0.0,0.0,0.0,0.0,0.0,0.0,0.0,0.0,0.0,0.0,0.0,0.0,0.0,0.0,0.0,0.0,0.0,0.0,0.0,0.0,0.0,0.0,0.0,0.0,0.0,0.0,0.0,0.0,0.0,0.0,0.0,0.0,0.0,0.0,0.0,0.0,0.0,0.0,0.0,0.0,0.0,0.0,0.0,0.0,0.0,0.0,0.0,0.0,0.0,0.0,0.0,0.0,0.0,0.0,0.0,0.0,0.0,0.0,0.0,0.0,0.0,0.0,0.0,0.0,0.0,0.0,0.0,0.0,0.0,0.0,0.0,0.0,0.0,0.0,0.0,0.0,0.0,0.0,0.0,0.0,0.0,0.0,0.0,0.0,0.0,0.0,0.0,0.0,0.0,0.0,0.0,0.0,0.0,0.0,0.0,0.0,0.0,0.0,0.0,0.0,0.0,0.0,0.0,0.0,0.0,0.0,0.0,0.0,0.0,0.0,0.0,0.0,0.0,0.0,0.0,0.0,0.0,0.0,0.0,0.0,0.0,0.0,0.0,0.0,0.0,0.0,0.0,0.0,0.0,0.0,0.0,0.0,0.0,0.0,0.0,0.0,0.0,0.0,0.0,0.0,0.0,0.0,0.0,0.0,0.0,0.0,0.0,0.0,0.0,0.0,0.0,0.0,0.0,0.0,0.0,0.0,0.0,0.0,0.0,0.0,0.0,0.0,0.0,0.0,0.0,0.0,0.0,0.0,0.0,0.0,0.0,0.0,0.0,0.0,0.0,0.0,0.0,0.0,0.0,0.0,0.0,0.0,0.0,0.0,0.0,0.0,0.0,0.0,0.0,0.0,0.0,0.0,0.0,0.0,0.0,0.0,0.0,0.0,0.0,0.0,0.0,0.0,0.0,0.0,0.0,0.0,0.0,0.0,0.0,0.0,0.0,0.0,0.0,0.0,0.0,0.0,0.0,0.0,0.0,0.0,0.0,0.0,0.0,0.0,0.0,0.0,0.0,0.0,0.0,0.0,0.0,0.0,0.0,0.0,0.0,0.0,0.0,0.0,0.0,0.0,0.0,0.0,0.0,0.0,0.0,0.0,0.0,0.0,0.0,0.0,0.0,0.0,0.0,0.0,0.0,0.0,0.0,0.0,0.0,0.0,0.0,0.0,0.0,0.0,0.0,0.0,0.0,0.0,0.0,0.0,0.0,0.0,0.0,0.0,0.0,0.0,0.0,0.0,0.0,0.0,0.0,0.0,0.0,0.0,0.0,0.0,0.0,0.0,0.0,0.0,0.0,0.0,0.0,0.0,0.0,0.0,0.0,0.0,0.0,0.0,0.0,0.0,0.0,0.0,0.0,0.0,0.0,0.0,0.0,0.0,0.0,0.0,0.0,0.0,0.0,0.0,0.0,0.0,0.0,0.0,0.0,0.0,0.0,0.0,0.0,0.0,0.0,0.0,0.0,0.0,0.0,0.0,0.0,0.0,0.0,0.0,0.0,0.0,0.0,0.0,0.0,0.0,0.0,0.0,0.0,0.0,0.0,0.0,0.0,0.0,0.0,0.0,0.0,0.0,0.0,0.0,0.0,0.0,0.0,0.0,0.0,0.0,0.0,0.0,0.0,0.0,0.0,0.0,0.0,0.0,0.0,0.0,0.0,0.0,0.0,0.0,0.0,0.0,0.0,0.0,0.0,0.0,0.0,0.0,0.0,0.0,0.0,0.0,0.0,0.0,0.0,0.0,0.0,0.0,0.0,0.0,0.0,0.0,0.0,0.0,0.0,0.0,0.0,0.0,0.0,0.0,0.0,0.0,0.0,0.0,0.0,0.0,0.0,0.0,0.0,0.0,0.0,0.0,0.0,0.0,0.0,0.0,0.0,0.0,0.0,0.0,0.0,0.0,0.0,0.0,0.0,0.0,0.0,0.0,0.0,0.0,0.0,0.0,0.0,0.0,0.0,0.0,0.0,0.0,0.0,0.0,0.0,0.0,0.0,0.0,0.0,0.0,0.0,0.0,0.0,0.0,0.0,0.0,0.0,0.0,0.0,0.0,0.0,0.0,0.0,0.0,0.0,0.0,0.0,0.0,0.0,0.0,0.0,0.0,0.0,0.0,0.0,0.0,0.0,0.0,0.0,0.0,0.0,0.0,0.0,0.0,0.0,0.0,0.0,0.0,0.0,0.0,0.0,0.0,0.0,0.0,0.0,0.0,0.0,0.0,0.0,0.0,0.0,0.0,0.0,0.0,0.0,0.0,0.0,0.0,0.0,0.0,0.0,0.0,0.0,0.0,0.0,0.0,0.0,0.0,0.0,0.0,0.0,0.0,0.0,0.0,0.0,0.0,0.0,0.0,0.0,0.0,0.0,0.0,0.0,0.0,0.0,0.0,0.0,0.0,0.0,0.0,0.0,0.0,0.0,0.0,0.0,0.0,0.0,0.0,0.0,0.0,0.0,0.0,0.0,0.0,0.0,0.0,0.0,0.0,0.0,0.0,0.0,0.0,0.0,0.0,0.0,0.0,0.0,0.0,0.0,0.0,0.0,0.0,0.0,0.0,0.0,0.0,0.0,0.0,0.0,0.0,0.0,0.0,0.0,0.0,0.0,0.0,0.0,0.0,0.0,0.0,0.0,0.0,0.0,0.0,0.0,0.0,0.0,0.0,0.0,0.0,0.0,0.0,0.0,0.0,0.0,0.0,0.0,0.0,0.0,0.0,0.0,0.0,0.0,0.0,0.0,0.0,0.0,0.0,0.0,0.0,0.0,0.0,0.0,0.0,0.0,0.0,0.0,0.0,0.0,0.0,0.0,0.0,0.0,0.0,0.0,0.0,0.0,0.0,0.0,0.0,0.0,0.0,0.0,0.0,0.0,0.0,0.0,0.0,0.0,0.0,0.0,0.0,0.0,0.0,0.0,0.0,0.0,0.0,0.0,0.0,0.0,0.0,0.0,0.0,0.0,0.0,0.0,0.0,0.0,0.0,0.0,0.0,0.0,0.0,0.0,0.0,0.0,0.0,0.0,0.0,0.0,0.0,0.0,0.0,0.0,0.0,0.0,0.0,0.0,0.0,0.0,0.0,0.0,0.0,0.0,0.0,0.0,0.0,0.0,0.0,0.0,0.0,0.0,0.0,0.0,0.0,0.0,0.0,0.0,0.0,0.0,0.0,0.0,0.0,0.0,0.0,0.0,0.0,0.0,0.0,0.0,0.0,0.0,0.0,0.0,0.0,0.0,0.0,0.0,0.0,0.0,0.0,0.0,0.0,0.0,0.0,0.0,0.0,0.0,0.0,0.0,0.0,0.0,0.0,0.0,0.0,0.0,0.0,0.0,0.0,0.0,0.0,0.0,0.0,0.0,0.0,0.0,0.0,0.0,0.0,0.0,0.0,0.0,0.0,0.0,0.0,0.0,0.0,0.0,0.0,0.0,0.0,0.0,0.0,0.0,0.0,0.0,0.0,0.0,0.0,0.0,0.0,0.0,0.0,0.0,0.0,0.0,0.0,0.0,0.0,0.0,0.0,0.0,0.0,0.0,0.0,0.0,0.0,0.0,0.0,0.0,0.0,0.0,0.0,0.0,0.0,0.0,0.0,0.0,0.0,0.0,0.0,0.0,0.0,0.0,0.0,0.0,0.0,0.0,0.0,0.0,0.0,0.0,0.0,0.0,0.0,0.0,0.0,0.0,0.0,0.0,0.0,0.0,0.0,0.0,0.0,0.0,0.0,0.0,0.0,0.0,0.0,0.0,0.0,0.0,0.0,0.0,0.0,0.0,0.0,0.0,0.0,0.0,0.0,0.0,0.0,0.0,0.0,0.0,0.0,0.0,0.0,0.0,0.0,0.0,0.0,0.0,0.0,0.0,0.0,0.0,0.0,0.0,0.0,0.0,0.0,0.0,0.0,0.0,0.0,0.0,0.0,0.0,0.0,0.0,0.0,0.0,0.0,0.0,0.0,0.0,0.0,0.0,0.0,0.0,0.0,0.0,0.0,0.0,0.0,0.0,0.0,0.0,0.0,0.0,0.0,0.0,0.0,0.0,0.0,0.0,0.0,0.0,0.0,0.0,0.0,0.0,0.0,0.0,0.0,0.0,0.0,0.0,0.0,0.0,0.0,0.0,0.0,0.0,0.0,0.0,0.0,0.0,0.0,0.0,0.0,0.0,0.0,0.0,0.0,0.0,0.0,0.0,0.0,0.0,0.0,0.0,0.0,0.0,0.0,0.0,0.0,0.0,0.0,0.0,0.0,0.0,0.0,0.0,0.0,0.0,0.0,0.0,0.0,0.0,0.0,0.0,0.0,0.0,0.0,0.0,0.0,0.0,0.0,0.0,0.0,0.0,0.0,0.0,0.0,0.0,0.0,0.0,0.0,0.0,0.0,0.0,0.0,0.0,0.0,0.0,0.0,0.0,0.0,0.0,0.0,0.0,0.0,0.0,0.0,0.0,0.0,0.0,0.0,0.0,0.0,0.0,0.0,0.0,0.0,0.0,0.0,0.0,0.0,0.0,0.0,0.0,0.0,0.0,0.0,0.0,0.0,0.0,0.0,0.0,0.0,0.0,0.0,0.0,0.0,0.0,0.0,0.0,0.0,0.0,0.0,0.0,0.0,0.0,0.0,0.0,0.0,0.0,0.0,0.0,0.0,0.0,0.0,0.0,0.0,0.0,0.0,0.0,0.0,0.0,0.0,0.0,0.0,0.0,-1.6114,-1.6143,0.0,0.0,0.0,0.0,0.0,0.0,0.0,0.0,0.0,0.0,0.0,0.0,0.0,0.0,0.0,0.0,0.0,0.0,0.0,0.0,0.0,0.0,0.0,0.0,0.0,0.0,0.0,0.0,0.0,0.0,0.0,0.0,0.0,0.0,0.0,0.0,0.0,0.0,0.0,0.0,0.0,0.0,0.0,0.0,0.0,0.0,0.0,0.0,0.0,0.0,0.0,0.0,0.0,0.0,0.0,0.0,0.0,0.0,0.0,0.0,0.0,0.0,0.0,0.0,0.0,0.0,0.0,0.0,0.0,0.0,0.0,0.0,0.0,0.0,0.0,0.0,0.0,0.0,0.0,0.0,0.0,0.0,0.0,0.0,0.0,0.0,0.0,0.0,0.0,0.0,0.0,0.0,0.0,0.0,0.0,0.0,0.0,0.0,0.0,0.0,0.0,0.0,0.0,0.0,0.0,0.0,0.0,0.0,0.0,0.0,0.0,0.0,0.0,0.0,-1.6308,-1.601,0.0,0.0,0.0,0.0,0.0,0.0,0.0,0.0,0.0,0.0,0.0,0.0,0.0,0.0,0.0,0.0,0.0,0.0,0.0,0.0,0.0,0.0,0.0,0.0,0.0,0.0,0.0,0.0,0.0,0.0,0.0,0.0,0.0,0.0,0.0,0.0,0.0,0.0,0.0,0.0,0.0,0.0,0.0,0.0,0.0,0.0,0.0,0.0,0.0,0.0,0.0,0.0,0.0,0.0,0.0,0.0,0.0,0.0,0.0,0.0,0.0,0.0,0.0,0.0,0.0,0.0,0.0,0.0,0.0,0.0,0.0,0.0,0.0,0.0,0.0,0.0,0.0,0.0,0.0,0.0,0.0,0.0,0.0,0.0,0.0,0.0,0.0,0.0,0.0,0.0,0.0,0.0,0.0,0.0,0.0,0.0,0.0,0.0,0.0,0.0,0.0,0.0,0.0,0.0,0.0,0.0,0.0,0.0,-1.771,-1.8066,-1.9042,-1.9201,-1.9014,-1.8452,-1.6713,-1.5979,-1.5947,-1.5947,0.0,0.0,0.0,0.0,0.0,0.0,0.0,0.0,0.0,0.0,0.0,0.0,0.0,0.0,0.0,0.0,0.0,0.0,0.0,0.0,0.0,0.0,0.0,0.0,0.0,0.0,0.0,0.0,0.0,0.0,0.0,0.0,0.0,0.0,0.0,0.0,0.0,0.0,0.0,0.0,0.0,0.0,0.0,0.0,0.0,0.0,0.0,0.0,0.0,0.0,0.0,0.0,0.0,0.0,0.0,0.0,0.0,0.0,0.0,0.0,0.0,0.0,0.0,0.0,0.0,0.0,0.0,0.0,0.0,0.0,0.0,0.0,0.0,0.0,0.0,0.0,0.0,0.0,0.0,0.0,0.0,0.0,0.0,0.0,0.0,0.0,-1.3173,-1.5068,0.0,0.0,0.0,0.0,0.0,0.0,0.0,0.0,0.0,0.0,0.0,0.0,0.0,-1.8546,-1.8108,-1.8977,-1.9206,-1.8754,-1.8593,-1.8757,-1.9167,-1.9192,-1.9163,-1.9066,-1.88,0.0,-1.6996,-1.6996,0.0,0.0,0.0,0.0,0.0,0.0,0.0,0.0,0.0,0.0,0.0,0.0,0.0,0.0,0.0,0.0,0.0,0.0,0.0,0.0,0.0,0.0,0.0,0.0,0.0,0.0,0.0,0.0,0.0,0.0,0.0,0.0,0.0,0.0,0.0,0.0,0.0,0.0,0.0,0.0,0.0,0.0,0.0,0.0,0.0,0.0,0.0,0.0,0.0,0.0,0.0,0.0,0.0,0.0,0.0,0.0,0.0,0.0,0.0,0.0,0.0,0.0,0.0,0.0,0.0,0.0,0.0,0.0,0.0,0.0,0.0,0.0,0.0,0.0,0.0,0.0,0.0,0.0,0.0,0.0,0.0,0.0,0.0,0.0,0.0,-1.5794,-1.6136,-1.5381,-1.7142,-1.8439,0.0,0.0,0.0,0.0,0.0,0.0,0.0,0.0,0.0,-1.901,-1.9817,-2.0291,-2.041,-2.0872,-2.099,-2.0815,-2.0512,-2.0553,-2.0883,-2.0615,-2.0499,-2.0557,-2.0456,-1.989,-1.8951,-1.8305,-1.7927,-1.77,0.0,0.0,0.0,0.0,-1.5593,-1.5217,0.0,0.0,0.0,0.0,0.0,0.0,0.0,0.0,0.0,0.0,0.0,0.0,0.0,0.0,0.0,-1.4945,0.0,0.0,0.0,0.0,0.0,0.0,0.0,0.0,0.0,0.0,0.0,0.0,0.0,0.0,0.0,0.0,0.0,0.0,0.0,0.0,0.0,0.0,0.0,0.0,0.0,0.0,0.0,0.0,0.0,0.0,0.0,0.0,0.0,0.0,0.0,0.0,0.0,0.0,0.0,0.0,0.0,0.0,0.0,0.0,0.0,0.0,0.0,0.0,0.0,0.0,0.0,0.0,0.0,0.0,0.0,0.0,0.0,0.0,0.0,0.0,0.0,-1.7241,-1.771,-1.6102,-1.7848,-1.9169,0.0,0.0,0.0,0.0,0.0,0.0,-1.8368,-1.8931,-1.9761,-2.0891,-2.1491,-2.2021,-2.2428,-2.2568,-2.2702,-2.2813,-2.2504,-2.2534,-2.2841,-2.2491,-2.2242,-2.2119,-2.2016,-2.1513,-2.0701,-1.9501,-1.884,-1.8517,-1.7746,-1.7425,-1.7347,-1.7089,-1.6732,-1.6438,0.0,0.0,0.0,0.0,0.0,0.0,0.0,0.0,0.0,0.0,0.0,0.0,0.0,0.0,-1.663,-1.7537,-1.6835,-1.638,0.0,0.0,0.0,0.0,0.0,0.0,0.0,0.0,0.0,0.0,0.0,0.0,0.0,0.0,0.0,0.0,0.0,0.0,0.0,0.0,0.0,0.0,0.0,0.0,0.0,0.0,0.0,0.0,0.0,0.0,0.0,0.0,0.0,0.0,0.0,0.0,0.0,0.0,0.0,0.0,0.0,0.0,0.0,0.0,0.0,0.0,0.0,0.0,0.0,0.0,0.0,0.0,0.0,0.0,0.0,0.0,0.0,0.0,0.0,0.0,0.0,-1.7354,-1.7973,0.0,0.0,0.0,0.0,-1.9451,-2.0127,-2.0669,-2.0989,-2.1147,-2.1753,-2.2831,-2.3186,-2.3557,-2.3898,-2.4137,-2.4278,-2.4309,-2.4216,-2.4326,-2.4667,-2.462,-2.4228,-2.3499,-2.3482,-2.2897,-2.1824,-2.0346,-1.9735,-1.961,-1.8579,-1.8592,-1.9037,-1.8104,-1.7767,-1.7768,0.0,0.0,0.0,0.0,0.0,0.0,0.0,0.0,0.0,0.0,0.0,0.0,0.0,-1.6062,-1.6052,-1.6943,-1.6201,-1.5713,-1.5768,0.0,0.0,0.0,0.0,0.0,0.0,0.0,0.0,0.0,0.0,0.0,0.0,0.0,0.0,0.0,0.0,0.0,0.0,0.0,0.0,0.0,0.0,0.0,0.0,0.0,0.0,0.0,0.0,0.0,0.0,0.0,0.0,0.0,0.0,0.0,0.0,0.0,0.0,0.0,0.0,0.0,0.0,0.0,0.0,0.0,0.0,0.0,0.0,0.0,0.0,0.0,0.0,0.0,0.0,0.0,0.0,0.0,0.0,0.0,0.0,-1.8806,-1.9275,0.0,-1.9908,-2.0002,-1.9956,-1.9704,-1.9716,-1.9782,-1.9913,-2.1075,-2.1969,-2.2541,-2.3592,-2.4547,-2.5357,-2.5436,-2.5497,-2.5497,-2.5483,-2.5274,-2.4918,-2.4918,-2.4763,-2.4505,-2.4447,-2.4218,-2.3799,-2.3015,-2.1841,-2.048,-1.9687,-1.939,-1.9386,-1.9041,-1.8917,-1.8931,0.0,0.0,0.0,0.0,0.0,0.0,0.0,0.0,0.0,0.0,0.0,-1.5129,-1.6063,-1.6155,-1.6498,-1.7368,-1.6648,-1.6145,-1.614,0.0,0.0,0.0,0.0,0.0,0.0,0.0,0.0,0.0,0.0,0.0,0.0,0.0,0.0,0.0,0.0,0.0,0.0,0.0,0.0,0.0,0.0,0.0,-2.3365,0.0,0.0,0.0,0.0,0.0,0.0,0.0,0.0,0.0,0.0,0.0,0.0,0.0,0.0,0.0,0.0,0.0,0.0,0.0,0.0,0.0,0.0,0.0,0.0,0.0,0.0,0.0,0.0,0.0,0.0,0.0,0.0,0.0,0.0,0.0,-2.0059,-2.002,-2.0527,-2.0765,-2.0446,-2.0667,-2.0717,-2.0352,-2.0536,-2.0858,-2.1338,-2.2508,-2.3401,-2.3984,-2.4927,-2.5788,-2.6506,-2.6506,-2.6506,-2.6506,-2.6506,-2.6247,-2.5781,-2.5781,-2.5626,-2.5385,-2.5326,-2.5141,-2.4918,-2.4645,-2.3622,-2.2083,-2.1133,-2.0623,-2.035,-2.0,-1.9857,-1.9919,0.0,0.0,0.0,0.0,0.0,0.0,0.0,0.0,0.0,0.0,0.0,-1.4293,-1.5202,-1.6764,-1.8111,-1.9032,-1.8239,-1.7722,-1.7785,-1.5384,0.0,0.0,0.0,0.0,0.0,0.0,0.0,0.0,0.0,0.0,0.0,0.0,0.0,0.0,0.0,0.0,0.0,0.0,0.0,0.0,0.0,0.0,-2.3983,0.0,0.0,0.0,0.0,0.0,0.0,0.0,0.0,0.0,0.0,0.0,0.0,0.0,0.0,0.0,0.0,0.0,0.0,0.0,0.0,0.0,0.0,0.0,0.0,0.0,0.0,0.0,0.0,0.0,0.0,0.0,0.0,0.0,-1.9767,-2.098,-2.1556,-2.0956,-2.1712,-2.1682,-2.0083,-2.1729,-2.2489,-2.1549,-2.2736,-2.4149,-2.5522,-2.562,-2.6121,-2.723,-2.7247,-2.7247,-2.723,-2.7247,-2.7247,-2.7247,-2.7282,-2.7299,-2.7299,-2.7299,-2.6868,-2.6143,-2.6143,-2.573,-2.5074,-2.5074,-2.4893,-2.4425,-2.2851,-2.2213,-2.2066,-2.0931,-2.061,-2.0693,0.0,0.0,0.0,0.0,0.0,0.0,0.0,0.0,0.0,0.0,-1.3957,-1.4955,-1.5265,-1.629,-1.7523,-1.8974,-1.6619,-1.5831,-1.7674,0.0,0.0,0.0,0.0,0.0,0.0,0.0,0.0,0.0,0.0,0.0,0.0,0.0,0.0,0.0,0.0,0.0,0.0,0.0,0.0,0.0,0.0,0.0,-2.3905,0.0,0.0,0.0,0.0,0.0,0.0,0.0,0.0,0.0,0.0,0.0,0.0,0.0,0.0,0.0,0.0,0.0,0.0,0.0,0.0,0.0,0.0,0.0,0.0,0.0,0.0,0.0,0.0,0.0,0.0,0.0,0.0,-2.1098,-2.1552,-2.1503,-2.1665,-2.2255,-2.2506,-2.2638,-2.2473,-2.2736,-2.3014,-2.3257,-2.3862,-2.4637,-2.5554,-2.5843,-2.6103,-2.6437,-2.6437,-2.6178,-2.5643,-2.6161,-2.6437,-2.6437,-2.7023,-2.7299,-2.7299,-2.7299,-2.7178,-2.6971,-2.6971,-2.6851,-2.6661,-2.6661,-2.6613,-2.6282,-2.3978,-2.2778,-2.2231,-2.1408,-2.0958,-2.0794,0.0,0.0,0.0,0.0,0.0,0.0,0.0,0.0,0.0,0.0,-1.3388,-1.4391,-1.3747,-1.511,-1.631,-1.6899,-1.5482,-1.5181,-1.6653,0.0,0.0,0.0,0.0,0.0,0.0,0.0,0.0,0.0,0.0,0.0,0.0,0.0,0.0,0.0,0.0,0.0,0.0,0.0,0.0,0.0,0.0,0.0,-2.5063,-2.4754,-2.4271,-2.3554,-2.2546,-2.2143,-2.1944,-2.0856,0.0,0.0,0.0,0.0,0.0,0.0,0.0,0.0,0.0,0.0,0.0,0.0,0.0,0.0,0.0,0.0,0.0,0.0,0.0,0.0,0.0,0.0,0.0,0.0,-2.1421,-2.2613,-2.4158,-2.332,-2.2939,-2.3923,-2.4384,-2.4644,-2.4674,-2.4993,-2.5313,-2.5598,-2.61,-2.6638,-2.7195,-2.741,-2.7385,-2.7075,-2.7368,-2.7178,-2.6437,-2.6851,-2.7057,-2.7075,-2.7213,-2.7299,-2.7299,-2.7299,-2.7299,-2.7299,-2.7299,-2.7299,-2.7299,-2.7299,-2.7299,-2.706,0.0,0.0,0.0,0.0,-2.1402,-2.1261,0.0,0.0,0.0,0.0,0.0,0.0,0.0,0.0,0.0,0.0,0.0,-1.3282,-1.1648,-1.35,-1.4646,-1.4057,-1.4538,-1.4958,0.0,0.0,0.0,0.0,0.0,0.0,0.0,0.0,0.0,0.0,0.0,0.0,0.0,0.0,0.0,0.0,0.0,0.0,0.0,0.0,0.0,0.0,0.0,0.0,-2.699,-2.7595,-2.6536,-2.4706,-2.4593,-2.3869,-2.2946,-2.2678,0.0,0.0,0.0,0.0,0.0,0.0,0.0,0.0,0.0,0.0,0.0,0.0,0.0,0.0,0.0,0.0,0.0,0.0,0.0,0.0,0.0,0.0,0.0,0.0,-2.3058,-2.4028,-2.6912,-2.5979,-2.5241,-2.5884,-2.6755,-2.7108,-2.6651,-2.7704,-2.8353,-2.8117,-2.8694,-2.9227,-2.9627,-2.9541,0.0,0.0,0.0,-2.8989,-2.8144,-2.823,-2.823,-2.8127,-2.7558,-2.7299,-2.7299,-2.7299,-2.7299,-2.7299,-2.7299,-2.7299,-2.7299,-2.7299,-2.7247,-2.6974,-2.5203,-2.4452,-2.4184,-2.2445,-2.1797,-2.1781,0.0,0.0,0.0,0.0,0.0,0.0,0.0,0.0,0.0,-1.0379,-1.2367,-1.3431,-1.1956,-1.2053,-1.2711,-1.3895,-1.2927,-1.2824,0.0,0.0,0.0,0.0,0.0,0.0,0.0,0.0,0.0,0.0,0.0,0.0,0.0,0.0,0.0,0.0,0.0,0.0,0.0,0.0,0.0,0.0,0.0,0.0,-2.8793,-2.8128,-2.7145,-2.6016,-2.519,-2.4569,-2.3862,-2.2391,-2.189,-2.1789,-2.1254,0.0,0.0,0.0,0.0,0.0,0.0,0.0,0.0,0.0,0.0,0.0,0.0,0.0,0.0,0.0,0.0,0.0,0.0,0.0,0.0,-2.2556,-2.4669,-2.6693,-2.7833,-2.8384,-2.8515,-2.8135,-2.8009,-2.8117,-2.8577,-2.8528,-2.8747,-2.9365,-2.9403,-2.973,-3.0491,-2.9868,-2.9437,-2.9299,-2.8851,-2.7954,-2.6575,-2.7195,-2.7195,-2.6557,-2.7057,0.0,-2.7299,-2.7299,-2.7299,-2.7299,-2.7299,-2.7299,-2.7299,-2.7299,-2.6919,-2.6216,-2.4982,-2.4147,-2.346,-2.2262,-2.1797,-2.184,0.0,0.0,0.0,0.0,0.0,0.0,0.0,0.0,0.0,0.0,-1.1782,-1.2807,-1.1212,-1.1325,-1.1847,-1.2687,-1.2779,0.0,0.0,0.0,0.0,0.0,0.0,0.0,0.0,0.0,0.0,0.0,0.0,0.0,0.0,0.0,0.0,0.0,0.0,0.0,0.0,0.0,0.0,0.0,0.0,0.0,-3.2012,-3.1048,-2.9479,-2.7699,-2.7189,-2.6263,-2.5093,-2.4014,-2.3017,-2.22,-2.1926,-2.0827,-1.9864,0.0,0.0,0.0,0.0,0.0,0.0,0.0,0.0,0.0,0.0,0.0,0.0,0.0,0.0,-2.0332,0.0,0.0,-2.4261,-2.5631,-2.7379,-2.8958,-3.0185,-3.0607,-3.0622,-3.0099,-2.9873,-2.9985,-3.0611,-3.0422,-3.0472,-3.0924,-3.0855,-3.082,-3.0855,-3.082,-3.0248,-2.9105,-2.9451,-2.8914,-2.7373,-2.7754,-2.7754,-2.7355,-2.7373,-2.739,-2.739,-2.739,-2.739,-2.7421,-2.7539,-2.7569,-2.7557,-2.7719,-2.7542,-2.7113,-2.6191,-2.4934,-2.3488,-2.257,-2.226,-2.2271,0.0,0.0,0.0,0.0,0.0,0.0,0.0,0.0,0.0,0.0,0.0,-1.169,-1.0042,-1.0556,-1.1157,0.0,0.0,0.0,0.0,0.0,0.0,0.0,0.0,0.0,0.0,0.0,0.0,0.0,0.0,0.0,0.0,0.0,0.0,0.0,0.0,0.0,0.0,0.0,0.0,0.0,0.0,0.0,-3.4585,-3.3847,-3.1823,-2.9292,-2.8953,-2.7482,-2.5687,-2.5577,-2.3958,-2.2118,-2.2695,-2.1521,-2.006,-2.0699,-2.043,0.0,0.0,0.0,0.0,0.0,0.0,0.0,0.0,0.0,-2.1946,-2.241,-2.2176,-2.2615,-2.495,-2.5806,-2.6931,-2.9274,-3.0163,-3.1002,-3.2427,-3.2268,-3.1842,-3.1396,-3.1517,-3.1731,-3.2108,-3.2108,-3.2108,-3.2161,-3.2108,-3.1794,-3.1185,-3.1742,-3.115,-2.9114,-3.0263,-3.0209,-2.8722,-2.8704,-2.8648,-2.8535,-2.794,-2.7642,-2.7642,-2.7642,-2.7642,-2.7672,-2.7869,-2.7954,-2.7915,-2.8129,-2.8174,-2.7993,-2.7227,-2.5735,-2.3902,-2.3285,-2.292,-2.2782,0.0,0.0,0.0,0.0,0.0,0.0,0.0,0.0,0.0,0.0,0.0,0.0,0.0,0.0,0.0,0.0,0.0,0.0,0.0,0.0,0.0,0.0,0.0,0.0,0.0,0.0,0.0,0.0,0.0,0.0,0.0,0.0,0.0,0.0,0.0,0.0,0.0,0.0,0.0,0.0,0.0,0.0,-3.4146,-3.3953,-3.2444,-3.0309,-2.8815,-2.6577,-2.4426,-2.504,-2.3847,-2.2329,-2.3753,-2.2815,-2.1327,-2.198,0.0,-1.9947,-2.0477,-2.116,-2.1974,-2.3079,-2.3506,-2.3968,0.0,0.0,-2.6515,-2.6397,-2.6643,-2.7142,-2.7985,-2.9059,-3.0133,-3.1175,-3.2139,-3.2807,-3.3017,-3.2649,-3.2056,-3.132,-3.1829,-3.2319,-3.2354,-3.2267,-3.2232,-3.2354,-3.2196,-3.2073,-3.2057,-3.2091,-3.1673,-3.0663,-3.0802,-3.0291,-2.9059,-2.9041,-2.8816,-2.8318,-2.8246,-2.8219,-2.8219,-2.8219,-2.8219,-2.8219,-2.8246,-2.8246,-2.8246,-2.8272,-2.7859,-2.7158,-2.6357,-2.5464,-2.4575,-2.4378,-2.3777,-2.3063,0.0,0.0,0.0,0.0,0.0,0.0,0.0,0.0,0.0,0.0,0.0,0.0,0.0,0.0,0.0,0.0,0.0,0.0,0.0,0.0,0.0,0.0,0.0,0.0,0.0,0.0,0.0,0.0,0.0,0.0,0.0,0.0,0.0,0.0,0.0,0.0,0.0,0.0,0.0,0.0,0.0,0.0,-3.3282,-3.2256,-3.06,-2.8844,-2.897,-2.7326,0.0,0.0,-2.4399,-2.3334,-2.3741,-2.3164,-2.2389,-2.2712,-2.2038,0.0,-2.1389,-2.1234,-2.1565,0.0,-2.4343,-2.4921,-2.6629,-2.7644,-2.8427,-2.9242,-2.9079,-2.9383,-3.1295,-3.1743,-3.2049,0.0,-3.333,-3.3554,-3.3087,-3.2284,-3.1581,-3.123,-3.0815,-3.0494,-3.0352,-3.1126,-3.1477,-3.1089,-3.1961,-3.2343,-3.1918,-3.2453,-3.2242,-3.1005,-3.1403,-3.0945,-2.9529,-2.9511,-2.9152,-2.8428,-2.8428,-2.8428,-2.8428,-2.8428,-2.8504,-2.867,-2.8131,-2.8007,-2.8132,-2.7647,-2.7244,-2.6958,-2.6609,-2.6176,-2.5601,-2.441,-2.3741,-2.3392,0.0,0.0,0.0,0.0,0.0,0.0,0.0,0.0,0.0,0.0,0.0,0.0,0.0,0.0,0.0,0.0,0.0,0.0,0.0,0.0,0.0,0.0,0.0,0.0,0.0,0.0,0.0,0.0,0.0,0.0,0.0,0.0,0.0,0.0,0.0,0.0,0.0,0.0,0.0,0.0,0.0,0.0,-3.2102,-3.0614,-2.8868,-2.7338,-2.8315,-2.6883,0.0,0.0,-2.4468,-2.3584,-2.3953,-2.3665,-2.3189,-2.3177,-2.265,-2.2085,-2.2158,0.0,0.0,-2.5364,-2.6301,-2.6987,-2.8882,-2.9993,-3.0891,-3.1781,-3.1455,-3.155,-3.339,-3.3112,-3.2911,-3.3658,-3.3674,-3.3401,-3.2962,-3.207,-3.1172,-3.0441,-2.9585,-2.8727,-2.7908,-2.9541,-3.0653,-3.0641,-3.1791,-3.238,-3.2133,-3.2895,-3.2777,-3.1674,-3.219,-3.1873,-3.0581,-3.0581,-3.0079,-2.9071,-2.9071,-2.8943,-2.8742,-2.8742,-2.8769,-2.8706,-2.8033,-2.7754,-2.7714,-2.71,-2.6729,-2.6581,-2.6581,-2.6319,-2.577,-2.4379,-2.3925,-2.4006,0.0,0.0,0.0,0.0,0.0,0.0,0.0,0.0,0.0,0.0,0.0,0.0,0.0,0.0,0.0,0.0,0.0,0.0,0.0,0.0,0.0,0.0,0.0,0.0,0.0,0.0,0.0,0.0,0.0,0.0,0.0,0.0,0.0,0.0,0.0,0.0,0.0,0.0,0.0,0.0,0.0,0.0,-3.0567,-2.9525,-2.8047,-2.6512,-2.6352,0.0,0.0,0.0,-2.3591,-2.2466,-2.4726,-2.4626,0.0,-2.3441,-2.2611,-2.185,0.0,0.0,-2.5823,-2.8977,-3.0274,-3.1219,-3.279,-3.4064,-3.4777,-3.4206,-3.4353,-3.4323,-3.3617,-3.2695,-3.2457,-3.3764,-3.2858,-3.2138,-3.2568,-3.2355,-3.1173,-2.8504,-2.8456,-2.7689,0.0,-2.7629,-3.004,-3.1913,-3.1841,-3.2199,-3.3219,-3.3273,-3.3273,-3.3248,-3.3237,-3.3001,-3.2515,-3.2515,-3.1832,-3.0556,-3.0556,-3.0129,-2.9368,-2.9368,-2.8922,-2.8123,-2.8104,-2.764,-2.6935,-2.6916,-2.6451,-2.5745,-2.5745,-2.5262,-2.4538,-2.4482,-2.4764,-2.5045,0.0,0.0,0.0,0.0,0.0,0.0,0.0,0.0,0.0,0.0,0.0,0.0,0.0,0.0,0.0,0.0,0.0,0.0,0.0,0.0,0.0,0.0,0.0,0.0,0.0,0.0,0.0,0.0,0.0,0.0,0.0,0.0,0.0,0.0,0.0,0.0,0.0,0.0,0.0,0.0,0.0,0.0,-2.7925,-2.5841,-2.4334,-2.3311,0.0,0.0,0.0,0.0,0.0,0.0,-2.4016,-2.4339,0.0,-2.3828,-2.4114,-2.4635,-2.4653,0.0,-2.8245,-3.0876,-3.2155,-3.3247,-3.5236,-3.5862,-3.5776,-3.4907,-3.3466,-3.2223,-3.1658,-3.0628,-3.0106,-3.0998,-3.1199,-3.1299,-3.1495,-3.1511,-3.0937,-2.9481,-2.862,0.0,0.0,0.0,0.0,-2.9699,-3.0838,-3.2137,-3.3616,-3.391,-3.4037,-3.4037,-3.3512,-3.2889,-3.2205,-3.163,-3.0838,-2.9882,-2.9882,-2.9712,-2.9392,-2.8852,-2.8423,-2.803,-2.6972,-2.6358,-2.6061,-2.554,-2.515,-2.4908,-2.4908,-2.5057,-2.5224,-2.4704,-2.4948,-2.5412,0.0,0.0,0.0,0.0,0.0,0.0,0.0,0.0,0.0,0.0,0.0,0.0,0.0,0.0,0.0,0.0,0.0,0.0,0.0,0.0,0.0,0.0,0.0,0.0,0.0,0.0,0.0,0.0,0.0,0.0,0.0,0.0,0.0,0.0,0.0,0.0,0.0,0.0,0.0,0.0,0.0,0.0,-2.4467,-2.3091,-2.2211,0.0,0.0,0.0,0.0,0.0,0.0,0.0,-2.3684,-2.4226,-2.4639,-2.3803,-2.5127,-2.69,-2.6868,-2.8791,-3.1322,-3.3692,-3.4691,-3.5443,-3.684,-3.6456,-3.5507,-3.4411,-3.2119,-3.0104,-2.9337,-2.8099,-2.7413,-2.8057,-2.839,-2.8876,-2.9667,-3.0222,-3.0336,-2.9703,-2.9255,-2.8847,0.0,0.0,0.0,-2.9287,-3.0925,-3.2533,-3.4,-3.4269,-3.4386,-3.4386,-3.39,-3.3377,-3.2854,-3.2294,-3.1472,-3.0389,-3.0071,-2.9752,-2.9414,-2.8594,-2.8053,-2.7661,-2.6321,-2.5558,-2.526,-2.4756,-2.4515,-2.4498,-2.4534,-2.4832,-2.5205,-2.4684,-2.4833,-2.5205,0.0,0.0,0.0,0.0,0.0,0.0,0.0,0.0,0.0,0.0,0.0,0.0,0.0,0.0,0.0,0.0,0.0,0.0,0.0,0.0,0.0,0.0,0.0,0.0,0.0,0.0,0.0,0.0,0.0,0.0,0.0,0.0,0.0,0.0,0.0,0.0,0.0,0.0,0.0,0.0,0.0,0.0,-2.057,-2.1277,0.0,0.0,0.0,0.0,0.0,0.0,0.0,0.0,0.0,-2.4445,-2.4699,-2.369,-2.5841,-2.8671,-2.9098,-3.1834,-3.5088,-3.722,-3.7785,-3.7766,-3.7664,-3.6064,-3.4246,-3.2882,-3.0515,-2.8205,0.0,0.0,-2.463,-2.5206,-2.4894,-2.5282,-2.742,-2.8885,-2.9642,0.0,0.0,0.0,0.0,0.0,0.0,-3.0858,0.0,-3.3282,-3.4348,-3.4465,-3.4465,-3.4427,-3.4371,-3.4353,-3.4353,-3.4278,-3.3433,-3.192,-3.1061,-3.0239,-2.9474,-2.8633,-2.783,-2.7045,-2.613,-2.5308,-2.4599,-2.4599,-2.4564,-2.4512,-2.4582,-2.4564,-2.4512,-2.4512,-2.4512,-2.4513,0.0,0.0,0.0,0.0,0.0,0.0,0.0,0.0,0.0,0.0,0.0,0.0,0.0,0.0,0.0,0.0,0.0,0.0,0.0,0.0,0.0,0.0,0.0,0.0,0.0,0.0,0.0,0.0,0.0,0.0,0.0,0.0,0.0,0.0,0.0,0.0,0.0,0.0,0.0,0.0,0.0,0.0,-2.0234,0.0,0.0,0.0,0.0,0.0,0.0,0.0,0.0,0.0,0.0,-2.558,-2.631,-2.7172,-2.9726,-3.222,-3.2137,-3.5007,-3.8133,-3.8608,-3.8936,-3.8933,-3.8221,-3.6358,-3.4076,-3.1766,-2.8895,-2.6257,0.0,0.0,0.0,-2.4023,-2.5412,0.0,-2.8913,-3.0487,0.0,-3.2246,0.0,-3.2687,-3.2441,-3.2966,0.0,0.0,-3.3328,-3.3549,-3.4435,-3.5136,-3.5214,-3.4558,-3.3977,-3.3658,-3.3658,-3.242,-3.1575,-3.1163,-3.0358,-2.9814,-2.9532,-2.8072,-2.7287,-2.7027,-2.5533,-2.4785,-2.4599,-2.4599,-2.4599,-2.4564,-2.458,-2.4599,-2.4564,-2.4564,-2.4564,-2.4564,0.0,0.0,0.0,0.0,0.0,0.0,0.0,0.0,0.0,0.0,0.0,0.0,0.0,0.0,0.0,0.0,0.0,0.0,0.0,0.0,0.0,0.0,0.0,0.0,0.0,0.0,0.0,0.0,0.0,0.0,0.0,0.0,0.0,0.0,0.0,0.0,0.0,0.0,0.0,0.0,0.0,0.0,0.0,0.0,0.0,0.0,0.0,0.0,0.0,0.0,0.0,-2.5664,-2.641,-2.7406,-2.8628,-3.0265,0.0,-3.4464,-3.4656,-3.7143,-3.9664,-3.9524,-3.9062,-3.8297,-3.7043,-3.4578,-3.1845,-2.9305,-2.6744,0.0,-2.2758,-2.279,0.0,0.0,0.0,0.0,-2.8275,-2.9683,-3.1335,0.0,-3.4264,0.0,-3.4996,-3.5428,-3.5691,0.0,-3.4918,-3.4633,-3.5102,-3.5237,-3.5108,-3.462,-3.4256,-3.4051,-3.4051,-3.3028,-3.2161,-3.1429,-3.0978,-3.0358,-2.9589,-2.792,-2.7134,-2.7043,-2.5375,-2.4645,-2.4645,-2.4645,-2.4647,-2.4631,-2.4629,-2.4647,-2.4631,-2.4631,-2.4631,-2.465,0.0,0.0,0.0,0.0,0.0,0.0,0.0,0.0,0.0,0.0,0.0,0.0,0.0,0.0,0.0,0.0,0.0,0.0,0.0,0.0,0.0,0.0,0.0,0.0,0.0,0.0,0.0,0.0,0.0,0.0,0.0,0.0,0.0,0.0,0.0,0.0,0.0,0.0,0.0,0.0,0.0,0.0,0.0,0.0,0.0,0.0,0.0,0.0,0.0,0.0,-2.4213,-2.6197,-2.7769,-2.9464,-3.1207,-3.2938,-3.4681,-3.6136,-3.6781,-3.8692,-4.0444,-4.0099,-3.8686,-3.6936,-3.5154,-3.1976,-2.877,-2.6507,0.0,-2.2935,-2.149,-2.1876,-2.218,-2.1431,0.0,-2.3756,-2.6951,-2.8212,-3.0246,-3.4156,-3.5396,-3.628,-3.7224,-3.7182,-3.7186,-3.7322,-3.6453,-3.5919,-3.5897,-3.5184,-3.4736,-3.4626,-3.4831,-3.4926,-3.4926,-3.4658,-3.3708,-3.2126,-3.2032,-3.1129,-2.9476,-2.7918,-2.7148,-2.6942,-2.5383,-2.4707,-2.4707,-2.4707,-2.4711,-2.4698,-2.4692,-2.4695,-2.4698,-2.4698,-2.4698,-2.4682,0.0,0.0,0.0,0.0,0.0,0.0,0.0,0.0,0.0,0.0,0.0,0.0,0.0,0.0,0.0,0.0,0.0,0.0,0.0,0.0,0.0,0.0,0.0,0.0,0.0,0.0,0.0,0.0,0.0,0.0,0.0,0.0,0.0,0.0,0.0,0.0,0.0,0.0,0.0,0.0,0.0,0.0,0.0,0.0,0.0,0.0,0.0,0.0,0.0,0.0,-2.453,-2.7823,-2.8791,-3.0768,-3.3064,-3.4739,-3.6903,-3.8722,-3.8739,-4.0454,-4.1914,-4.0461,-3.8765,-3.6844,-3.4453,-3.0829,0.0,0.0,-2.3853,-2.2414,-2.1538,-2.1972,-2.2445,-2.2356,0.0,0.0,0.0,0.0,-3.1846,0.0,-3.553,-3.6666,-3.8201,-3.7688,0.0,0.0,-3.7012,-3.6036,-3.5897,-3.5766,-3.5421,-3.4869,-3.498,-3.5064,-3.5064,-3.438,-3.3458,-3.2333,-3.1669,-3.0409,-2.8576,-2.7636,-2.6829,-2.6151,-2.5139,-2.4707,-2.4707,-2.4707,-2.4692,-2.4692,-2.4707,-2.4692,-2.4692,-2.4692,-2.4692,-2.4692,0.0,0.0,0.0,0.0,0.0,0.0,0.0,0.0,0.0,0.0,0.0,0.0,0.0,0.0,0.0,0.0,0.0,0.0,0.0,0.0,0.0,0.0,0.0,0.0,0.0,0.0,0.0,0.0,0.0,0.0,0.0,0.0,0.0,0.0,0.0,0.0,0.0,0.0,0.0,0.0,0.0,0.0,0.0,0.0,0.0,0.0,0.0,0.0,0.0,0.0,-2.399,-2.7123,-2.9284,-3.1447,-3.3568,-3.5747,-3.7196,-3.8279,-3.9136,-4.0704,-4.1724,-4.0004,-3.7852,-3.5496,-3.3009,0.0,0.0,0.0,-2.3133,-2.222,-2.0995,0.0,0.0,0.0,0.0,0.0,0.0,0.0,0.0,0.0,-3.5436,-3.6748,0.0,-3.8137,-3.8194,-3.823,-3.6993,-3.6235,-3.6178,-3.5661,-3.5266,-3.5016,-3.4889,-3.4906,-3.5098,-3.4194,-3.3291,-3.2387,-3.1673,-3.056,-2.9147,-2.7881,-2.7059,-2.6547,-2.5252,-2.4707,-2.4707,-2.4707,-2.4707,-2.4707,-2.4707,-2.4707,-2.4707,-2.4707,-2.4707,-2.4707,0.0,0.0,0.0,0.0,0.0,0.0,0.0,0.0,0.0,0.0,0.0,0.0,0.0,0.0,0.0,0.0,0.0,0.0,0.0,0.0,0.0,0.0,0.0,0.0,0.0,0.0,0.0,0.0,0.0,0.0,0.0,0.0,0.0,0.0,0.0,0.0,0.0,0.0,0.0,0.0,0.0,0.0,0.0,0.0,0.0,0.0,0.0,0.0,0.0,0.0,-2.2858,-2.546,-2.8346,-3.0771,-3.2996,-3.5192,-3.6311,-3.7204,-3.8904,-4.0415,-4.1055,-3.9197,-3.6651,-3.3923,-3.1336,-2.7542,0.0,0.0,-2.2374,-2.1769,-2.0417,0.0,-2.1998,0.0,0.0,0.0,0.0,0.0,0.0,0.0,-3.4703,0.0,-3.7288,-3.791,0.0,-3.7491,-3.6699,-3.6205,-3.6126,-3.5413,-3.5069,-3.5162,-3.4944,-3.4867,-3.494,-3.4184,-3.3246,-3.2224,-3.1684,-3.0734,-2.9364,-2.8002,-2.715,-2.6634,-2.5286,-2.4707,-2.4707,-2.4707,-2.4707,-2.4707,-2.4707,-2.4707,-2.4707,-2.4707,-2.4707,-2.4707,0.0,0.0,0.0,0.0,0.0,0.0,0.0,0.0,0.0,0.0,0.0,0.0,0.0,0.0,0.0,0.0,0.0,0.0,0.0,0.0,0.0,0.0,0.0,0.0,0.0,0.0,0.0,0.0,0.0,0.0,0.0,0.0,0.0,0.0,0.0,0.0,0.0,0.0,0.0,0.0,0.0,0.0,0.0,0.0,0.0,0.0,0.0,0.0,0.0,0.0,0.0,-2.3412,-2.4535,-2.7621,-3.1014,-3.1849,0.0,0.0,-3.8523,-4.0043,-4.058,-3.8153,-3.5589,-3.2807,-2.9647,0.0,0.0,-2.262,-2.1435,-2.0359,-2.0155,-2.0276,-2.0661,0.0,0.0,0.0,0.0,0.0,0.0,0.0,0.0,0.0,-3.6551,-3.6128,-3.6067,-3.6895,-3.6211,-3.5612,-3.5245,-3.5296,-3.5364,-3.5378,-3.5509,-3.5222,-3.4472,-3.4364,-3.3419,-3.1674,-3.1609,-3.026,-2.7809,-2.7528,-2.6565,-2.5102,-2.4825,-2.4707,-2.4707,-2.4707,-2.4707,-2.4707,-2.4707,-2.4707,-2.4707,-2.4707,-2.4707,-2.4707,0.0,0.0,0.0,0.0,0.0,0.0,0.0,0.0,0.0,0.0,0.0,0.0,0.0,0.0,0.0,0.0,0.0,0.0,0.0,0.0,0.0,0.0,0.0,0.0,0.0,0.0,0.0,0.0,-1.5178,0.0,0.0,0.0,0.0,0.0,0.0,-1.5283,0.0,0.0,0.0,0.0,0.0,0.0,0.0,0.0,0.0,0.0,0.0,0.0,0.0,0.0,0.0,0.0,-2.157,-2.3146,0.0,0.0,-3.1376,-3.3942,-3.548,-3.77,-3.9001,-3.652,-3.3904,-3.1224,-2.8534,0.0,-2.1782,-2.1864,-2.0985,-2.0184,-2.0169,-2.025,-2.043,0.0,0.0,0.0,0.0,0.0,0.0,0.0,-3.222,0.0,0.0,0.0,-3.6303,-3.619,-3.5889,-3.562,-3.5483,-3.5418,-3.5405,-3.5405,-3.4883,-3.4493,-3.4217,-3.3215,-3.2343,-3.159,-3.1191,-3.0109,-2.8483,-2.7891,-2.6899,-2.5589,-2.504,-2.4779,-2.4707,-2.4707,-2.4707,-2.4707,-2.4707,-2.4707,-2.4707,-2.4707,-2.4707,-2.4707,0.0,0.0,0.0,0.0,0.0,0.0,0.0,0.0,0.0,0.0,0.0,0.0,0.0,0.0,0.0,0.0,0.0,0.0,0.0,0.0,0.0,0.0,0.0,0.0,0.0,0.0,0.0,0.0,0.0,0.0,0.0,0.0,-1.516,-1.5195,0.0,0.0,0.0,0.0,0.0,0.0,0.0,0.0,0.0,0.0,0.0,0.0,0.0,0.0,0.0,0.0,0.0,0.0,0.0,0.0,0.0,0.0,-2.8294,-3.0804,-3.2596,-3.502,-3.657,-3.4566,-3.2109,-2.9532,0.0,0.0,-2.1255,-2.1378,-2.0772,-2.0235,-2.0235,-2.0314,-2.041,0.0,0.0,0.0,0.0,0.0,0.0,0.0,0.0,-3.227,0.0,-3.594,-3.6241,-3.5387,-3.5308,-3.5317,-3.5317,-3.4948,-3.4841,-3.5091,-3.4178,-3.3588,-3.341,-3.2254,-3.1542,-3.1291,-3.0829,-2.994,-2.8698,-2.8041,-2.7012,-2.5721,-2.5092,-2.4794,-2.4707,-2.4707,-2.4707,-2.4707,-2.4707,-2.4707,-2.4707,-2.4707,-2.4707,-2.4707,0.0,0.0,0.0,0.0,0.0,0.0,0.0,0.0,0.0,0.0,0.0,0.0,0.0,0.0,0.0,0.0,0.0,0.0,0.0,0.0,0.0,0.0,0.0,0.0,0.0,0.0,0.0,0.0,0.0,0.0,0.0,0.0,-1.5082,-1.5189,0.0,0.0,0.0,0.0,0.0,0.0,0.0,0.0,0.0,0.0,0.0,0.0,0.0,0.0,0.0,0.0,0.0,0.0,0.0,0.0,0.0,0.0,-2.5077,-2.815,-3.048,-3.2278,-3.325,-3.2349,-3.0265,-2.7786,0.0,-2.2988,-2.1318,-2.1397,-2.0815,-2.0294,-2.0294,-2.0354,-2.041,-2.041,0.0,0.0,0.0,0.0,0.0,0.0,0.0,-2.8515,-3.2716,-3.4689,-3.5356,-3.4466,-3.4408,-3.4408,-3.4408,-3.3596,-3.3518,-3.4369,-3.3546,-3.2696,-3.1826,-3.1806,-3.141,-3.0617,-3.0598,-2.9622,-2.7804,-2.7673,-2.6619,-2.4902,-2.4764,-2.4707,-2.4707,-2.4707,-2.4707,-2.4707,-2.4707,-2.4707,-2.4707,-2.4707,-2.4707,-2.4707,0.0,0.0,0.0,0.0,0.0,0.0,0.0,0.0,0.0,0.0,0.0,0.0,0.0,0.0,0.0,0.0,0.0,0.0,0.0,0.0,0.0,0.0,0.0,0.0,0.0,0.0,0.0,0.0,0.0,0.0,0.0,0.0,0.0,0.0,-1.4592,0.0,0.0,0.0,0.0,0.0,0.0,0.0,0.0,0.0,0.0,0.0,0.0,0.0,0.0,0.0,0.0,0.0,0.0,0.0,0.0,0.0,0.0,0.0,-2.6426,-2.7614,-2.8291,-2.8056,-2.65,-2.4719,-2.3458,-2.1734,-2.0451,-2.0553,-2.0435,-2.0294,-2.0299,-2.036,-2.0411,-2.0411,-2.113,0.0,0.0,0.0,0.0,-2.814,-3.1109,-3.3412,0.0,0.0,-3.5336,-3.4466,-3.4389,-3.4137,-3.3538,-3.2687,-3.288,-3.435,-3.2977,-3.2087,-3.1797,-3.1255,-3.0849,-3.0598,-2.9998,-2.9043,-2.7776,-2.7196,-2.619,-2.4902,-2.4847,-2.4794,-2.4707,-2.4707,-2.4707,-2.4707,-2.4707,-2.4707,-2.4707,-2.4734,-2.4783,-2.4764,0.0,0.0,0.0,0.0,0.0,0.0,0.0,0.0,0.0,0.0,0.0,0.0,0.0,0.0,0.0,0.0,0.0,0.0,0.0,0.0,0.0,0.0,0.0,0.0,0.0,0.0,0.0,0.0,0.0,0.0,0.0,0.0,0.0,0.0,0.0,0.0,0.0,0.0,0.0,0.0,0.0,0.0,-1.4885,0.0,0.0,0.0,0.0,0.0,0.0,0.0,0.0,0.0,0.0,0.0,0.0,0.0,-1.8624,0.0,0.0,-2.4359,-2.5096,-2.5149,-2.4096,0.0,0.0,-2.0907,-2.0022,-2.0139,-2.0238,-2.0314,-2.0373,-2.0392,-2.0404,-2.039,-2.0864,0.0,0.0,0.0,0.0,-2.7958,0.0,0.0,0.0,-3.4717,-3.4485,-3.3944,-3.3596,-3.3189,-3.2638,-3.1816,-3.199,-3.3383,-3.2068,-3.1352,-3.1352,-3.0849,-3.0598,-3.0598,-2.9727,-2.8753,-2.7692,-2.6886,-2.5906,-2.4818,-2.4818,-2.4779,0.0,-2.4707,-2.4707,-2.4707,-2.4738,-2.4738,-2.4753,-2.4808,-2.4837,-2.4832,0.0,0.0,0.0,0.0,0.0,0.0,0.0,0.0,0.0,0.0,0.0,0.0,0.0,0.0,0.0,0.0,0.0,0.0,0.0,0.0,0.0,0.0,0.0,0.0,0.0,0.0,0.0,-1.0106,-1.1713,-1.1812,-1.0542,0.0,0.0,0.0,0.0,0.0,0.0,-1.4621,-1.467,-1.468,-1.468,-1.468,0.0,0.0,0.0,0.0,0.0,0.0,0.0,0.0,0.0,0.0,0.0,0.0,0.0,0.0,0.0,0.0,0.0,0.0,0.0,0.0,0.0,0.0,0.0,-2.0452,0.0,-2.0103,-2.0227,-2.0347,-2.0473,-2.0448,-2.0399,-2.039,-2.0454,-2.0492,0.0,-2.1443,0.0,0.0,-2.9229,0.0,-3.2861,-3.3063,-3.3063,-3.3005,-3.2251,-3.1777,-3.1719,-3.1004,-3.0907,-3.1603,-3.0907,-3.054,-3.0598,-3.0482,-3.0443,-3.0501,-2.9553,-2.855,-2.7503,-2.6675,-2.5722,-2.4723,-2.4723,-2.4707,-2.4704,-2.4704,-2.4704,-2.4723,-2.4779,-2.4808,-2.4808,-2.4874,-2.4915,-2.4915,0.0,0.0,0.0,0.0,0.0,0.0,0.0,0.0,0.0,0.0,0.0,0.0,0.0,0.0,0.0,0.0,0.0,0.0,0.0,0.0,0.0,0.0,0.0,0.0,0.0,0.0,0.0,-1.1075,-1.2016,-1.2105,-1.1425,-1.2606,0.0,0.0,0.0,-1.38,-1.4129,-1.416,-1.4277,-1.4462,-1.4462,-1.4504,0.0,0.0,0.0,0.0,-1.4606,-1.4714,0.0,0.0,0.0,0.0,0.0,0.0,0.0,0.0,-1.596,-1.7175,-1.8089,0.0,-1.8957,-1.9669,-2.013,-2.0371,0.0,0.0,0.0,0.0,0.0,0.0,0.0,-2.0408,-2.0396,-2.0402,-2.0958,-2.1396,-2.1399,0.0,0.0,-2.8551,-3.0964,-3.2406,-3.2126,-3.2715,-3.2812,-3.2164,-3.1932,-3.1526,-3.0907,-3.0694,-3.0385,-2.9901,-2.9708,-2.9921,-3.0598,-2.9282,-2.8954,-2.9592,-2.8045,-2.7132,-2.6811,-2.5849,-2.5215,-2.4915,-2.4823,-2.4808,-2.4847,-2.4847,-2.4847,-2.4847,-2.4874,-2.4874,-2.4888,-2.5012,-2.5057,-2.507,0.0,0.0,0.0,0.0,0.0,0.0,0.0,0.0,0.0,0.0,0.0,0.0,0.0,0.0,0.0,0.0,0.0,0.0,0.0,0.0,0.0,0.0,0.0,0.0,0.0,0.0,0.0,0.0,0.0,-1.1841,0.0,0.0,0.0,0.0,0.0,-1.3457,-1.3641,-1.381,-1.3941,-1.4083,-1.4154,0.0,0.0,0.0,0.0,0.0,-1.4239,-1.4227,0.0,-1.4239,-1.4314,-1.4404,0.0,0.0,0.0,0.0,-1.5529,-1.6168,-1.6996,-1.7817,-1.8576,-1.912,-1.9526,-1.9813,0.0,0.0,0.0,0.0,0.0,0.0,0.0,0.0,0.0,0.0,-2.1,0.0,0.0,0.0,-2.7307,-2.85,-3.0287,-3.1671,0.0,-3.2126,-3.1913,-3.1816,-3.1468,-3.1062,-3.0617,-3.0598,-3.0385,-2.9901,-2.9515,-2.9321,-2.9399,-2.8459,-2.8227,-2.8683,-2.7365,-2.6685,-2.6574,-2.562,-2.5163,-2.508,-2.4949,-2.491,-2.4949,-2.491,-2.4902,-2.4902,-2.498,-2.4993,-2.4993,-2.5107,-2.5151,-2.5163,0.0,0.0,0.0,0.0,0.0,0.0,0.0,0.0,0.0,0.0,0.0,0.0,0.0,0.0,0.0,0.0,0.0,0.0,0.0,0.0,0.0,0.0,0.0,0.0,0.0,0.0,0.0,0.0,0.0,0.0,0.0,0.0,-1.1865,0.0,0.0,-1.299,-1.3108,-1.3427,-1.3572,-1.3619,-1.3756,0.0,0.0,0.0,0.0,0.0,0.0,0.0,0.0,-1.3827,-1.3941,-1.4127,-1.4068,0.0,0.0,0.0,0.0,0.0,-1.6741,-1.8434,-1.9726,-1.9669,-1.9736,-1.9807,0.0,0.0,0.0,0.0,0.0,0.0,0.0,0.0,0.0,0.0,0.0,0.0,-2.3506,-2.4994,-2.6485,-2.7914,-2.8954,0.0,-3.23,-3.1362,-3.0888,-3.1565,-3.0984,-3.0598,-3.0598,-3.0462,-3.0404,-3.0394,-2.9446,-2.8556,-2.7829,-2.7818,-2.7818,-2.781,-2.6989,-2.6533,-2.6409,-2.5657,-2.5274,-2.5224,-2.5096,-2.5049,-2.5049,-2.4981,-2.4961,-2.4961,-2.5082,-2.5114,-2.5126,-2.5187,-2.5191,-2.5191,0.0,0.0,0.0,0.0,0.0,0.0,0.0,0.0,0.0,0.0,0.0,0.0,0.0,0.0,0.0,0.0,0.0,0.0,0.0,0.0,0.0,0.0,0.0,0.0,0.0,0.0,0.0,0.0,0.0,0.0,-1.135,-1.1125,-1.1244,0.0,-1.1298,-1.1702,-1.2617,-1.2785,-1.2985,-1.321,-1.3328,0.0,0.0,0.0,0.0,0.0,0.0,0.0,0.0,-1.3791,-1.3821,-1.3851,-1.3853,0.0,0.0,0.0,0.0,0.0,-1.7621,-1.8683,-1.9328,-1.8765,-1.9214,-1.9813,0.0,0.0,0.0,0.0,0.0,0.0,0.0,0.0,0.0,0.0,0.0,-2.5291,0.0,0.0,-2.8625,-2.8895,0.0,-3.0201,-2.9825,-3.0289,-3.0656,-3.0772,-3.0675,-3.0598,-3.0598,-2.9901,-2.9504,-2.9492,-2.8001,-2.7117,-2.6997,-2.6982,-2.6982,-2.6977,-2.6112,-2.5679,-2.5665,-2.5401,-2.5318,-2.5354,-2.5233,-2.5198,-2.5261,-2.5172,-2.5137,-2.5168,-2.5168,-2.518,-2.5199,-2.521,-2.5191,-2.5191,0.0,0.0,0.0,0.0,0.0,0.0,0.0,0.0,0.0,0.0,0.0,0.0,0.0,0.0,0.0,0.0,0.0,0.0,0.0,0.0,0.0,0.0,0.0,0.0,0.0,0.0,0.0,0.0,0.0,-1.0425,-1.0368,-1.035,-1.0467,-1.069,-1.0908,-1.1555,-1.2475,-1.2675,-1.2962,-1.3329,0.0,0.0,0.0,0.0,0.0,0.0,0.0,0.0,0.0,0.0,-1.3462,-1.3655,-1.3717,0.0,0.0,0.0,0.0,0.0,-1.8021,-1.8562,-1.8647,-1.8879,-1.9375,-1.9876,0.0,0.0,0.0,0.0,0.0,0.0,0.0,0.0,0.0,-2.2595,0.0,-2.5357,-2.7195,-2.7892,-2.8255,0.0,0.0,-2.9854,-2.9902,-3.0337,-3.0403,-2.9921,-2.9901,-2.9689,-2.9224,-2.8818,-2.8603,-2.8601,-2.7846,-2.7241,-2.6805,-2.6798,-2.6558,-2.6093,-2.5725,-2.5557,-2.5544,-2.5485,-2.5478,-2.5505,-2.5378,-2.5341,-2.5351,-2.5248,-2.5191,-2.5191,-2.5191,-2.5191,-2.5134,-2.4664,-2.4492,-2.4435,0.0,0.0,0.0,0.0,0.0,0.0,0.0,0.0,0.0,0.0,0.0,0.0,0.0,0.0,0.0,0.0,0.0,0.0,0.0,0.0,0.0,0.0,0.0,0.0,0.0,0.0,-0.9559,-1.0093,-0.9761,-0.9417,-0.9075,-0.9508,-0.9799,0.0,-1.0551,-1.1306,-1.2201,-1.2361,-1.275,-1.3252,0.0,0.0,0.0,0.0,0.0,0.0,0.0,0.0,0.0,0.0,0.0,0.0,0.0,0.0,0.0,-1.5626,-1.5764,-1.5867,-1.7819,-1.8259,-1.8297,-1.8874,0.0,0.0,0.0,0.0,0.0,0.0,0.0,0.0,0.0,0.0,0.0,-2.3875,-2.4715,-2.5437,-2.6532,-2.7304,-2.7799,-2.7851,-2.8468,-2.9147,-2.9783,-2.9931,-2.9698,-2.9041,-2.9021,-2.8739,-2.8062,-2.7829,-2.7799,-2.8016,-2.7648,-2.7237,-2.6819,-2.6625,-2.6178,-2.5525,-2.5589,-2.5595,-2.5602,-2.5595,-2.5601,-2.5595,-2.5464,-2.5406,-2.5397,-2.5258,-2.5191,-2.5172,-2.4981,-2.4771,-2.4522,-2.3842,-2.3605,-2.352,0.0,0.0,0.0,0.0,0.0,0.0,0.0,0.0,0.0,0.0,0.0,0.0,0.0,0.0,0.0,0.0,0.0,0.0,0.0,0.0,0.0,0.0,0.0,0.0,0.0,-0.8147,-0.8813,-0.9481,-0.8943,-0.8576,-0.8384,-0.8659,-0.9311,-1.0243,-0.9814,-1.0345,-1.1546,-1.1447,-1.1823,-1.2479,-1.2493,0.0,0.0,0.0,0.0,0.0,0.0,0.0,0.0,0.0,0.0,0.0,0.0,0.0,-1.3825,-1.4803,-1.5587,-1.6217,-1.6574,-1.7763,-1.8766,-1.8081,0.0,0.0,0.0,0.0,0.0,0.0,0.0,0.0,0.0,-2.0934,-2.1808,-2.3009,-2.5187,-2.7119,-2.8263,0.0,-2.8628,-2.8628,-2.8103,-2.7765,-2.7892,-2.8014,-2.8087,-2.8086,-2.8147,-2.816,-2.8102,-2.7326,-2.7263,-2.8073,-2.6586,-2.6126,-2.6883,-2.6087,-2.5653,-2.5595,-2.5601,-2.5601,-2.5601,-2.5601,-2.5601,-2.5595,-2.5464,-2.5406,-2.5397,-2.5258,-2.5191,-2.5115,-2.4301,-2.3498,-2.2772,-2.2715,-2.2737,-2.2767,0.0,0.0,0.0,0.0,0.0,0.0,0.0,0.0,0.0,0.0,0.0,0.0,0.0,0.0,0.0,0.0,0.0,0.0,0.0,0.0,0.0,0.0,0.0,-0.6575,-0.6779,-0.7686,-0.8228,-0.8405,-0.7827,-0.7617,-0.7751,-0.8215,0.0,0.0,0.0,-1.1039,-1.234,-1.1966,-1.2454,-1.3419,-1.306,-1.3785,0.0,0.0,0.0,0.0,0.0,0.0,0.0,0.0,-1.2979,-1.326,0.0,0.0,0.0,0.0,-1.522,-1.5585,-1.6212,-1.7185,-1.802,-1.785,0.0,0.0,0.0,0.0,0.0,0.0,0.0,0.0,0.0,0.0,-2.2685,-2.3693,-2.5132,-2.6522,-2.7577,-2.7789,-2.7834,-2.7834,-2.7769,-2.7719,-2.7699,-2.7903,-2.7804,-2.7299,-2.7284,-2.7048,-2.652,-2.6171,-2.6158,-2.6528,-2.5926,-2.5764,-2.6087,-2.5757,-2.5601,-2.5601,-2.5601,-2.5601,-2.5601,-2.5601,-2.5583,-2.5524,-2.5448,-2.5379,-2.5332,-2.5236,-2.4885,-2.4312,-2.3484,-2.2949,-2.2614,-2.2142,-2.1996,-2.1936,0.0,0.0,0.0,0.0,0.0,0.0,0.0,0.0,0.0,0.0,0.0,0.0,0.0,0.0,0.0,0.0,0.0,0.0,0.0,0.0,0.0,0.0,0.0,-0.6408,-0.6425,-0.7396,-0.7947,-0.8029,-0.7204,-0.7025,-0.7486,0.0,0.0,0.0,0.0,0.0,-1.1936,-1.1745,-1.2308,-1.3316,-1.3216,-1.4059,0.0,0.0,0.0,0.0,0.0,0.0,0.0,0.0,0.0,0.0,0.0,0.0,0.0,0.0,-1.4942,-1.5414,-1.5778,-1.6835,-1.779,0.0,0.0,0.0,0.0,0.0,0.0,0.0,0.0,0.0,0.0,0.0,0.0,0.0,-2.4963,-2.5963,-2.6718,-2.6876,-2.689,-2.689,-2.689,-2.6871,-2.6852,-2.7075,-2.6981,-2.6397,-2.6374,-2.6125,-2.5531,-2.5499,-2.5525,-2.5596,-2.5596,-2.5602,-2.5601,-2.5601,-2.5601,-2.5601,-2.5329,-2.5329,-2.5601,-2.5601,-2.5564,-2.5505,-2.5158,-2.5129,-2.5284,-2.4643,-2.3902,-2.3101,-2.2537,-2.2162,-2.188,-2.139,-2.1201,-2.1138,0.0,0.0,0.0,0.0,0.0,0.0,0.0,0.0,0.0,0.0,0.0,0.0,0.0,0.0,0.0,0.0,0.0,0.0,0.0,0.0,0.0,0.0,0.0,-0.6579,-0.651,-0.7269,-0.793,-0.8462,-0.7211,-0.6938,-0.7617,-0.8492,0.0,0.0,0.0,0.0,0.0,0.0,-1.1077,-1.1818,-1.272,-1.3912,-1.5109,0.0,0.0,0.0,0.0,0.0,0.0,0.0,-1.2869,0.0,0.0,0.0,0.0,0.0,-1.4843,-1.5836,-1.5186,-1.6694,0.0,0.0,0.0,0.0,0.0,0.0,0.0,0.0,0.0,0.0,0.0,0.0,0.0,-2.3151,-2.4642,-2.5758,-2.5965,-2.5981,-2.5981,-2.5981,-2.5347,-2.4929,-2.4994,-2.5184,-2.5339,-2.5401,-2.5464,-2.5499,-2.5499,-2.5499,-2.5525,-2.5596,-2.5596,-2.5602,-2.5601,-2.5601,-2.5601,-2.5582,-2.4702,-2.4741,-2.5582,-2.5582,-2.5562,-2.5517,-2.4517,-2.4576,-2.5224,-2.3361,-2.2154,-2.1509,-2.1489,-2.0993,-2.0294,-2.0301,-2.0347,-2.0385,0.0,0.0,0.0,0.0,0.0,0.0,0.0,0.0,0.0,0.0,0.0,0.0,0.0,0.0,0.0,0.0,0.0,0.0,0.0,0.0,0.0,0.0,0.0,0.0,0.0,0.0,-0.5951,-0.5538,-0.5694,-0.6578,0.0,0.0,0.0,-1.003,0.0,0.0,0.0,0.0,-1.1453,-1.2753,-1.2605,-1.3577,-1.5092,0.0,0.0,0.0,0.0,0.0,0.0,0.0,0.0,0.0,0.0,0.0,0.0,-1.3998,-1.4557,-1.5257,-1.5062,-1.5922,0.0,0.0,0.0,0.0,0.0,0.0,0.0,0.0,0.0,0.0,-2.3118,0.0,0.0,-2.3483,-2.4468,-2.5297,-2.5374,-2.5374,-2.5374,-2.5374,-2.5256,-2.5201,-2.5212,-2.5351,-2.5456,-2.548,-2.5495,-2.5524,-2.557,-2.557,-2.5577,-2.5595,-2.5595,-2.5595,-2.5601,-2.5601,-2.529,-2.4682,-2.4411,-2.443,-2.4663,-2.4047,-2.3758,-2.3676,-2.3391,-2.3373,-2.3488,-2.2367,-2.1763,-2.1517,-2.0945,-2.0585,-2.0372,-2.0421,-2.0443,-2.0468,0.0,0.0,0.0,0.0,0.0,0.0,0.0,0.0,0.0,0.0,0.0,0.0,0.0,0.0,0.0,0.0,0.0,0.0,0.0,0.0,0.0,0.0,0.0,0.0,0.0,-0.7591,-0.674,0.0,0.0,0.0,0.0,0.0,0.0,-0.9742,0.0,-0.9644,0.0,0.0,-1.1043,-1.2174,-1.246,-1.3356,-1.4571,0.0,0.0,0.0,0.0,0.0,0.0,0.0,0.0,0.0,0.0,0.0,0.0,-1.4849,-1.5309,-1.5871,-1.6086,0.0,0.0,0.0,0.0,0.0,0.0,0.0,0.0,0.0,0.0,-2.3852,-2.383,-2.408,0.0,-2.4144,-2.439,-2.4702,-2.5046,-2.4798,-2.4721,-2.5057,-2.4915,-2.4784,-2.4784,-2.4593,-2.4617,-2.4953,-2.4689,-2.4819,-2.5531,-2.524,-2.5208,-2.5589,-2.5259,-2.5246,-2.5601,-2.4902,-2.4475,-2.4294,-2.3595,-2.327,-2.33,-2.3081,-2.2982,-2.2933,-2.2908,-2.248,-2.1791,-2.1656,-2.1413,-2.1074,-2.0585,-2.0421,-2.0438,-2.0497,-2.0507,-2.0507,0.0,0.0,0.0,0.0,0.0,0.0,0.0,0.0,0.0,0.0,0.0,0.0,0.0,0.0,0.0,0.0,0.0,0.0,0.0,0.0,0.0,0.0,0.0,0.0,0.0,0.0,0.0,0.0,0.0,0.0,0.0,0.0,-0.9078,-0.8901,0.0,-0.8497,0.0,-0.9476,-1.0141,-1.0799,-1.2234,-1.3141,-1.3716,-1.4578,0.0,0.0,0.0,0.0,0.0,0.0,0.0,0.0,0.0,0.0,0.0,-1.6008,-1.6694,-1.7251,0.0,0.0,0.0,0.0,0.0,0.0,0.0,0.0,0.0,0.0,0.0,-2.4764,-2.4874,-2.4321,-2.4087,-2.4874,-2.435,-2.4083,-2.4793,-2.4227,-2.4044,-2.4908,-2.4437,-2.4052,-2.4147,-2.3466,-2.3366,-2.4148,-2.3457,-2.3696,-2.5312,-2.4549,-2.4561,-2.557,-2.4754,-2.4688,-2.5482,-2.3927,-2.3461,-2.4058,-2.2459,-2.1696,-2.1718,-2.245,-2.2765,-2.2765,-2.2714,-2.1778,-2.0385,-2.1169,-2.1062,-2.0416,-2.0416,-2.0457,-2.0507,-2.0585,-2.0565,-2.0507,0.0,0.0,0.0,0.0,0.0,0.0,0.0,0.0,0.0,0.0,0.0,0.0,0.0,0.0,0.0,0.0,0.0,0.0,0.0,0.0,0.0,0.0,0.0,0.0,0.0,0.0,0.0,0.0,0.0,0.0,0.0,0.0,0.0,-0.8928,0.0,-0.8067,-0.9077,-0.8979,-0.9768,-1.1073,-1.1327,-1.2138,-1.3175,-1.3277,-1.4059,0.0,0.0,0.0,0.0,0.0,0.0,0.0,-1.5604,-1.6092,-1.6527,-1.6167,-1.6694,-1.7453,0.0,0.0,0.0,0.0,0.0,0.0,0.0,0.0,0.0,0.0,-2.427,-2.4987,-2.4915,-2.4927,-2.48,-2.4303,-2.4167,-2.3948,-2.3446,-2.3215,-2.3408,-2.43,-2.4258,-2.4457,-2.5187,-2.4499,-2.4073,-2.4269,-2.348,-2.3461,-2.4501,-2.3728,-2.399,-2.5541,-2.4813,-2.4478,-2.4654,-2.4286,-2.3503,-2.2327,-2.1955,-2.1438,-2.0782,-2.0958,-2.1032,-2.1032,-2.1021,-2.0798,-2.0463,-2.0657,-2.0623,-2.0478,-2.0478,-2.0483,-2.0585,-2.1206,-2.1032,-2.0585,0.0,0.0,0.0,0.0,0.0,0.0,0.0,0.0,0.0,0.0,0.0,0.0,0.0,0.0,0.0,0.0,0.0,0.0,0.0,0.0,0.0,0.0,0.0,0.0,0.0,0.0,0.0,0.0,0.0,0.0,0.0,0.0,0.0,-0.9182,0.0,-0.8218,-0.9085,-0.8934,-0.9396,-1.0257,-1.0574,-1.1411,-1.243,-1.2564,-1.3498,-1.4783,-1.5315,0.0,0.0,0.0,0.0,0.0,0.0,0.0,-1.7347,-1.7453,-1.7841,-1.8174,0.0,0.0,0.0,0.0,0.0,0.0,0.0,0.0,0.0,-2.2866,-2.3693,-2.4488,-2.4469,-2.4243,-2.3937,-2.3537,-2.3219,-2.2977,-2.29,-2.2597,-2.2681,-2.3526,-2.3301,-2.3224,-2.3694,-2.3346,-2.329,-2.3698,-2.2918,-2.3169,-2.4836,-2.3332,-2.3218,-2.4963,-2.3805,-2.3361,-2.3771,-2.2953,-2.2289,-2.1798,-2.1379,-2.094,-2.0497,-2.0491,-2.0507,-2.0507,-2.0507,-2.0507,-2.0507,-2.0507,-2.0507,-2.0507,-2.0507,-2.0507,-2.0546,-2.0973,-2.0857,-2.0565,0.0,0.0,0.0,0.0,0.0,0.0,0.0,0.0,0.0,0.0,0.0,0.0,0.0,0.0,0.0,0.0,0.0,0.0,0.0,0.0,0.0,0.0,0.0,0.0,0.0,0.0,0.0,0.0,0.0,0.0,0.0,0.0,0.0,-0.9331,0.0,0.0,-0.8977,-0.893,-0.9031,-0.931,-1.0011,-1.0745,-1.1535,-1.2021,-1.2922,-1.4084,-1.4864,-1.5286,-1.559,-1.607,0.0,0.0,0.0,0.0,-1.7946,-1.8846,-1.9,-1.88,0.0,0.0,0.0,0.0,0.0,0.0,0.0,0.0,0.0,-2.2546,-2.3132,-2.3692,-2.3774,-2.3226,-2.2731,-2.2712,-2.2158,-2.1894,-2.2411,-2.1959,-2.1875,-2.2695,-2.2217,-2.1845,-2.1921,-2.1862,-2.2153,-2.3036,-2.2283,-2.279,-2.5047,-2.3034,-2.2527,-2.4129,-2.2647,-2.2159,-2.288,-2.1459,-2.1029,-2.1573,-2.0851,-2.0492,-2.0509,-2.0492,-2.0506,-2.0497,-2.0502,-2.0506,-2.0491,-2.0506,-2.0502,-2.0502,-2.0497,-2.0497,-2.0521,-2.0677,-2.0638,-2.0521,0.0,0.0,0.0,0.0,0.0,0.0,0.0,0.0,0.0,0.0,0.0,0.0,0.0,0.0,0.0,0.0,0.0,0.0,-0.4367,0.0,0.0,-0.7154,-0.7629,0.0,0.0,0.0,0.0,0.0,0.0,0.0,0.0,0.0,0.0,-0.8787,0.0,0.0,0.0,-0.8601,-0.8882,-0.9548,-0.9672,-0.9879,-1.024,-1.0994,-1.1871,-1.283,-1.3465,-1.4453,-1.5562,-1.5914,-1.6602,0.0,0.0,0.0,-1.8627,-1.8992,-1.8763,0.0,0.0,0.0,0.0,0.0,0.0,0.0,0.0,0.0,-2.2007,0.0,-2.2908,-2.3004,-2.2965,-2.2966,-2.2731,-2.2054,-2.1861,-2.1552,-2.0901,-2.0745,-2.0995,-2.1862,-2.1873,-2.2081,-2.2834,-2.2237,-2.2167,-2.3022,-2.2284,-2.2285,-2.3378,-2.2402,-2.2246,-2.3241,-2.2361,-2.1946,-2.2063,-2.1828,-2.1399,-2.0756,-2.0586,-2.0506,-2.0498,-2.0492,-2.0509,-2.0504,-2.0506,-2.0506,-2.0499,-2.0503,-2.0497,-2.0497,-2.0492,-2.0499,-2.0594,-2.1344,-2.1153,-2.061,0.0,0.0,0.0,0.0,0.0,0.0,0.0,0.0,0.0,0.0,0.0,0.0,0.0,0.0,0.0,-0.3217,-0.3558,-0.4142,-0.5121,-0.6097,-0.673,-0.6871,-0.7676,-0.8193,0.0,0.0,0.0,0.0,0.0,0.0,0.0,-1.0704,-1.0391,0.0,0.0,0.0,0.0,0.0,-0.9163,-0.9279,-0.9273,-0.9634,-1.026,0.0,-1.135,-1.2366,-1.2854,-1.3638,-1.4519,-1.5472,-1.6266,-1.7035,-1.7847,0.0,0.0,0.0,0.0,0.0,0.0,0.0,0.0,0.0,0.0,0.0,0.0,0.0,-2.1062,-2.1445,-2.1538,-2.1706,-2.2163,-2.1892,-2.1469,-2.1138,-2.1061,-2.0944,-2.0545,-2.0522,-2.0684,-2.1038,-2.1103,-2.1289,-2.166,-2.1796,-2.2008,-2.2408,-2.2064,-2.2223,-2.3063,-2.1852,-2.154,-2.2399,-2.1612,-2.1178,-2.1178,-2.1178,-2.0983,-2.0593,-2.0578,-2.0545,-2.0508,-2.0508,-2.0503,-2.0499,-2.0508,-2.0492,-2.0497,-2.0494,-2.0492,-2.049,-2.0494,-2.0492,-2.0558,-2.0923,-2.0828,-2.0555,0.0,0.0,0.0,0.0,0.0,0.0,0.0,0.0,0.0,0.0,0.0,0.0,0.0,0.0,0.0,0.0,-0.3776,-0.4511,-0.5754,-0.6292,-0.6698,-0.7062,-0.7841,-0.8487,-0.8995,0.0,0.0,0.0,0.0,0.0,-1.0439,-1.064,-1.0844,0.0,-1.0432,0.0,0.0,0.0,0.0,0.0,0.0,-0.9729,0.0,0.0,-1.114,-1.2005,-1.2283,-1.2849,-1.3625,-1.4631,-1.5412,-1.6166,-1.7319,-1.8035,0.0,0.0,0.0,0.0,0.0,0.0,0.0,0.0,0.0,0.0,0.0,0.0,-2.0169,0.0,-2.0502,-2.0701,-2.1344,-2.0943,-2.0521,-2.0521,-2.0538,-2.0538,-2.0533,-2.0563,-2.0586,-2.0539,-2.0566,-2.0593,-2.0593,-2.12,-2.1668,-2.1879,-2.1878,-2.2149,-2.2732,-2.1581,-2.1093,-2.1522,-2.0923,-2.0593,-2.0593,-2.0593,-2.0593,-2.0591,-2.0607,-2.0552,-2.0502,-2.0501,-2.0505,-2.0508,-2.0507,-2.0507,-2.0507,-2.0507,-2.0507,-2.0507,-2.0501,-2.0498,-2.0501,-2.0516,-2.0518,-2.05,0.0,0.0,0.0,0.0,0.0,0.0,0.0,0.0,0.0,0.0,0.0,0.0,0.0,-0.3323,-0.3618,-0.4103,-0.4053,-0.4529,-0.5807,-0.6041,-0.673,-0.8063,-0.8117,0.0,-1.0382,-1.0481,0.0,0.0,0.0,0.0,-1.0745,-1.0288,-1.0459,-1.119,-1.1006,-1.0659,-1.0233,0.0,0.0,0.0,0.0,0.0,0.0,0.0,0.0,0.0,0.0,-1.2155,-1.3325,-1.3326,-1.3845,-1.4756,-1.614,-1.7103,-1.7941,0.0,0.0,0.0,0.0,0.0,0.0,0.0,0.0,0.0,0.0,0.0,-1.9501,-2.0324,-2.05,-2.0502,-2.0559,-2.0586,-2.0586,-2.0586,-2.0585,-2.0585,-2.0586,-2.0602,-2.0596,-2.0596,-2.0594,-2.0593,-2.0593,-2.0632,-2.1003,-2.184,-2.1842,-2.1825,-2.1864,-2.1786,-2.1377,-2.06,-2.0584,-2.0593,-2.0593,-2.0593,-2.0591,-2.0605,-2.0605,-2.056,-2.0509,-2.0497,-2.0497,-2.0494,-2.0497,-2.05,-2.0492,-2.0501,-2.0503,-2.0504,-2.0508,-2.0507,-2.0505,-2.0566,-2.0547,-2.0506,0.0,0.0,0.0,0.0,0.0,0.0,0.0,0.0,0.0,0.0,0.0,0.0,0.0,-0.3842,-0.3846,-0.4576,-0.4654,-0.4768,-0.5121,-0.5588,-0.6222,-0.7081,-0.7984,-0.8967,-0.997,-1.0615,0.0,0.0,0.0,-1.0802,-1.0254,-1.096,-1.1046,-1.0648,-1.1419,-1.1688,-1.1556,-1.1699,0.0,0.0,0.0,0.0,0.0,0.0,0.0,0.0,0.0,0.0,-1.2983,-1.3398,-1.3449,-1.3592,-1.4935,-1.6009,-1.7047,-1.8249,0.0,0.0,0.0,0.0,0.0,0.0,0.0,0.0,0.0,-1.9316,-2.0017,-1.972,-2.0107,-2.0498,-2.051,-2.0543,-2.0605,-2.0601,-2.0601,-2.0601,-2.0604,-2.0566,-2.0539,-2.0542,-2.0496,-2.0465,-2.0464,-2.0464,-2.06,-2.0912,-2.092,-2.0893,-2.0893,-2.0893,-2.0756,-2.0445,-2.0457,-2.046,-2.0472,-2.0426,-2.0402,-2.0418,-2.0457,-2.0445,-2.0371,-2.0422,-2.0413,-2.0376,-2.0376,-2.0418,-2.0492,-2.041,-2.0422,-2.0499,-2.0443,-2.0467,-2.0495,-2.0539,-2.0518,-2.0497,0.0,0.0,0.0,0.0,0.0,0.0,0.0,0.0,0.0,0.0,0.0,0.0,0.0,0.0,-0.4186,-0.4942,-0.519,-0.5291,-0.5276,-0.5599,-0.6169,-0.7029,-0.7963,-0.8932,-0.9861,-1.0403,0.0,0.0,0.0,0.0,0.0,-1.0947,-1.1086,-1.0708,-1.2055,-1.2681,0.0,0.0,0.0,-1.2413,0.0,0.0,-1.2103,0.0,0.0,0.0,0.0,0.0,-1.3402,-1.4076,-1.3763,-1.3398,-1.4756,-1.5914,-1.6975,0.0,0.0,0.0,0.0,0.0,0.0,0.0,0.0,0.0,-1.7577,0.0,-1.9881,-1.9289,-1.9863,-2.0468,-2.0467,-2.0519,-2.0564,-2.0564,-2.057,-2.0564,-2.0564,-2.0533,-2.05,-2.0504,-2.0434,-2.0395,-2.04,-2.04,-2.04,-2.04,-2.0381,-2.0371,-2.0371,-2.0366,-2.024,-1.9963,-1.9963,-1.9823,-1.9527,-1.9764,-1.989,-1.9909,-2.0221,-2.0346,-2.0301,-2.0355,-2.0349,-2.0302,-2.0276,-2.0338,-2.0422,-2.0344,-2.0355,-2.0441,-2.041,-2.0429,-2.047,-2.0484,-2.0504,-2.0504,0.0,0.0,0.0,0.0,0.0,0.0,0.0,0.0,0.0,0.0,0.0,0.0,0.0,0.0,0.0,-0.5168,-0.5627,-0.6052,-0.6352,-0.6153,-0.665,-0.8096,-0.807,-0.8721,-1.0225,-0.9873,-1.0133,0.0,0.0,0.0,0.0,0.0,-1.056,0.0,-1.2961,-1.3685,-1.372,0.0,-1.3498,-1.3579,0.0,-1.4078,-1.2664,0.0,0.0,0.0,-1.3746,-1.3956,0.0,-1.5336,0.0,0.0,0.0,0.0,0.0,0.0,0.0,0.0,0.0,0.0,0.0,0.0,0.0,0.0,-1.6755,0.0,-1.902,-1.9081,-1.9776,-2.0366,-2.0379,-2.0457,-2.0499,-2.0483,-2.0502,-2.0493,-2.0495,-2.0511,-2.0497,-2.0497,-2.0443,-2.0405,-2.0405,-2.04,-2.0395,-2.0391,-2.0319,-2.0276,-2.0296,-2.0283,-1.9902,-1.9081,-1.91,-1.8698,-1.7829,-1.8698,-1.9114,-1.9137,-1.992,-2.0295,-2.0296,-2.0296,-2.0296,-2.0289,-2.0219,-2.0234,-2.0296,-2.0296,-2.0296,-2.0308,-2.0376,-2.0395,-2.0409,-2.0472,-2.0497,-2.0506,0.0,0.0,0.0,0.0,0.0,0.0,0.0,0.0,0.0,0.0,0.0,0.0,0.0,0.0,0.0,-0.5622,-0.5842,-0.5956,-0.5905,-0.6146,-0.6537,-0.7078,-0.8089,-0.8984,-0.9707,-1.0357,-1.0972,0.0,0.0,0.0,0.0,0.0,0.0,0.0,-1.4233,-1.5407,-1.6555,-1.6285,0.0,-1.5079,-1.6127,-1.5805,0.0,0.0,0.0,0.0,0.0,-1.7297,-1.722,0.0,-1.6152,-1.4816,0.0,0.0,0.0,0.0,0.0,0.0,-1.9899,0.0,0.0,0.0,0.0,0.0,0.0,0.0,-1.9004,-1.9012,-1.9267,-1.9646,-2.0225,-2.0386,-2.0412,-2.0365,-2.0402,-2.0424,-2.0424,-2.0385,-2.0352,-2.0352,-2.0334,-2.032,-2.032,-2.0339,-2.0272,-2.0126,-1.9631,-1.9558,-2.0058,-2.0087,-1.9409,-1.792,-1.9012,-1.9221,-1.8402,-1.923,-1.9687,-1.9678,-2.0038,-2.0196,-2.015,-2.0215,-2.0188,-2.015,-2.0143,-2.0143,-2.015,-2.015,-2.0204,-2.0302,-2.0269,-2.0307,-2.0405,-2.0426,-2.0464,-2.0503,0.0,0.0,0.0,0.0,0.0,0.0,0.0,0.0,0.0,0.0,0.0,0.0,0.0,0.0,0.0,-0.6149,-0.6273,-0.6452,-0.6649,-0.6899,-0.713,-0.741,-0.84,-0.9119,-0.9478,-1.0107,-1.0851,-1.1811,0.0,0.0,0.0,0.0,0.0,0.0,0.0,0.0,0.0,0.0,0.0,0.0,-1.8156,0.0,0.0,-1.8294,-1.8641,0.0,0.0,0.0,-1.8444,-1.91,-1.8342,0.0,0.0,0.0,0.0,0.0,0.0,0.0,0.0,0.0,0.0,0.0,0.0,0.0,-1.7577,-1.8042,-1.848,-1.7521,-1.8516,-1.9726,-2.0244,-2.0308,-2.0263,-2.0211,-2.0204,-2.0236,-2.0338,-2.0243,-2.0185,-2.0215,-2.0175,-2.0125,-2.0135,-1.9829,-1.9573,-1.943,-1.8744,-1.8649,-1.937,-1.9066,-1.841,-1.7394,-1.7947,-1.7861,-1.7024,-1.7876,-1.8313,-1.8313,-1.9097,-1.9488,-1.9535,-1.9907,-2.0088,-2.0088,-2.0088,-2.0088,-2.0088,-2.0088,-2.0161,-2.0231,-2.0196,-2.0248,-2.0313,-2.0381,-2.0418,-2.046,0.0,0.0,0.0,0.0,0.0,0.0,0.0,0.0,0.0,0.0,0.0,0.0,0.0,0.0,0.0,0.0,-0.6813,-0.7252,-0.7897,-0.7904,0.0,-0.8346,-0.8716,-0.9105,-0.9462,-0.9497,-1.0234,-1.1774,0.0,0.0,0.0,0.0,0.0,0.0,0.0,0.0,0.0,0.0,0.0,-1.9573,-2.047,-1.9887,0.0,0.0,-1.9519,-1.8172,-1.9269,-1.9283,-1.8977,-2.0375,-2.067,0.0,0.0,0.0,0.0,0.0,-1.9866,0.0,0.0,0.0,0.0,0.0,-1.9107,0.0,-1.7335,-1.7744,-1.7903,-1.5961,-1.7871,-1.9964,-2.0164,-2.0,-1.9798,-1.9783,-1.9753,-1.9859,-2.0223,-2.0087,-2.0012,-2.0077,-1.9898,-1.9768,-1.9766,-1.9046,-1.8533,-1.8461,-1.7868,-1.7687,-1.8146,-1.7694,-1.7286,-1.7004,-1.6463,-1.577,-1.4897,-1.5771,-1.6269,-1.6363,-1.7802,-1.8564,-1.8706,-1.9509,-1.9893,-1.9945,-2.0041,-2.0079,-2.0088,-2.0088,-2.0088,-2.0098,-2.0167,-2.018,-2.0231,-2.033,-2.0395,-2.0405,-0.2883,0.0,0.0,0.0,0.0,0.0,0.0,0.0,0.0,0.0,0.0,0.0,0.0,0.0,0.0,0.0,0.0,-0.7332,-0.7585,-0.7682,-0.7849,-0.807,-0.825,-0.8683,-0.9308,-0.9811,-1.0555,-1.1653,0.0,0.0,0.0,0.0,0.0,0.0,0.0,0.0,0.0,0.0,0.0,-2.2497,-2.1904,0.0,-2.0227,-2.1012,-2.1042,-2.0715,-2.1236,-2.1223,-2.0866,-2.0186,-2.0821,-2.159,0.0,0.0,0.0,-2.0265,0.0,0.0,0.0,0.0,0.0,0.0,-2.0034,0.0,-1.9564,-1.9101,-1.88,-1.9049,-1.8536,-1.8222,-1.8906,-1.8422,-1.7879,-1.7771,-1.829,-1.899,-1.9857,-1.9941,-1.992,-1.9941,-1.9342,-1.8934,-1.8923,-1.8213,-1.7652,-1.7495,-1.7887,-1.7347,-1.5564,-1.713,-1.7157,-1.5113,-1.6153,-1.6356,-1.5526,-1.6439,-1.723,-1.7882,-1.8301,-1.852,-1.858,-1.9374,-1.9462,-1.9011,-1.9665,-1.9991,-2.0088,-2.0088,-2.0088,-2.0098,-2.0116,-2.015,-2.0204,-2.0296,-2.036,-2.0405,-0.3388,0.0,0.0,0.0,0.0,0.0,0.0,0.0,0.0,0.0,0.0,0.0,0.0,0.0,0.0,0.0,0.0,0.0,0.0,0.0,-0.8766,-0.8676,-0.898,-0.914,-0.8936,-0.986,-1.0793,-1.1653,0.0,0.0,0.0,0.0,0.0,0.0,0.0,0.0,0.0,0.0,-2.3456,-2.4018,-2.3181,0.0,-2.1149,-2.2046,-2.1469,-2.0321,-2.1581,-2.1735,-2.1144,-2.0148,-2.0611,0.0,-2.1492,-2.1611,-2.1639,0.0,-2.0859,-2.0915,0.0,0.0,0.0,-1.98,-1.9267,0.0,0.0,-1.9231,-1.8661,-1.962,-1.8437,-1.7114,-1.6648,-1.662,-1.6625,-1.6565,-1.7405,-1.8098,-1.8279,-1.9133,-1.9601,-1.9197,-1.8737,-1.8277,-1.7842,-1.7034,-1.6332,-1.5741,-1.6066,-1.5943,-1.5141,-1.5931,-1.5987,-1.5123,-1.5478,-1.5515,-1.5105,-1.5563,-1.604,-1.6513,-1.6909,-1.7199,-1.7385,-1.8565,-1.9001,-1.884,-1.9659,-2.004,-2.0088,-2.0088,-2.0088,-2.0088,-2.0088,-2.0125,-2.0159,-2.0262,-2.0326,-2.0366,-0.4115,0.0,0.0,0.0,0.0,0.0,0.0,0.0,0.0,0.0,0.0,0.0,0.0,0.0,0.0,0.0,0.0,0.0,0.0,0.0,0.0,-0.9692,-1.0011,-0.9657,-0.8663,-0.9919,-1.0941,-1.1633,0.0,0.0,0.0,0.0,0.0,0.0,0.0,0.0,0.0,0.0,0.0,-2.4447,0.0,-2.2987,-2.1961,-2.2832,-2.1527,-1.9458,-2.108,-2.1352,-2.0824,-2.0089,-2.0481,-2.1442,-2.2525,-2.2102,0.0,0.0,0.0,0.0,-1.8878,-1.8926,-1.9259,-1.8928,-1.8216,-1.7936,0.0,0.0,0.0,-1.879,-1.7705,-1.6182,-1.4743,-1.5022,-1.5428,-1.5297,0.0,0.0,0.0,-1.7996,0.0,-1.8148,-1.7977,-1.7619,-1.6812,-1.5877,-1.4989,-1.4252,-1.4412,-1.4754,-1.5283,-1.4934,-1.4958,-1.5454,-1.4848,-1.4488,-1.4488,-1.4488,-1.4648,-1.4942,-1.5459,-1.5863,-1.6214,-1.7756,-1.851,-1.8686,-1.965,-2.0069,-2.0088,-2.0088,-2.0088,-2.0088,-2.0088,-2.0088,-2.0116,-2.0234,-2.0289,-2.032,-0.4797,-0.5926,0.0,0.0,0.0,0.0,0.0,0.0,0.0,0.0,0.0,0.0,0.0,0.0,0.0,0.0,0.0,0.0,-1.2534,0.0,0.0,0.0,-1.0382,-0.9581,-0.8792,-1.0191,-1.1098,-1.1439,0.0,0.0,0.0,0.0,0.0,0.0,-1.9578,0.0,0.0,0.0,-2.3095,0.0,-2.3428,-2.3341,0.0,-2.2817,-2.1779,-2.045,-1.9976,-2.0206,-2.0618,0.0,-2.0804,-2.2002,0.0,-2.1175,-2.1779,-1.8592,-1.8323,-1.8712,-1.7192,-1.7223,-1.7711,-1.7905,-1.8117,-1.817,-1.7718,0.0,-1.6853,-1.6913,0.0,-1.5119,-1.4803,0.0,0.0,0.0,-1.5012,-1.6094,-1.4764,-1.6666,-1.7841,-1.6918,-1.6899,-1.6721,-1.6164,-1.4981,-1.4257,-1.4198,-1.4913,-1.515,-1.4629,-1.5221,-1.5288,-1.4664,-1.4543,-1.4488,-1.4488,-1.4488,-1.4924,-1.5759,-1.5717,-1.5806,-1.608,-1.7608,-1.8076,-1.7729,-1.9256,-1.9991,-2.0088,-2.0088,-2.0088,-2.0088,-2.0088,-2.0088,-2.0107,-2.0192,-2.0248,-2.0314,-0.5021,-0.6382,0.0,0.0,0.0,0.0,0.0,0.0,0.0,0.0,0.0,0.0,0.0,0.0,0.0,0.0,0.0,-1.3,-1.4327,0.0,0.0,0.0,-1.1832,-1.0749,-1.027,-1.0691,-1.1154,0.0,-1.2979,0.0,0.0,0.0,0.0,0.0,-1.9811,0.0,-2.3562,0.0,-2.3295,0.0,0.0,-2.2817,0.0,-2.2887,-2.2186,-2.1155,-2.019,-2.0273,-2.0825,0.0,-2.136,0.0,0.0,0.0,-2.1272,-1.9734,-1.9077,-1.8567,-1.7169,-1.7629,-1.843,-1.8071,-1.8006,-1.8056,-1.8054,-1.7044,-1.618,-1.6389,0.0,0.0,0.0,0.0,0.0,0.0,-1.4317,-1.5006,-1.4838,0.0,-1.6427,-1.5911,-1.5908,-1.5637,-1.4859,-1.2723,-1.2103,-1.3902,-1.4367,-1.4495,-1.4325,-1.4764,-1.4848,-1.4506,-1.4488,-1.4499,-1.4492,-1.4499,-1.4733,-1.5197,-1.5065,-1.5388,-1.6149,-1.7224,-1.7931,-1.8345,-1.9021,-1.965,-2.0116,-1.961,-1.9706,-2.0155,-2.0155,-2.0126,-2.0107,-2.0175,-2.0241,-2.0314,-0.5775,0.0,0.0,0.0,0.0,0.0,0.0,0.0,0.0,0.0,0.0,0.0,-1.2083,-1.3197,0.0,0.0,-1.4689,-1.5553,-1.6653,-1.5551,-1.5216,-1.5973,-1.4009,-1.284,-1.2762,-1.2168,-1.205,-1.251,0.0,0.0,0.0,0.0,0.0,0.0,0.0,-2.2236,-2.4257,0.0,-2.318,-2.2964,-2.2307,-2.2203,-2.2424,-2.2546,-2.2111,-2.1307,-2.0511,-2.0622,-2.1185,-2.1562,-2.1657,-2.1816,-2.2656,-2.1971,-2.077,-2.0263,-1.9539,-1.8626,-1.7319,-1.795,-1.881,-1.81,-1.7612,-1.7424,-1.769,-1.6334,-1.5124,-1.5523,-1.4873,0.0,0.0,0.0,0.0,0.0,0.0,-1.4581,0.0,-1.547,-1.576,-1.5203,-1.4914,-1.4005,-1.2138,-1.1059,-1.1405,-1.3651,-1.3865,-1.2842,-1.0429,-1.2968,-1.4511,-1.4556,-1.4511,-1.4511,-1.4549,-1.4522,-1.4567,-1.4705,-1.4567,-1.4953,-1.5855,-1.6816,-1.7717,-1.8543,-1.8744,-1.9229,-1.979,-1.892,-1.9073,-1.9837,-1.9837,-1.9962,-2.0144,-2.02,-2.0275,-2.0326,-0.7507,-0.7197,0.0,0.0,0.0,0.0,0.0,0.0,0.0,0.0,0.0,0.0,0.0,0.0,0.0,0.0,-1.588,-1.6182,-2.0091,-1.7328,-1.6554,-1.8777,-1.6935,-1.606,-1.6508,-1.5139,-1.4345,-1.4231,-1.5942,0.0,0.0,0.0,0.0,0.0,0.0,-2.3785,-2.379,-2.3113,-2.2407,-2.1757,-2.1948,-2.1748,-2.1364,0.0,-2.1224,-2.0638,-2.0608,-2.104,-2.1603,-2.1025,-2.148,-2.2135,-2.1263,-2.0981,-2.0662,-1.8968,-1.8677,-1.8609,-1.727,-1.7508,-1.8036,-1.7541,-1.6781,-1.6056,-1.5681,-1.4395,-1.3378,-1.3711,-1.3295,-1.2852,-1.2869,0.0,0.0,0.0,0.0,0.0,0.0,0.0,-1.6338,-1.49,-1.3905,-1.1695,-0.7433,-1.0757,-1.3293,-1.3589,-1.3789,-0.997,-0.0945,-0.9389,-1.4567,-1.4697,-1.4578,-1.4563,-1.4701,-1.4574,-1.4574,-1.4701,-1.4574,-1.4622,-1.4898,-1.6414,-1.727,-1.7587,-1.8364,-1.8802,-1.8882,-1.8075,-1.8206,-1.8934,-1.8934,-1.946,-2.0205,-2.0265,-2.0341,-2.0399,0.0,0.0,0.0,0.0,0.0,0.0,0.0,-1.1836,0.0,0.0,-1.2968,0.0,0.0,-1.6088,-1.7239,-1.7928,-1.8254,-1.9206,-2.1097,-1.9687,-1.9386,-2.0726,-1.8662,-1.7766,-1.8478,-1.6735,-1.6271,-1.7213,-1.7805,-1.8723,0.0,0.0,0.0,0.0,0.0,-2.3277,0.0,0.0,0.0,0.0,0.0,-2.0536,-2.0107,0.0,-2.0809,-2.0606,-2.1102,-2.1379,-2.1535,-2.1729,-2.2156,-2.2558,-2.2146,-2.1481,-2.0726,-1.9943,-1.9324,-1.8815,-1.8463,-1.9296,-1.9952,-1.8598,-1.7861,-1.7126,-1.5801,-1.4264,-1.3039,-1.2706,-1.2941,-1.3052,-1.2553,0.0,0.0,0.0,0.0,0.0,0.0,0.0,-1.5189,-1.4874,-1.3929,-1.272,-1.1239,-1.2556,-1.3542,-1.3589,-1.2719,-0.861,-0.0433,-0.8406,-1.3662,-1.453,-1.4618,-1.4643,-1.4705,-1.4707,-1.4718,-1.4766,-1.5289,-1.5911,-1.6602,-1.713,-1.7747,-1.8382,-1.7532,-1.7527,-1.8033,-1.719,-1.7332,-1.8152,-1.8736,-1.9158,-1.9465,-2.0019,-2.0292,-2.0347,-1.1505,0.0,0.0,0.0,0.0,0.0,0.0,0.0,0.0,-1.4612,-1.5064,-1.5559,-1.6327,-1.7846,-1.8773,-1.8696,-1.9592,-2.0571,-2.1501,-2.0604,-2.0563,-2.1757,-1.922,-1.8156,-1.8961,-1.7477,-1.715,-1.8105,-1.8726,-1.9473,0.0,0.0,0.0,0.0,0.0,-2.2561,-2.2665,-2.1611,-2.1035,0.0,0.0,-1.9989,0.0,0.0,-2.048,-2.0614,-2.1324,-2.1507,-2.1502,-2.189,-2.2231,-2.2502,-2.2402,-2.187,-2.1234,-2.1052,-2.0619,-2.0146,-1.9986,-2.0764,-2.125,-1.982,-1.8947,-1.8078,-1.6661,-1.5035,-1.3683,-1.323,-1.3271,-1.3274,-1.302,0.0,0.0,0.0,0.0,0.0,0.0,-1.511,-1.4558,-1.4642,-1.3753,-1.3158,-1.321,-1.3345,-1.3461,-1.3559,-1.1641,-0.8881,-0.522,-1.0527,-1.4126,-1.5102,-1.5099,-1.494,-1.4705,-1.4737,-1.4747,-1.4766,-1.5367,-1.5942,-1.6545,-1.6838,-1.7312,-1.7886,-1.6796,-1.6663,-1.7174,-1.631,-1.649,-1.7329,-1.7895,-1.8484,-1.9092,-1.9964,-2.0321,-2.042,-1.3163,0.0,0.0,0.0,-1.2317,0.0,0.0,0.0,-1.447,-1.5257,-1.7502,-1.9223,-1.9792,-1.999,-2.0078,-2.0032,-1.9858,-2.0217,-2.1311,-2.0128,-2.0108,-2.1798,-1.8788,-1.7441,-1.822,-1.7462,-1.7085,-1.7128,-1.8794,-1.9788,0.0,0.0,0.0,0.0,-2.2445,0.0,-2.0917,-2.1552,-2.0882,-1.9414,-1.9893,-1.9847,-1.9594,-1.9834,-2.0196,-2.0614,-2.1229,-2.1415,-2.1415,-2.1477,-2.1718,-2.1998,-2.1998,-2.2039,-2.2096,-2.2068,-2.2258,-2.2331,-2.1711,-2.1736,-2.1791,-2.1057,-1.9888,-1.8724,-1.7997,-1.6414,-1.5059,-1.5015,-1.4116,-1.3537,-1.413,0.0,0.0,0.0,0.0,0.0,0.0,0.0,-1.4442,-1.4214,-1.3341,-1.2848,-1.3048,-1.3003,-1.3126,-1.3479,-1.0847,-1.065,0.0,-1.5056,-1.5792,-1.622,-1.59,-1.5397,-1.4712,-1.4703,-1.4732,-1.4703,-1.4823,-1.4878,-1.4916,-1.5677,-1.6102,-1.62,-1.6162,-1.6216,-1.6278,-1.5516,-1.5701,-1.6439,-1.6491,-1.7528,-1.9123,-2.005,-2.048,-2.0584,-1.3391,-1.5506,-1.733,0.0,-1.6177,-1.5775,0.0,0.0,-1.6979,-1.7578,-1.7755,-1.819,-1.9135,-1.9526,-1.96,-1.9245,-1.9122,-1.9312,-1.9888,-1.9257,-1.9215,-1.9965,-1.8866,-1.838,-1.8635,-1.8314,-1.8415,-1.9011,-1.9509,-1.9983,-2.0424,0.0,0.0,0.0,0.0,0.0,-2.1714,-2.1051,-2.0153,-1.9022,-1.7173,-1.7311,-1.8664,0.0,-1.9383,-1.9666,-2.0413,-2.0481,-2.0382,-2.1259,-2.1628,-2.1748,-2.201,-2.201,-2.194,-2.184,-2.1899,-2.1977,-2.1888,-2.2288,-2.2397,-2.1002,-1.9863,-1.869,-1.7302,-1.5796,-1.4761,-1.515,-1.4717,-1.4399,-1.4904,-1.4921,0.0,0.0,0.0,0.0,0.0,0.0,-1.3529,-1.4041,-1.3081,-1.2443,-1.2633,-1.179,-1.1872,-1.3375,-1.2778,-1.2808,-1.3888,-1.426,-1.4645,-1.5096,-1.5639,-1.5559,-1.4785,-1.4919,-1.4952,-1.4866,-1.5622,-1.5986,-1.6005,-1.6206,-1.6317,-1.6311,-1.5651,-1.5421,-1.5501,-1.5292,-1.5362,-1.5674,-1.6327,-1.7629,-1.9239,-2.002,-2.0376,-2.0453,-1.6076,-1.7579,0.0,-1.9767,0.0,0.0,-1.7941,-1.8459,-1.9001,-1.9054,-1.8764,-1.8616,-1.8806,-1.8977,-1.8735,-1.7881,-1.7853,-1.7971,-1.8168,-1.7401,-1.7125,-1.7521,-1.6638,-1.6293,-1.6664,-1.6127,-1.6678,-1.8408,-1.8114,0.0,-1.9546,0.0,0.0,0.0,0.0,-2.0841,-2.0505,-1.8454,-1.8057,-1.8645,-1.6009,-1.629,0.0,-1.8563,-1.864,-1.8693,-1.9266,-1.9702,-2.0074,-2.0862,-2.1323,-2.1598,-2.1777,-2.1911,-2.194,-2.184,-2.1869,-2.1882,-2.1969,-2.2281,-2.2272,-2.1035,-2.0326,-1.9527,-1.813,-1.6982,-1.6208,-1.6326,-1.6136,-1.5912,-1.5772,-1.5768,0.0,0.0,0.0,0.0,0.0,-1.4229,-1.3243,-1.3543,-1.2614,-1.1978,-1.2097,-1.1909,-1.2205,-1.3211,-1.3462,-1.3995,0.0,-1.5092,-1.5447,-1.6164,-1.633,-1.6001,-1.5197,-1.4991,-1.4857,-1.4813,-1.5428,-1.5714,-1.5746,-1.5746,-1.5769,-1.5807,-1.5304,-1.5133,-1.5207,-1.5201,-1.5212,-1.5384,-1.6642,-1.7742,-1.876,-1.9944,-2.0433,-2.0497,-2.02,-1.9723,0.0,0.0,0.0,0.0,0.0,-1.9711,-2.0407,-2.0003,-1.9979,-1.9593,-1.8569,-1.8331,-1.7749,-1.6492,-1.6495,-1.647,-1.6293,-1.5149,-1.4613,-1.4929,-1.354,-1.3085,-1.371,-1.2921,-1.3868,-1.6578,0.0,0.0,0.0,0.0,0.0,0.0,0.0,0.0,0.0,-1.5219,-1.5642,-1.8303,-1.5792,-1.618,-1.824,-1.8135,-1.8003,-1.7868,-1.8121,-1.9029,-2.0058,-2.0379,-2.0893,-2.1462,-2.1507,-2.1764,-2.1969,-2.1969,-2.1969,-2.1969,-2.1969,-2.1982,-2.1816,-2.0971,-2.0703,-2.0353,-1.9213,-1.842,-1.7809,-1.7434,-1.7468,-1.7221,-1.6263,-1.6118,0.0,0.0,0.0,0.0,-1.4594,-1.3854,-1.3173,-1.2775,-1.2074,0.0,-1.1681,-1.2678,-1.3239,-1.2979,-1.3514,-1.4558,-1.6169,-1.6471,-1.7031,-1.7945,-1.7399,-1.6646,-1.5717,-1.5092,-1.4746,-1.4683,-1.4766,-1.4847,-1.4896,-1.4912,-1.4977,-1.5094,-1.5094,-1.514,-1.5197,-1.5204,-1.5217,-1.5376,-1.7016,-1.775,-1.8114,-1.9744,-2.0453,-2.0593,-2.4198,0.0,0.0,0.0,0.0,-2.3179,-1.8925,-1.9414,-2.0407,-2.0736,-2.0287,-1.9355,-1.7861,-1.7527,-1.7096,-1.6307,-1.6015,-1.5517,-1.4682,-1.3828,-1.3243,-1.2998,-1.2754,-1.2661,-1.2731,-1.2997,-1.3888,-1.5485,0.0,0.0,0.0,0.0,0.0,0.0,0.0,0.0,-1.8473,-1.4854,0.0,-1.7981,-1.5523,-1.595,-1.7949,-1.7733,-1.7611,-1.7611,-1.7787,-1.8433,-1.9251,-2.0128,-2.0698,-2.1119,-2.1645,-2.184,-2.1811,-2.1768,-2.1768,-2.1768,-2.1811,-2.1969,-2.1757,-2.042,-1.972,-1.8994,-1.7451,-1.6466,-1.5848,-1.5698,-1.6164,-1.625,-1.5117,-1.4813,-1.4772,0.0,0.0,-1.4117,-1.364,-1.32,-1.2641,-1.1916,-1.1829,-1.1907,-1.2077,-1.3031,-1.3398,-1.2794,-1.3956,-1.4923,-1.5467,-1.6196,-1.6816,-1.725,-1.7787,-1.733,-1.5794,-1.5769,-1.537,-1.4624,-1.4803,-1.4887,-1.4904,-1.5004,-1.5085,-1.5099,-1.5099,-1.5133,-1.5189,-1.5199,-1.5231,-1.5378,-1.6415,-1.7293,-1.8115,-1.9129,-1.9975,-2.0607,-2.4564,0.0,0.0,0.0,0.0,0.0,-1.8325,-1.8181,-1.8906,-1.9802,-1.9446,-1.8762,-1.7866,-1.6977,-1.6233,-1.5634,-1.5109,-1.453,-1.3874,-1.3144,-1.2567,-1.214,-1.1959,-1.1872,-1.1847,-1.1387,-1.2425,-1.5006,-1.4518,0.0,0.0,0.0,0.0,0.0,0.0,-1.8626,0.0,0.0,-1.4647,-1.7072,-1.4867,-1.5243,-1.7199,-1.7214,-1.7173,-1.7089,-1.7173,-1.7693,-1.8535,-1.9803,-2.0436,-2.0814,-2.1568,-2.1768,-2.1738,-2.1664,-2.1634,-2.1664,-2.1694,-2.1398,-2.0717,-1.9182,-1.8374,-1.7663,-1.6439,-1.6063,-1.6001,-1.6236,-1.7311,-1.7969,-1.7073,-1.5858,-1.4987,-1.5013,-1.4042,-1.3204,-1.3063,-1.2858,-1.2165,-1.0597,-1.1163,-1.1426,-1.0753,-1.2009,-1.2915,-1.3,-1.3948,-1.4822,-1.5472,-1.6284,-1.7126,-1.8053,-1.8227,-1.7662,-1.6336,-1.6105,-1.5562,-1.4708,-1.4803,-1.4873,-1.4904,-1.4981,-1.5038,-1.5092,-1.5092,-1.512,-1.5159,-1.5188,-1.525,-1.5401,-1.6256,-1.717,-1.8111,-1.8971,-1.9831,-2.0558,0.0,-2.3929,0.0,0.0,-2.2551,-2.0766,-1.7425,-1.6905,-1.7296,-1.8378,-1.8,-1.7578,-1.738,-1.6243,-1.5301,-1.4845,-1.4278,-1.3722,-1.3229,-1.272,-1.2186,-1.159,-1.1404,-1.1255,-1.1067,-1.0196,-1.1365,-1.4635,-1.3857,0.0,0.0,0.0,0.0,0.0,0.0,0.0,0.0,0.0,-1.4732,-1.6371,-1.4777,-1.5081,-1.6479,-1.671,-1.6795,-1.671,-1.671,-1.7173,-1.8001,-1.9468,-2.0153,-2.0522,-2.1401,-2.1664,-2.1617,-2.1559,-2.1336,-2.1097,-2.1128,-2.0349,-1.9186,-1.769,-1.6967,-1.6386,-1.5597,-1.5667,-1.5986,-1.6408,-1.7693,-1.8842,-1.9233,-1.7242,-1.5498,-1.5294,-1.3742,-1.2496,-1.2401,-1.2399,-1.1678,-0.9672,-1.06,-1.1007,-1.0059,-1.1403,-1.2719,-1.365,-1.4,-1.4747,-1.6102,-1.6559,-1.7493,-1.896,-1.8636,-1.7886,-1.6785,-1.6355,-1.5681,-1.4785,-1.4803,-1.4856,-1.4896,-1.4938,-1.4996,-1.5092,-1.5092,-1.5099,-1.5094,-1.5158,-1.5327,-1.559,-1.6305,-1.7264,-1.8322,-1.9019,-1.9804,-2.0506,0.0,0.0,0.0,0.0,0.0,-1.5802,-1.621,-1.6277,-1.6532,-1.7175,-1.6009,-1.516,-1.528,-1.4791,-1.4337,-1.4117,-1.3875,-1.3293,-1.2282,-1.252,-1.2077,-1.0774,-1.1367,-1.1404,-1.0659,-1.1237,-1.2361,-1.4058,-1.4267,-1.5621,0.0,0.0,0.0,0.0,0.0,0.0,-1.452,-1.5656,-1.6291,-1.6497,-1.6283,-1.6206,-1.6244,-1.6275,-1.6436,-1.671,-1.671,-1.7131,-1.7894,-1.9082,-1.9733,-2.0234,-2.1293,-2.1542,-2.1417,-2.134,-2.048,-1.9546,-1.9594,-1.8653,-1.7344,-1.6028,-1.566,-1.536,-1.4372,-1.4146,-1.4092,-1.3881,-1.4426,-1.5932,-1.9308,-1.7593,-1.5627,-1.5498,-1.4033,-1.2514,-1.1225,-1.1289,-1.107,-1.0061,-1.0587,-1.1348,-1.2123,-1.275,-1.3661,-1.5003,-1.4425,-1.5088,-1.7563,-1.7133,-1.7478,-1.896,-1.8892,-1.8149,-1.6718,-1.6666,-1.5987,-1.4709,-1.4828,-1.4887,-1.4904,-1.503,-1.5085,-1.5092,-1.5092,-1.5092,-1.5099,-1.5106,-1.5575,-1.6316,-1.6459,-1.7529,-1.9001,-1.9163,-1.9762,-2.0506,0.0,0.0,0.0,0.0,0.0,-1.558,-1.6111,-1.6055,-1.6055,-1.6289,-1.5448,-1.4839,-1.4871,-1.4714,-1.4369,-1.3868,-1.3769,-1.3421,-1.2801,-1.2579,-1.2113,-1.1367,-1.1627,-1.1553,-1.0954,-1.1516,-1.2446,-1.3801,-1.4737,-1.5984,0.0,0.0,0.0,0.0,-1.7168,-1.6531,-1.5193,-1.5262,-1.5107,-1.4789,-1.4994,-1.5062,-1.5153,-1.5322,-1.5812,-1.6392,-1.6392,-1.6603,-1.7089,-1.8127,-1.912,-2.0062,-2.1134,-2.1433,-2.1355,-2.1087,-2.0209,-1.9245,-1.9019,-1.7742,-1.6221,-1.5277,-1.4688,-1.4139,-1.3357,-1.3297,-1.3573,-1.4093,-1.5562,-1.7166,-1.8621,-1.7548,-1.6128,-1.5049,-1.3577,-1.2196,-1.1175,-1.1448,-1.0978,-0.8876,-1.0344,-1.1404,-1.1043,-1.1716,-1.3089,-1.527,-1.4976,-1.5791,-1.8249,-1.7221,-1.7225,-1.8699,-1.8824,-1.8118,-1.6584,-1.6775,-1.6232,-1.4936,-1.4992,-1.5023,-1.503,-1.4996,-1.4957,-1.4917,-1.4917,-1.4942,-1.5027,-1.554,-1.6017,-1.6452,-1.7043,-1.8024,-1.9109,-1.9179,-1.974,-2.0503,-1.9531,0.0,-1.5799,-1.5799,-1.5799,-1.5856,-1.6055,-1.5913,-1.5654,-1.5269,-1.4794,-1.4525,-1.4525,-1.4525,-1.4241,-1.3669,-1.3433,-1.3229,-1.2988,-1.2508,-1.2161,-1.1884,-1.2031,-1.1886,-1.1344,-1.1981,-1.286,-1.387,-1.4987,-1.6127,-1.7269,0.0,0.0,-1.6759,-1.6736,-1.5897,-1.457,-1.4485,-1.4201,-1.3847,-1.4097,-1.4294,-1.4512,-1.4731,-1.5232,-1.58,-1.583,-1.6032,-1.6467,-1.734,-1.849,-1.9722,-2.0671,-2.1067,-2.115,-2.0714,-1.9597,-1.8434,-1.7886,-1.6411,-1.4849,-1.4115,-1.3594,-1.316,-1.2649,-1.2814,-1.3459,-1.4907,-1.6629,-1.7993,-1.8377,-1.771,-1.6681,-1.5343,-1.3992,-1.2627,-1.1403,-1.1384,-1.07,-0.8612,-0.9855,-1.084,-1.076,-1.151,-1.3011,-1.5485,-1.5564,-1.6343,-1.8253,-1.7342,-1.7308,-1.8589,-1.8699,-1.8066,-1.6661,-1.6848,-1.629,-1.5019,-1.4984,-1.4976,-1.4984,-1.489,-1.4821,-1.4766,-1.4785,-1.4822,-1.4921,-1.5826,-1.6404,-1.6792,-1.7742,-1.8664,-1.9454,-1.9523,-1.9961,-2.05,-1.5844,-1.5829,-1.5799,-1.5799,-1.5799,-1.5799,-1.5799,-1.5799,-1.5329,-1.4007,-1.3821,-1.3821,-1.3821,-1.3821,-1.3695,-1.3421,-1.2814,-1.2413,-1.2413,-1.2222,-1.2113,-1.2113,-1.262,-1.2485,-1.16,-1.2892,-1.3811,-1.4304,-1.5024,-1.6055,-1.7312,-1.7585,-1.6034,-1.3159,-1.5122,-1.4305,-1.1578,-1.3565,-1.4373,-1.4384,-1.4373,-1.4512,-1.4708,-1.4708,-1.4789,-1.4937,-1.4912,-1.5439,-1.6205,-1.6817,-1.7892,-1.9113,-1.9719,-2.0384,-2.0812,-2.0268,-1.851,-1.6557,-1.5757,-1.4417,-1.306,-1.2341,-1.233,-1.2484,-1.2437,-1.2648,-1.3578,-1.5891,-1.6666,-1.7409,-1.8996,-1.8187,-1.7143,-1.6742,-1.5656,-1.4086,-1.1904,-1.0624,-0.9944,-0.9978,-0.907,-0.9536,-1.2301,-1.2955,-1.3997,-1.5948,-1.6153,-1.6605,-1.7574,-1.7523,-1.7861,-1.8664,-1.8645,-1.8082,-1.6996,-1.6872,-1.6121,-1.4793,-1.4738,-1.4699,-1.4699,-1.4699,-1.4699,-1.4699,-1.4766,-1.4756,-1.4784,-1.58,-1.6668,-1.7491,-1.8488,-1.9449,-2.0296,-2.0363,-2.0428,-2.0497,-1.577,-1.5058,-1.4718,-1.5639,-1.5799,-1.5799,-1.5799,-1.5799,-1.5654,-1.5209,-1.413,-1.3506,-1.3788,-1.3539,-1.3472,-1.3661,-1.2779,-1.2365,-1.2733,-1.2551,-1.243,-1.243,-1.2758,-1.2784,-1.2485,-1.2885,-1.333,-1.3817,-1.4941,-1.6055,-1.7227,-1.7034,-1.6328,-1.518,-1.5555,-1.4794,-1.327,-1.3676,-1.342,-1.2745,-1.2997,-1.3276,-1.3542,-1.3847,-1.4155,-1.4458,-1.474,-1.47,-1.4688,-1.5585,-1.6478,-1.7359,-1.8408,-1.9465,-2.0208,-1.9379,-1.7813,-1.6112,-1.4868,-1.3705,-1.2763,-1.223,-1.2102,-1.209,-1.2198,-1.2602,-1.3353,-1.4621,-1.5448,-1.6192,-1.698,-1.7067,-1.6749,-1.5887,-1.5281,-1.4277,-1.2539,-1.2409,-1.1836,-1.0072,-1.1307,-1.3065,-1.5077,-1.435,-1.4502,-1.6303,-1.633,-1.6745,-1.7827,-1.7458,-1.7643,-1.8534,-1.851,-1.7932,-1.6803,-1.6656,-1.5979,-1.4738,-1.4708,-1.4687,-1.4635,-1.4635,-1.4592,-1.4497,-1.4526,-1.4855,-1.5466,-1.6469,-1.7409,-1.8331,-1.9323,-1.9896,-2.0177,-2.025,-2.027,-2.0299,-1.5566,-1.4529,-1.3828,-1.469,-1.5269,-1.5595,-1.5595,-1.5595,-1.5433,-1.4876,-1.3868,-1.3301,-1.3539,-1.3335,-1.3082,-1.2756,-1.233,-1.2246,-1.2579,-1.2499,-1.2615,-1.2947,-1.3119,-1.3162,-1.3162,-1.3336,-1.3663,-1.4105,-1.5014,-1.5825,-1.6539,-1.6256,-1.6008,-1.5691,-1.5457,-1.4732,-1.369,-1.3447,-1.288,-1.2107,-1.2353,-1.2745,-1.317,-1.342,-1.3598,-1.3729,-1.3982,-1.3795,-1.3643,-1.486,-1.5849,-1.6787,-1.7902,-1.882,-1.9289,-1.8376,-1.7056,-1.5475,-1.3788,-1.2968,-1.2417,-1.1711,-1.1653,-1.1836,-1.2066,-1.239,-1.2857,-1.3683,-1.4443,-1.5081,-1.5462,-1.593,-1.6022,-1.5373,-1.5301,-1.4717,-1.295,-1.3079,-1.2631,-1.0781,-1.1764,-1.3304,-1.5037,-1.4038,-1.4064,-1.6,-1.6033,-1.639,-1.7366,-1.7222,-1.7446,-1.8145,-1.8125,-1.7538,-1.6363,-1.6529,-1.5945,-1.4624,-1.4581,-1.4692,-1.4928,-1.4569,-1.4526,-1.4723,-1.4427,-1.4592,-1.5202,-1.6571,-1.7459,-1.809,-1.9404,-1.9934,-1.9955,-1.9992,-2.0071,-2.0115,-1.5178,-1.4176,-1.3369,-1.3369,-1.4433,-1.5313,-1.5313,-1.5313,-1.4825,-1.3527,-1.3267,-1.3198,-1.3198,-1.3198,-1.2627,-1.1174,-1.1712,-1.2113,-1.2113,-1.2179,-1.2615,-1.3558,-1.3584,-1.3618,-1.3618,-1.4109,-1.4512,-1.4858,-1.5164,-1.5344,-1.5344,-1.5344,-1.5164,-1.4869,-1.4869,-1.4201,-1.3064,-1.3064,-1.2812,-1.2414,-1.2463,-1.2812,-1.3362,-1.342,-1.3181,-1.2865,-1.2904,-1.2892,-1.3127,-1.4555,-1.5887,-1.7122,-1.7949,-1.8245,-1.811,-1.7306,-1.6218,-1.4832,-1.2736,-1.2272,-1.2151,-1.1005,-1.1126,-1.1653,-1.2018,-1.202,-1.2224,-1.3054,-1.365,-1.4146,-1.4502,-1.4882,-1.5122,-1.5154,-1.5606,-1.5231,-1.3177,-1.286,-1.259,-1.1966,-1.1005,-1.1146,-1.3041,-1.2616,-1.3084,-1.5177,-1.5346,-1.5655,-1.6298,-1.6707,-1.7115,-1.7483,-1.7516,-1.6965,-1.5799,-1.6397,-1.5966,-1.4464,-1.4386,-1.4738,-1.5428,-1.4566,-1.4563,-1.5249,-1.4441,-1.4136,-1.4337,-1.6235,-1.6988,-1.7164,-1.8942,-1.9669,-1.9693,-1.9644,-1.9796,-1.999,-1.3914,-1.4305,-1.4794,-1.4794,-1.5086,-1.5313,-1.5313,-1.5313,-1.5178,-1.4856,-1.3881,-1.3198,-1.3198,-1.3198,-1.306,-1.2697,-1.2437,-1.2294,-1.227,-1.223,-1.2637,-1.3558,-1.3611,-1.3596,-1.3596,-1.37,-1.4071,-1.4595,-1.4408,-1.4547,-1.4994,-1.4777,-1.4593,-1.4512,-1.4512,-1.4129,-1.3467,-1.3467,-1.3142,-1.2657,-1.2929,-1.3064,-1.3122,-1.342,-1.3238,-1.2917,-1.3554,-1.353,-1.3323,-1.4714,-1.5462,-1.6028,-1.6946,-1.6738,-1.6204,-1.6608,-1.61,-1.5176,-1.3877,-1.3114,-1.2462,-1.1829,-1.1253,-1.0916,-1.1207,-1.1494,-1.1886,-1.2625,-1.3123,-1.3596,-1.4114,-1.4319,-1.4446,-1.4774,-1.46,-1.4041,-1.2968,-1.3453,-1.3604,-1.2811,-1.3109,-1.3636,-1.432,-1.3848,-1.3813,-1.4641,-1.4913,-1.52,-1.5612,-1.5312,-1.5539,-1.643,-1.6699,-1.645,-1.5654,-1.5746,-1.5252,-1.4208,-1.463,-1.4929,-1.5121,-1.4881,-1.4883,-1.5021,-1.4378,-1.4449,-1.5131,-1.6509,-1.7379,-1.7964,-1.9363,-1.9811,-1.965,-1.9141,-1.9387,-1.9895,-1.3493,-1.3815,-1.4529,-1.5192,-1.5313,-1.5313,-1.5313,-1.4763,-1.4337,-1.4337,-1.3648,-1.3198,-1.3198,-1.3198,-1.3198,-1.3198,-1.2733,-1.2222,-1.17,-1.1883,-1.2509,-1.3558,-1.3621,-1.3621,-1.3621,-1.3621,-1.3752,-1.4107,-1.3847,-1.3894,-1.4212,-1.3978,-1.3894,-1.3941,-1.3894,-1.3658,-1.3314,-1.3467,-1.3228,-1.2852,-1.3256,-1.3437,-1.3484,-1.3505,-1.3331,-1.3028,-1.3231,-1.3141,-1.3087,-1.4308,-1.4918,-1.5309,-1.6028,-1.5865,-1.5447,-1.5526,-1.5262,-1.4643,-1.3299,-1.2868,-1.2611,-1.1958,-1.1257,-1.084,-1.1207,-1.1282,-1.1457,-1.2031,-1.2283,-1.2531,-1.2857,-1.2872,-1.305,-1.3638,-1.3293,-1.2963,-1.305,-1.3643,-1.3885,-1.3375,-1.3571,-1.3792,-1.3901,-1.3132,-1.2957,-1.379,-1.4085,-1.4514,-1.518,-1.5056,-1.5135,-1.5505,-1.5738,-1.552,-1.4832,-1.4873,-1.4621,-1.4058,-1.4397,-1.4676,-1.4945,-1.4515,-1.4517,-1.4828,-1.4184,-1.4153,-1.4654,-1.5837,-1.6753,-1.7519,-1.8569,-1.8952,-1.8874,-1.8867,-1.9027,-1.92,-1.3391,-1.3323,-1.3881,-1.5086,-1.5117,-1.498,-1.498,-1.3947,-1.3129,-1.3129,-1.3288,-1.3369,-1.3163,-1.2908,-1.2756,-1.2756,-1.2389,-1.192,-1.1287,-1.1504,-1.2212,-1.3464,-1.3515,-1.3573,-1.3573,-1.3573,-1.361,-1.3573,-1.3467,-1.3409,-1.342,-1.3314,-1.3314,-1.342,-1.3314,-1.317,-1.3064,-1.3409,-1.3362,-1.3208,-1.3627,-1.3956,-1.4143,-1.3742,-1.3512,-1.3324,-1.2894,-1.2683,-1.2829,-1.3814,-1.439,-1.4801,-1.5186,-1.5295,-1.5071,-1.4365,-1.4212,-1.3889,-1.2392,-1.2456,-1.268,-1.1719,-1.1195,-1.1029,-1.1468,-1.1207,-1.1029,-1.1505,-1.1579,-1.159,-1.159,-1.1489,-1.1673,-1.2518,-1.2107,-1.2078,-1.3149,-1.35,-1.3678,-1.3633,-1.3178,-1.2844,-1.2871,-1.1766,-1.1554,-1.2773,-1.3056,-1.3589,-1.4568,-1.4903,-1.4898,-1.4538,-1.4809,-1.4623,-1.3877,-1.4005,-1.4037,-1.3927,-1.4021,-1.4313,-1.4777,-1.3973,-1.3991,-1.4607,-1.3965,-1.3698,-1.3796,-1.4945,-1.5829,-1.6502,-1.7356,-1.7708,-1.7809,-1.8528,-1.8585,-1.8421,-1.3047,-1.3967,-1.5041,-1.5253,-1.4305,-1.3527,-1.3527,-1.3082,-1.278,-1.278,-1.3802,-1.4111,-1.2908,-1.1542,-1.0764,-1.0764,-1.0687,-1.1282,-1.2768,-1.17,-1.1696,-1.3195,-1.3266,-1.3314,-1.342,-1.3515,-1.3515,-1.3409,-1.3515,-1.3573,-1.3573,-1.3573,-1.3573,-1.3573,-1.3573,-1.3467,-1.3362,-1.3894,-1.3978,-1.3873,-1.4329,-1.456,-1.4606,-1.4525,-1.4168,-1.3752,-1.4068,-1.3829,-1.3507,-1.4106,-1.4301,-1.4404,-1.4435,-1.419,-1.3873,-1.3752,-1.3705,-1.3721,-1.3843,-1.339,-1.2674,-1.1732,-1.1196,-1.0992,-1.1442,-1.1217,-1.1029,-1.1442,-1.1774,-1.2004,-1.2004,-1.1687,-1.1708,-1.2636,-1.1887,-1.1566,-1.2652,-1.2984,-1.3155,-1.3273,-1.2614,-1.2312,-1.2706,-1.1538,-1.1057,-1.177,-1.2035,-1.2322,-1.2794,-1.3002,-1.3184,-1.3287,-1.423,-1.4413,-1.3743,-1.3653,-1.3592,-1.3593,-1.4041,-1.429,-1.439,-1.4236,-1.4234,-1.4338,-1.3901,-1.3698,-1.3796,-1.5063,-1.5578,-1.5684,-1.672,-1.7059,-1.7,-1.7238,-1.7775,-1.8404,-1.3802,-1.4465,-1.5025,-1.5025,-1.4497,-1.4046,-1.4046,-1.4065,-1.4098,-1.4098,-1.4013,-1.3615,-1.278,-1.2041,-1.159,-1.159,-1.159,-1.1957,-1.2885,-1.2491,-1.2951,-1.4505,-1.4025,-1.3552,-1.3314,-1.3362,-1.3362,-1.3314,-1.3344,-1.3354,-1.3354,-1.3248,-1.3286,-1.3362,-1.3344,-1.3583,-1.3941,-1.4222,-1.4536,-1.4858,-1.5175,-1.5266,-1.522,-1.4709,-1.4305,-1.4035,-1.3763,-1.3488,-1.3248,-1.3478,-1.3573,-1.3573,-1.3573,-1.318,-1.2852,-1.3152,-1.303,-1.2965,-1.342,-1.2871,-1.2022,-1.1605,-1.1378,-1.1217,-1.118,-1.1029,-1.0878,-1.084,-1.0992,-1.1217,-1.1404,-1.0832,-1.0776,-1.2189,-1.1269,-1.099,-1.2721,-1.2833,-1.2753,-1.2829,-1.2589,-1.2275,-1.1828,-1.1387,-1.1242,-1.1526,-1.1869,-1.236,-1.3066,-1.3283,-1.344,-1.3533,-1.3799,-1.3852,-1.3652,-1.3573,-1.3494,-1.3396,-1.3632,-1.3729,-1.3656,-1.3656,-1.3656,-1.3657,-1.3647,-1.3652,-1.3735,-1.4942,-1.54,-1.5418,-1.6331,-1.6725,-1.6854,-1.7348,-1.789,-1.841,-1.4606,-1.4543,-1.4305,-1.4305,-1.4305,-1.4433,-1.4746,-1.5025,-1.5192,-1.5192,-1.4241,-1.3357,-1.2745,-1.2709,-1.2709,-1.2709,-1.2709,-1.2914,-1.3371,-1.3766,-1.453,-1.5756,-1.4547,-1.3621,-1.3132,-1.317,-1.317,-1.318,-1.3152,-1.3113,-1.3113,-1.3017,-1.3045,-1.3218,-1.3296,-1.3678,-1.428,-1.4558,-1.496,-1.5424,-1.5691,-1.5792,-1.5691,-1.4812,-1.4398,-1.4212,-1.3344,-1.292,-1.2725,-1.2881,-1.2725,-1.2529,-1.2676,-1.2323,-1.1959,-1.2308,-1.211,-1.1855,-1.2457,-1.2047,-1.1537,-1.1616,-1.1555,-1.1479,-1.1367,-1.1105,-1.084,-1.0621,-1.0505,-1.0544,-1.084,-1.0251,-1.0246,-1.1845,-1.1031,-1.088,-1.296,-1.2918,-1.2666,-1.2621,-1.2631,-1.2337,-1.1505,-1.1401,-1.1499,-1.1776,-1.1988,-1.2505,-1.3416,-1.3569,-1.3704,-1.3798,-1.3475,-1.3396,-1.3557,-1.3713,-1.3717,-1.3565,-1.3752,-1.3682,-1.3388,-1.3476,-1.3358,-1.3156,-1.3461,-1.3708,-1.3914,-1.4647,-1.519,-1.5577,-1.5773,-1.6232,-1.6834,-1.7435,-1.7913,-1.8387,-1.4777,-1.3735,-1.2838,-1.2838,-1.2838,-1.331,-1.4606,-1.4839,-1.4839,-1.4839,-1.4746,-1.4176,-1.2838,-1.2709,-1.2709,-1.2709,-1.2709,-1.3504,-1.5432,-1.5592,-1.5664,-1.5792,-1.3988,-1.2978,-1.2929,-1.3084,-1.318,-1.3133,-1.3142,-1.317,-1.317,-1.317,-1.317,-1.3218,-1.3695,-1.3894,-1.3915,-1.4846,-1.521,-1.5153,-1.5614,-1.5792,-1.5748,-1.5244,-1.4731,-1.4212,-1.3705,-1.2949,-1.2224,-1.2725,-1.2215,-1.141,-1.1968,-1.1769,-1.124,-1.1042,-1.0714,-1.0611,-1.1455,-1.161,-1.157,-1.1977,-1.1768,-1.17,-1.2413,-1.17,-1.0992,-1.133,-1.1105,-1.0878,-1.0878,-1.0801,-1.1042,-1.2046,-1.1676,-1.1761,-1.3082,-1.3213,-1.3132,-1.3063,-1.2535,-1.231,-1.2719,-1.1716,-1.1499,-1.2609,-1.2164,-1.2107,-1.2735,-1.2675,-1.277,-1.3153,-1.326,-1.3379,-1.3512,-1.4057,-1.4325,-1.4324,-1.5073,-1.5037,-1.4306,-1.4572,-1.4161,-1.3295,-1.3509,-1.4019,-1.4658,-1.4141,-1.4872,-1.6183,-1.4809,-1.5235,-1.6627,-1.6682,-1.7304,-1.8259,-1.4808,-1.3682,-1.2709,-1.2709,-1.2709,-1.3173,-1.456,-1.4808,-1.4497,-1.3602,-1.3514,-1.331,-1.2745,-1.2709,-1.2709,-1.2709,-1.2709,-1.3336,-1.4754,-1.5432,-1.5603,-1.5209,-1.4468,-1.3836,-1.3334,-1.3104,-1.3017,-1.2978,-1.3017,-1.3007,-1.3007,-1.3324,-1.3515,-1.361,-1.4071,-1.449,-1.4869,-1.5165,-1.5435,-1.568,-1.5748,-1.5614,-1.5289,-1.4823,-1.4107,-1.3294,-1.2842,-1.2157,-1.161,-1.2224,-1.1868,-1.1309,-1.1918,-1.1353,-1.0401,-0.9976,-1.0091,-1.0484,-1.131,-1.1347,-1.1422,-1.2647,-1.241,-1.2036,-1.2681,-1.2002,-1.118,-1.085,-1.0621,-1.0582,-1.084,-1.0615,-1.0734,-1.1949,-1.1711,-1.1766,-1.2787,-1.3126,-1.3183,-1.2925,-1.3183,-1.3285,-1.2995,-1.3094,-1.3264,-1.3528,-1.3529,-1.3514,-1.3456,-1.304,-1.3194,-1.4004,-1.365,-1.3428,-1.3446,-1.3667,-1.3952,-1.4276,-1.462,-1.4874,-1.5037,-1.5212,-1.5098,-1.4736,-1.4969,-1.5176,-1.5324,-1.566,-1.5906,-1.6081,-1.5941,-1.6496,-1.7354,-1.7354,-1.8045,-1.9017,-1.4808,-1.4032,-1.3378,-1.3378,-1.3378,-1.3682,-1.4637,-1.4808,-1.4433,-1.348,-1.2978,-1.2709,-1.2709,-1.3104,-1.3173,-1.2745,-1.2709,-1.33,-1.4699,-1.5112,-1.4994,-1.4247,-1.419,-1.3978,-1.3382,-1.3065,-1.2881,-1.2881,-1.2881,-1.2881,-1.2929,-1.3392,-1.3668,-1.3763,-1.4408,-1.4915,-1.5379,-1.5435,-1.5659,-1.5913,-1.5703,-1.5379,-1.5017,-1.4351,-1.3637,-1.2967,-1.251,-1.1868,-1.1309,-1.1918,-1.146,-1.0795,-1.136,-1.0639,-0.958,-0.9423,-0.9714,-1.0273,-1.1224,-1.15,-1.1793,-1.2948,-1.2836,-1.2489,-1.2714,-1.2198,-1.1457,-1.0802,-1.0467,-1.039,-1.0659,-1.0518,-1.0699,-1.1754,-1.1743,-1.1919,-1.2777,-1.3195,-1.3336,-1.3116,-1.3738,-1.4016,-1.3539,-1.3982,-1.4292,-1.4343,-1.446,-1.4483,-1.432,-1.3969,-1.4009,-1.4586,-1.411,-1.3717,-1.3462,-1.3922,-1.4191,-1.4312,-1.5117,-1.5488,-1.5493,-1.5933,-1.5976,-1.5716,-1.5885,-1.5968,-1.6013,-1.6404,-1.6588,-1.6628,-1.6643,-1.7276,-1.8151,-1.788,-1.8502,-1.9475,-1.4808,-1.4808,-1.4808,-1.4808,-1.4808,-1.4808,-1.4808,-1.4808,-1.4808,-1.4808,-1.3568,-1.2709,-1.2709,-1.3967,-1.4241,-1.2803,-1.2721,-1.3588,-1.566,-1.4858,-1.3884,-1.2978,-1.2881,-1.2881,-1.2929,-1.2881,-1.2881,-1.2881,-1.2881,-1.2881,-1.2929,-1.3382,-1.3621,-1.3668,-1.464,-1.5108,-1.5153,-1.5614,-1.5792,-1.5748,-1.5289,-1.5108,-1.4971,-1.3988,-1.3621,-1.3525,-1.3065,-1.2166,-1.1301,-1.1868,-1.099,-0.971,-1.0233,-0.9634,-0.8825,-0.9368,-0.9562,-0.9907,-1.1166,-1.2223,-1.2861,-1.2743,-1.2954,-1.3077,-1.2627,-1.2247,-1.19,-1.1579,-1.085,-1.0332,-1.0293,-1.0631,-1.104,-1.1452,-1.1859,-1.2389,-1.3182,-1.3535,-1.3709,-1.372,-1.3998,-1.4311,-1.4591,-1.412,-1.4182,-1.5062,-1.4683,-1.466,-1.5188,-1.5317,-1.516,-1.4637,-1.4603,-1.4281,-1.3622,-1.5072,-1.536,-1.4549,-1.6941,-1.7233,-1.5654,-1.6791,-1.6813,-1.5918,-1.5918,-1.6257,-1.6751,-1.5942,-1.6624,-1.8031,-1.6524,-1.7188,-1.8893,-1.8097,-1.8474,-1.942,-1.4203,-1.4105,-1.4268,-1.4714,-1.4808,-1.4808,-1.4808,-1.4808,-1.4808,-1.4808,-1.3568,-1.3082,-1.4065,-1.4543,-1.4241,-1.2803,-1.4033,-1.5163,-1.5756,-1.5198,-1.4593,-1.3894,-1.3248,-1.3065,-1.3382,-1.3065,-1.2881,-1.2881,-1.2881,-1.2881,-1.2929,-1.3705,-1.4071,-1.4165,-1.5478,-1.5901,-1.5603,-1.6088,-1.5913,-1.5289,-1.5153,-1.4686,-1.4035,-1.3705,-1.318,-1.251,-1.2372,-1.1679,-1.0839,-1.1396,-1.082,-0.9888,-0.9773,-0.9549,-0.9368,-0.9773,-1.049,-1.133,-1.2574,-1.3386,-1.3979,-1.4428,-1.4038,-1.3592,-1.3862,-1.2847,-1.1778,-1.1478,-1.1035,-1.0811,-1.1165,-1.1581,-1.2025,-1.2432,-1.2619,-1.2994,-1.3688,-1.3654,-1.3736,-1.427,-1.4532,-1.4935,-1.5596,-1.5649,-1.5763,-1.6135,-1.559,-1.5623,-1.6497,-1.5588,-1.5392,-1.6115,-1.5077,-1.4758,-1.521,-1.4999,-1.4954,-1.5084,-1.6273,-1.6814,-1.6814,-1.7294,-1.7446,-1.7304,-1.7353,-1.7449,-1.7526,-1.7154,-1.7322,-1.7743,-1.7282,-1.7628,-1.8432,-1.8319,-1.868,-1.9182,-1.4268,-1.4203,-1.4235,-1.4397,-1.4397,-1.4493,-1.4777,-1.4808,-1.4808,-1.4808,-1.4078,-1.3835,-1.47,-1.4808,-1.4241,-1.2803,-1.461,-1.5672,-1.544,-1.5404,-1.5142,-1.4628,-1.3847,-1.343,-1.3344,-1.3065,-1.2881,-1.2881,-1.2881,-1.2968,-1.321,-1.4154,-1.4698,-1.4926,-1.6225,-1.6607,-1.6349,-1.6479,-1.6076,-1.5322,-1.496,-1.4316,-1.3552,-1.3189,-1.2753,-1.2403,-1.2194,-1.1616,-1.0971,-1.1273,-1.0771,-0.9962,-0.9787,-0.9891,-1.012,-1.0363,-1.1137,-1.2158,-1.3232,-1.3893,-1.4449,-1.5167,-1.4675,-1.4097,-1.4377,-1.3324,-1.2226,-1.189,-1.1581,-1.142,-1.148,-1.1933,-1.2425,-1.2846,-1.3094,-1.354,-1.425,-1.4207,-1.4324,-1.4957,-1.5261,-1.5637,-1.6139,-1.6301,-1.6588,-1.6991,-1.6723,-1.6841,-1.7559,-1.6433,-1.6032,-1.6588,-1.5738,-1.5409,-1.5656,-1.5407,-1.5348,-1.5479,-1.6457,-1.6959,-1.7001,-1.7415,-1.7704,-1.7905,-1.7932,-1.7932,-1.7883,-1.7772,-1.7681,-1.7612,-1.7681,-1.7958,-1.8333,-1.8465,-1.8734,-1.9049,-1.4948,-1.5067,-1.4939,-1.4326,-1.3986,-1.4073,-1.4911,-1.4872,-1.4808,-1.4808,-1.4808,-1.4808,-1.4808,-1.47,-1.4111,-1.2803,-1.4691,-1.5647,-1.4994,-1.5519,-1.5647,-1.5198,-1.4628,-1.3941,-1.2968,-1.2978,-1.2978,-1.2978,-1.2978,-1.32,-1.3658,-1.463,-1.5353,-1.5864,-1.6837,-1.724,-1.7144,-1.6723,-1.6194,-1.5611,-1.4663,-1.3978,-1.3426,-1.2572,-1.2539,-1.2822,-1.243,-1.192,-1.1444,-1.1417,-1.0813,-1.0082,-1.0246,-1.0643,-1.1051,-1.1116,-1.1814,-1.2731,-1.3543,-1.4082,-1.4617,-1.5299,-1.5001,-1.4508,-1.4401,-1.3772,-1.3058,-1.2615,-1.2349,-1.2034,-1.1611,-1.2021,-1.2552,-1.2977,-1.3414,-1.4045,-1.4863,-1.4954,-1.5127,-1.5678,-1.597,-1.6228,-1.6407,-1.6542,-1.6917,-1.7741,-1.7872,-1.8065,-1.8428,-1.7655,-1.6995,-1.6495,-1.6542,-1.6273,-1.5625,-1.6213,-1.6252,-1.5775,-1.716,-1.7395,-1.6581,-1.7265,-1.7658,-1.7839,-1.7861,-1.7883,-1.7905,-1.7905,-1.7794,-1.7658,-1.7816,-1.8107,-1.8434,-1.8485,-1.8679,-1.893,-1.6334,-1.7235,-1.7642,-1.7529,-1.5443,-1.4458,-1.6374,-1.5599,-1.4808,-1.4808,-1.4808,-1.4808,-1.4808,-1.3802,-1.3047,-1.2745,-1.5281,-1.6744,-1.6313,-1.6348,-1.612,-1.5668,-1.5175,-1.4455,-1.3478,-1.343,-1.343,-1.343,-1.343,-1.3705,-1.4165,-1.5152,-1.5796,-1.6151,-1.7175,-1.7407,-1.6967,-1.7005,-1.6083,-1.4617,-1.4398,-1.38,-1.3007,-1.2822,-1.2803,-1.2871,-1.2745,-1.2318,-1.182,-1.1631,-1.1102,-1.0696,-1.1625,-1.1964,-1.2113,-1.2746,-1.3682,-1.454,-1.4709,-1.5096,-1.5558,-1.5913,-1.5441,-1.4833,-1.4916,-1.4401,-1.3709,-1.301,-1.2683,-1.2488,-1.2434,-1.2815,-1.3346,-1.3898,-1.4082,-1.4474,-1.5343,-1.4943,-1.4878,-1.5825,-1.5869,-1.6263,-1.7424,-1.779,-1.8181,-1.8674,-1.8114,-1.8083,-1.8833,-1.8384,-1.8055,-1.7963,-1.7411,-1.7439,-1.812,-1.7137,-1.6521,-1.6268,-1.6941,-1.7158,-1.6963,-1.715,-1.7297,-1.7439,-1.7595,-1.7749,-1.7905,-1.7905,-1.7861,-1.7839,-1.7883,-1.7949,-1.804,-1.8197,-1.8423,-1.8584,-1.6963,-1.757,-1.8016,-1.8439,-1.7139,-1.6417,-1.7625,-1.6745,-1.5946,-1.5946,-1.6318,-1.6578,-1.6578,-1.485,-1.418,-1.5365,-1.6533,-1.7115,-1.6934,-1.6522,-1.6219,-1.5988,-1.5603,-1.4858,-1.3658,-1.3778,-1.38,-1.3621,-1.3847,-1.4165,-1.472,-1.5632,-1.6275,-1.6714,-1.7449,-1.7612,-1.7312,-1.7018,-1.5996,-1.4492,-1.4018,-1.3389,-1.2638,-1.2016,-1.2091,-1.2462,-1.2288,-1.2111,-1.2023,-1.2252,-1.1986,-1.1756,-1.2956,-1.346,-1.3696,-1.3998,-1.4628,-1.5232,-1.5412,-1.5412,-1.5412,-1.5603,-1.5389,-1.5188,-1.5447,-1.4899,-1.4117,-1.3499,-1.3248,-1.306,-1.2579,-1.2949,-1.3409,-1.3789,-1.4098,-1.4518,-1.5274,-1.5036,-1.511,-1.5967,-1.6193,-1.6695,-1.7667,-1.831,-1.8749,-1.889,-1.8604,-1.8619,-1.9092,-1.8639,-1.8399,-1.8395,-1.8318,-1.8539,-1.9169,-1.8483,-1.805,-1.7864,-1.7723,-1.7766,-1.7958,-1.7625,-1.7747,-1.8182,-1.7682,-1.7836,-1.841,-1.8036,-1.7883,-1.7878,-1.7988,-1.7949,-1.7871,-1.8009,-1.8053,-1.8057,-1.7199,-1.7199,-1.7447,-1.8149,-1.8268,-1.8268,-1.8268,-1.7774,-1.7406,-1.7406,-1.824,-1.8659,-1.8307,-1.6294,-1.579,-1.7838,-1.7652,-1.7323,-1.7115,-1.6565,-1.6231,-1.6231,-1.5836,-1.5012,-1.3663,-1.4076,-1.4039,-1.359,-1.4029,-1.4593,-1.5244,-1.6114,-1.6756,-1.7186,-1.7585,-1.7747,-1.7585,-1.685,-1.582,-1.4642,-1.3684,-1.2976,-1.2395,-1.1131,-1.1251,-1.2076,-1.1895,-1.2073,-1.2531,-1.326,-1.3209,-1.3081,-1.4217,-1.4837,-1.5174,-1.5025,-1.5211,-1.549,-1.5744,-1.5344,-1.4903,-1.5051,-1.5028,-1.5141,-1.5623,-1.506,-1.4293,-1.3684,-1.3552,-1.3228,-1.2323,-1.255,-1.3025,-1.3314,-1.3847,-1.4408,-1.496,-1.5232,-1.5564,-1.612,-1.6794,-1.7385,-1.7739,-1.8493,-1.8963,-1.8993,-1.9008,-1.9125,-1.9375,-1.895,-1.8656,-1.8624,-1.9177,-1.9507,-1.9586,-1.9607,-1.9646,-1.971,-1.8904,-1.8642,-1.885,-1.8295,-1.8427,-1.9046,-1.8084,-1.8194,-1.9039,-1.8506,-1.8144,-1.7974,-1.8215,-1.809,-1.7726,-1.7822,-1.7749,-1.7589,-1.7199,-1.7199,-1.724,-1.7365,-1.7365,-1.7365,-1.7365,-1.7909,-1.8307,-1.8307,-1.9347,-1.9354,-1.7557,-1.6372,-1.5813,-1.6151,-1.7475,-1.7814,-1.668,-1.6752,-1.6697,-1.6312,-1.5812,-1.4867,-1.3475,-1.4236,-1.427,-1.3506,-1.3971,-1.4686,-1.5626,-1.6637,-1.7034,-1.6967,-1.753,-1.753,-1.6995,-1.6667,-1.5656,-1.4329,-1.3601,-1.3024,-1.257,-1.1393,-1.1575,-1.2433,-1.2572,-1.3294,-1.4249,-1.4866,-1.4815,-1.4619,-1.5352,-1.5618,-1.5699,-1.5978,-1.6003,-1.5901,-1.5944,-1.5344,-1.4755,-1.4903,-1.4168,-1.3632,-1.4376,-1.4505,-1.4093,-1.2677,-1.2414,-1.2227,-1.1719,-1.1669,-1.2058,-1.3064,-1.3789,-1.4362,-1.4858,-1.5367,-1.5932,-1.6396,-1.7544,-1.8323,-1.8366,-1.8587,-1.9002,-1.9693,-1.8809,-1.8846,-2.0169,-2.0008,-1.9752,-1.9515,-1.9947,-2.0097,-1.9945,-1.9434,-1.9653,-2.0623,-1.9892,-1.9229,-1.874,-1.8616,-1.8661,-1.8783,-1.9028,-1.9197,-1.9359,-1.9731,-1.9358,-1.8598,-1.8758,-1.8259,-1.7479,-1.7572,-1.7635,-1.7589,-1.7199,-1.7199,-1.7199,-1.7199,-1.7199,-1.7199,-1.7199,-1.8305,-1.9176,-1.9176,-1.9833,-1.9696,-1.8095,-1.7102,-1.6765,-1.7269,-1.7814,-1.7814,-1.7034,-1.674,-1.6484,-1.6151,-1.5724,-1.4762,-1.3162,-1.3517,-1.3355,-1.2544,-1.3844,-1.472,-1.5175,-1.6367,-1.6879,-1.6811,-1.7076,-1.7034,-1.6727,-1.5964,-1.4869,-1.3606,-1.2792,-1.2297,-1.1904,-1.0686,-1.0967,-1.2053,-1.2639,-1.3634,-1.478,-1.5462,-1.5554,-1.5537,-1.6353,-1.6437,-1.6321,-1.6634,-1.6051,-1.549,-1.592,-1.5141,-1.4236,-1.434,-1.3768,-1.3188,-1.3372,-1.3409,-1.3256,-1.2861,-1.2463,-1.2021,-1.1469,-1.1377,-1.1569,-1.2147,-1.2967,-1.3732,-1.4305,-1.4674,-1.522,-1.602,-1.6841,-1.749,-1.7747,-1.8106,-1.8458,-1.8803,-1.8626,-1.8793,-1.9464,-1.9767,-1.9878,-1.9743,-2.0288,-2.0622,-2.0792,-2.0485,-2.0539,-2.0975,-2.0797,-2.0321,-1.9574,-1.9296,-1.9358,-1.9688,-1.9425,-1.9579,-1.9958,-1.9418,-1.8977,-1.8601,-1.8135,-1.76,-1.7101,-1.7027,-1.7068,-1.7167]}]]